     2              OBSERVATION DATA    GPS                 RINEX VERSION / TYPE
ASRINEXO V2.7.2 UX SOPAC 02-MAR- 0 15:37                    PGM / RUN BY / DATE
                                                            COMMENT
Original Marker Name: 1012                                  COMMENT
Campaign Name: HPGN 1991                                    COMMENT
4-Character Station Name: 1012                              COMMENT
6-Character Antenna Code: ASHL12                            COMMENT
Vertical Measurement Point: BAS                             COMMENT
Vertical Offset to Rinex Ref. Point: 0.0000                 COMMENT
Radial Measurement Point: RRP                               COMMENT
Radial Offset to Rinex Ref. Point: 0.0000                   COMMENT
Antenna Height from Field Measurement: 2.2150 m             COMMENT
Additional Antenna Identification Info.:                    COMMENT
Original Ashtech L1/L2                                      COMMENT
Original XYZ: 6378137.0000 0.0000 0.0000                    COMMENT
New XYZ position is based on association with SCEC monument COMMENT
E1F9S6F1+0011. Position of that monument is believed to be  COMMENT
valid to within 1 m horizontally; vertical accuracy         COMMENT
should be no worse than 3-times this value.                 COMMENT
                                                            COMMENT
Revised Rinex header created by UCSD GPS archive for        COMMENT
GSAC on 17-Mar-2000 (2000:077) 22:29:20 GMT                 COMMENT
For assistance contact dagnew@ucsd.edu or hjohnson@ucsd.edu COMMENT
                                                            COMMENT
HPGN CA 10 12                                               MARKER NAME
WGV CALIF DEPT TRANSPORTATION                               OBSERVER / AGENCY
577 ASHTECH L-XII 6A                                        REC # / TYPE / VERS
631 ASHTECH GEODETIC L                                      ANT # / TYPE
 -2508640.9679 -4314311.2082  3962053.0658                  APPROX POSITION XYZ
        2.2150        0.0000        0.0000                  ANTENNA: DELTA H/E/N
     1     2     0                                          WAVELENGTH FACT L1/2
     3    C1    L1    L2                                    # / TYPES OF OBSERV
     0                                                      INTERVAL
  1991     5    28    17    20   45.000000                  TIME OF FIRST OBS
  1991     5    28    23    24   45.000000                  TIME OF LAST OBS
                                                            END OF HEADER
 91  5 28 17 20 45.0000000  0  2 19 02
  29942334.150           0.831 3         0.322 2
  33629155.419           0.668 2         0.355 1
 91  5 28 17 21  0.0000000  0  2 19 02
  29941915.947       -2198.655 3     -1713.565 2
  33619900.530      -48618.600 2    -37884.770 1
 91  5 28 17 21 15.0000000  0  2 19 02
  29042137.446       -4330.358 3     -3374.636 2
  32711275.152      -97206.512 2    -75745.403 1
 91  5 28 17 21 30.0000000  0  2 19 02
  29041749.519       -6393.036 3     -4981.916 3
  32702040.349     -145742.922 2   -113565.870 1
 91  5 28 17 21 45.0000000  0  3 19 02 18
  29940741.957       -8376.323 3     -6527.343 2
  33592200.002     -194217.196 2   -151337.955 1
  29872850.952           0.380 4         0.458 3
 91  5 28 17 22  0.0000000  0  3 19 02 18
  29940383.102      -10276.322 3     -8007.856 2
  33582982.884     -242643.948 2   -189073.007 1
  29876829.200       20920.789 4     16302.068 3
 91  5 28 17 22 15.0000000  0  3 19 02 18
  29040657.973      -12082.779 3     -9415.488 3
  32674395.583     -291012.792 2   -226762.927 1
  28981461.852       41991.570 4     32720.841 3
 91  5 28 17 22 30.0000000  0  3 19 02 18
  29040338.093      -13790.337 3    -10746.049 3
  32665209.945     -339299.425 2   -264388.836 1
  28985499.754       63209.261 4     49254.091 3
 91  5 28 17 22 45.0000000  0  4 19 11 02 18
  29939405.183      -15402.065 3    -12001.958 3
  33494205.940           0.054 2         0.488 1
  33555416.671     -387506.528 2   -301952.762 1
  29888938.717       84570.757 4     65899.405 3
 91  5 28 17 23  0.0000000  0  4 19 11 02 18
  29939125.474      -16906.213 3    -13174.009 3
  33487323.007      -36141.003 2    -28161.409 1
  33546257.112     -435640.971 2   -339460.001 1
  29893034.781      106097.108 4     82673.185 3
 91  5 28 17 23 15.0000000  0  4 19 11 02 18
  20645285.267         826.464 3       643.603 2
  24186887.063      115708.920 2     90163.161 1
  24243524.755         481.600 2       375.972 1
  20603607.516      -47773.467 4    -37225.751 3
 91  5 28 17 23 30.0000000  0  4 19 11 02 18
  20645044.533        -453.013 3      -353.399 2
  24180064.386       79822.620 2     62199.909 1
  24234397.279      -47478.535 2    -36995.470 1
  20607767.439      -25917.315 4    -20194.990 3
 91  5 28 17 23 45.0000000  0  4 19 11 02 18
  20644823.290       -1615.521 3     -1259.243 2
  24173263.294       44069.038 2     34339.969 1
  24225283.588      -95346.450 2    -74295.109 1
  20611957.341       -3891.630 4     -3032.118 3
 91  5 28 17 24  0.0000000  0  4 19 11 02 18
  20644629.322       -2653.306 3     -2067.910 3
  24166487.689        8456.394 2      6589.915 1
  24216201.972     -143114.034 2   -111516.530 1
  20616182.614       18311.464 4     14268.993 3
 91  5 28 17 24 15.0000000  0  5 19 11 02 18 16
  20644450.344       -3561.396 3     -2775.505 2
  24159735.763      -27009.810 2    -21046.054 1
  24207123.060     -190776.223 2   -148655.815 1
  20620443.862       40696.753 4     31712.075 3
  24333451.703           0.235 2         0.381 1
 91  5 28 17 24 30.0000000  0  5 19 11 02 18 16
  20644303.745       -4345.112 3     -3386.188 2
  24153011.121      -62334.487 2    -48571.688 1
  24198080.714     -238338.039 2   -185716.918 1
  20624739.294       63259.218 4     49293.205 3
  24327418.980      -31736.804 2    -24729.743 1
 91  5 28 17 24 45.0000000  0  5 19 11 02 18 16
  20644178.130       -4999.303 3     -3895.945 2
  24146307.463      -97512.192 2    -75982.817 1
  24189043.770     -285794.243 2   -222695.736 1
  20629067.096       86003.395 4     67015.933 3
  24321407.240      -63296.447 2    -49321.669 1
 91  5 28 17 25  0.0000000  0  5 19 11 02 18 16
  20644082.197       -5519.541 3     -4301.316 2
  24139651.767     -132537.877 2   -103275.521 1
  24180033.507     -333140.025 2   -259588.435 1
  20633426.972      108934.234 4     84884.106 3
  24315442.267      -94673.812 2    -73771.546 1
 91  5 28 17 25 15.0000000  0  5 19 11 02 18 16
  20644008.749       -5910.027 3     -4605.587 2
  24133024.252     -167415.386 2   -130452.771 1
  24171045.432     -380379.521 2   -296398.358 1
  20637825.832      132047.343 4    102894.312 3
  24309501.585     -125872.953 2    -98082.560 1
 91  5 28 17 25 30.0000000  0  5 19 11 02 18 16
  20643952.088       -6178.613 3     -4814.872 3
  24126406.039     -202152.116 2   -157520.304 1
  24162079.537     -427520.307 2   -333131.376 1
  20642259.461      155334.889 4    121040.439 3
  24303605.261     -156901.509 2   -122260.577 1
 91  5 28 17 25 45.0000000  0  5 19 11 02 18 16
  20643929.909       -6302.766 3     -4911.611 2
  24119836.687     -236725.126 2   -184460.292 1
  24153131.336     -474539.519 2   -369769.637 1
  20646727.266      178819.516 4    139340.144 3
  24297735.025     -187736.574 2   -146287.854 1
 91  5 28 17 26  0.0000000  0  5 19 11 02 18 16
  20643936.200       -6263.385 3     -4880.914 2
  24113281.425     -271114.974 2   -211257.464 1
  24144216.709     -521417.892 2   -406298.134 1
  20651235.844      202520.144 4    157808.165 3
  24291901.365     -218358.920 2   -170149.409 1
 91  5 28 17 26 15.0000000  0  5 19 11 02 18 16
  20643968.282       -6090.114 3     -4745.901 2
  24106764.833     -305350.719 2   -237934.640 1
  24135311.374     -568184.843 2   -442739.881 1
  20655784.601      226407.382 4    176421.586 3
  24286106.375     -248797.830 2   -193867.999 1
 91  5 28 17 26 30.0000000  0  5 19 11 02 18 16
  20644030.335       -5783.076 3     -4506.660 2
  24100283.622     -339432.140 2   -264491.566 1
  24126426.726     -614840.368 2   -479094.770 1
  20660363.329      250480.825 4    195180.091 3
  24280353.064     -279053.146 2   -217443.551 1
 91  5 28 17 26 45.0000000  0  5 19 11 02 18 16
  20644111.278       -5340.951 3     -4162.136 3
  24093821.291     -373357.535 2   -290926.880 1
  24117573.254     -661382.960 2   -515361.625 1
  20664980.735      274741.800 4    214084.735 3
  24274634.523     -309123.144 2   -240874.706 1
 91  5 28 17 27  0.0000000  0  5 19 11 02 18 16
  20644222.200       -4768.422 3     -3716.019 2
  24087395.842     -407131.107 2   -317243.878 1
  24108740.163     -707816.986 2   -551543.884 1
  20669631.410      299185.609 4    233131.843 3
  24268940.866     -339012.164 2   -264164.794 1
 91  5 28 17 27 15.0000000  0  5 19 11 02 18 16
  20644356.811       -4066.853 3     -3169.337 2
  24081000.669     -440753.794 2   -343443.343 1
  24099922.071     -754143.643 2   -587642.521 1
  20674318.364      323810.913 4    252320.384 3
  24263291.576     -368721.475 2   -287314.887 1
 91  5 28 17 27 30.0000000  0  5 19 11 02 18 16
  20644516.001       -3222.851 3     -2511.675 2
  24074634.873     -474211.629 2   -369514.310 1
  24091136.357     -800349.229 2   -623646.778 1
  20679041.597      348631.066 4    271660.756 3
  24257673.164     -398237.274 2   -310314.120 1
 91  5 28 17 27 45.0000000  0  5 19 11 02 18 16
  20644701.872       -2243.224 3     -1748.334 2
  24068295.462     -507511.073 2   -395461.907 1
  24082354.230     -846440.403 2   -659561.962 1
  20683799.599      373639.326 4    291147.693 3
  24252087.132     -427566.197 2   -333167.818 1
 91  5 28 17 28  0.0000000  0  5 19 11 02 18 16
  20644918.324       -1130.261 3      -881.085 2
  24061995.331     -540654.095 2   -421287.600 1
  24073604.490     -892419.290 2   -695389.564 1
  20688595.984      398833.298 4    310779.355 3
  24246551.765     -456710.470 2   -355877.585 1
 91  5 28 17 28 15.0000000  0  5 19 11 02 18 16
  20645150.063         116.275 3        90.238 2
  24055709.876     -573640.196 2   -446991.023 1
  24064882.932     -938285.422 2   -731129.347 1
  20693427.138      424212.994 4    330555.735 3
  24241032.584     -485669.399 2   -378442.982 1
 91  5 28 17 28 30.0000000  0  5 19 11 02 18 16
  20645414.774        1493.083 3      1163.083 2
  24049465.499     -606472.073 2   -472574.274 1
  24056178.153     -984041.795 2   -766783.607 1
  20698287.974      449775.370 4    350474.456 3
  24235555.075     -514445.725 2   -400866.040 1
 91  5 28 17 28 45.0000000  0  5 19 11 02 18 16
  20645701.682        3005.179 3      2341.336 3
  24043253.806     -639144.224 2   -498033.033 1
  24047492.569    -1029683.063 2   -802348.158 1
  20703190.482      475525.216 4    370539.255 3
  24230116.836     -543034.279 2   -423142.833 1
 91  5 28 17 29  0.0000000  0  5 19 11 02 18 16
  20646017.356        4651.504 3      3624.188 3
  24037064.589     -671657.205 2   -523367.745 1
  24038826.764    -1075209.988 2   -837823.599 1
  20708124.165      501461.558 4    390749.384 3
  24224707.086     -571435.725 2   -445273.794 1
 91  5 28 17 29 15.0000000  0  5 19 11 02 18 16
  20646351.929        6423.938 3      5005.303 2
  24030904.453     -704018.803 2   -548584.525 1
  24030183.453    -1120630.657 2   -873216.250 1
  20713093.228      527576.527 4    411098.701 3
  24219350.392     -599657.836 2   -467264.977 1
 91  5 28 17 29 30.0000000  0  5 19 11 02 18 16
  20646715.880        8325.518 3      6487.058 2
  24024774.898     -736225.646 2   -573680.720 1
  24021558.718    -1165941.848 2   -908523.620 1
  20718098.561      553872.972 4    431589.426 3
  24214005.094     -627697.962 2   -489114.459 1
 91  5 28 17 29 45.0000000  0  5 19 11 02 18 16
  20647102.612       10358.789 3      8071.428 2
  24018676.213     -768274.740 2   -598654.009 1
  24012956.773    -1211140.786 2   -943743.490 1
  20723139.571      580353.294 4    452223.430 3
  24208711.954     -655552.935 2   -510819.601 1
 91  5 28 17 30  0.0000000  0  5 19 11 02 18 16
  20647513.023       12512.660 3      9749.764 2
  24012602.420     -800176.755 2   -623512.676 1
  24004373.421    -1256238.291 2   -978884.354 1
  20728209.060      607006.333 4    472992.020 3
  24203444.301     -683233.299 2   -532388.721 1
 91  5 28 17 30 15.0000000  0  5 19 11 02 18 16
  20647944.428       14793.772 3     11527.250 2
  24006565.796     -831924.488 2   -648251.108 1
  23995820.938    -1301227.541 2  -1013940.841 1
  20733314.522      633838.965 4    493900.557 3
  24198205.728     -710732.274 2   -553816.403 1
 91  5 28 17 30 30.0000000  0  5 19 11 02 18 16
  20648407.609       17196.590 3     13399.582 2
  24000553.463     -863523.169 2   -672873.430 1
  23987277.451    -1346113.824 2  -1048917.094 1
  20738454.467      660845.310 4    514944.457 3
  24193003.731     -738055.125 2   -575106.913 1
 91  5 28 17 30 45.0000000  0  5 19 11 02 18 16
  20648884.279       19721.336 3     15366.918 2
  23994564.208     -894971.966 2   -697378.924 1
  23978754.651    -1390896.669 2  -1083812.768 1
  20743629.180      688025.767 4    536124.027 3
  24187847.601     -765201.275 2   -596259.731 1
 91  5 28 17 31  0.0000000  0  5 19 11 02 18 16
  20649385.231       22376.853 3     17436.148 3
  23988611.529     -926261.808 2   -721760.590 1
  23970256.439    -1435567.078 2  -1118620.804 1
  20748833.882      715389.181 4    557446.148 3
  24182715.152     -792161.948 2   -617268.015 1
 91  5 28 17 31 15.0000000  0  5 19 11 02 18 16
  20649916.163       25152.747 3     19599.175 3
  23982686.430     -957402.740 2   -746026.174 1
  23961765.713    -1480135.252 2  -1153349.136 1
  20754070.954      742925.043 4    578902.662 3
  24177613.284     -818946.969 2   -638139.403 1
 91  5 28 17 31 30.0000000  0  5 19 11 02 18 16
  20650469.273       28050.523 3     21857.181 3
  23976786.817     -988392.613 2   -770174.083 1
  23953309.468    -1524599.325 2  -1187996.425 1
  20759345.204      770634.854 4    600494.702 3
  24172546.195     -845554.740 2   -658872.700 1
 91  5 28 17 31 45.0000000  0  5 19 11 02 18 16
  20651041.579       31064.679 3     24205.873 3
  23970919.573    -1019236.597 2   -794208.330 1
  23944864.313    -1568964.772 2  -1222566.878 1
  20764649.433      798513.035 4    622217.953 3
  24167521.370     -871990.336 2   -679471.791 1
 91  5 28 17 32  0.0000000  0  5 19 11 02 18 16
  20651640.567       34204.312 3     26652.347 2
  23965075.120    -1049925.294 2   -818121.581 1
  23936440.447    -1613222.170 2  -1257053.055 1
  20769989.340      826568.648 4    644079.456 3
  24162525.329     -898244.639 2   -699929.658 1
 91  5 28 17 32 15.0000000  0  5 19 11 02 18 16
  20652261.734       37470.087 3     29197.101 2
  23959263.648    -1080457.391 2   -841912.767 1
  23928047.460    -1657370.557 2  -1291454.345 1
  20775362.811      854802.435 3    666079.796 3
  24157560.768     -924316.515 2   -720245.396 1
 91  5 28 17 32 30.0000000  0  5 19 11 02 18 16
  20652904.495       40860.014 3     31838.600 2
  23953487.242    -1110834.673 2   -865583.351 1
  23919664.960    -1701411.867 2  -1325772.141 1
  20780767.772      883212.139 3    688217.224 3
  24152637.878     -950207.794 2   -740420.361 1
 91  5 28 17 32 45.0000000  0  5 19 11 02 18 16
  20653573.929       44372.442 3     34575.551 2
  23947737.823    -1141058.378 2   -889134.180 1
  23911306.750    -1745347.339 2  -1360007.508 1
  20786207.808      911796.330 4    710490.603 3
  24147743.162     -975919.593 2   -760455.533 1
 91  5 28 17 33  0.0000000  0  5 19 11 02 18 16
  20654263.448       48003.112 3     37404.647 2
  23942013.288    -1171132.091 2   -912568.203 1
  23902959.029    -1789181.132 2  -1394163.643 1
  20791678.425      940550.745 4    732896.624 3
  24142889.227    -1001456.036 2   -780353.999 1
 91  5 28 17 33 15.0000000  0  5 19 11 02 18 16
  20654980.853       51757.809 3     40330.385 2
  23936322.929    -1201049.852 2   -935880.736 1
  23894639.489    -1832907.359 2  -1428235.953 1
  20797183.506      969480.801 4    755439.514 3
  24138059.268    -1026811.364 2   -800111.357 1
 91  5 28 17 33 30.0000000  0  5 19 11 02 18 16
  20655719.843       55641.038 3     43356.269 3
  23930654.452    -1230806.797 2   -959067.931 1
  23886340.331    -1876521.358 2  -1462220.817 1
  20802725.477      998591.075 4    778122.839 2
  24133269.786    -1051980.567 2   -819723.696 1
 91  5 28 17 33 45.0000000  0  5 19 11 02 18 16
  20656478.317       59647.930 3     46478.526 2
  23925019.550    -1260407.147 2   -982133.103 1
  23878055.866    -1920027.549 2  -1496121.670 1
  20808295.918     1027876.735 4    800942.828 3
  24128515.674    -1076968.077 2   -839194.445 1
 91  5 28 17 34  0.0000000  0  5 19 11 02 18 16
  20657270.374       63776.096 3     49695.281 2
  23919418.833    -1289852.949 2  -1005077.791 1
  23869806.180    -1963428.225 2  -1529940.321 1
  20813903.537     1057335.386 4    823897.607 3
  24123794.841    -1101776.459 2   -858525.592 1
 91  5 28 17 34 15.0000000  0  6 19 06 11 02 18 16
  20658075.911       68019.026 3     53001.459 3
  24935816.293           0.149 2         0.363 1
  23913852.885    -1319150.396 2  -1027906.925 1
  23861562.182    -2006729.687 2  -1563681.664 1
  20819542.932     1086960.475 4    846982.085 3
  24119105.191    -1126411.727 2   -877721.906 1
 91  5 28 17 34 30.0000000  0  6 19 06 11 02 18 16
  20658905.442       72379.034 3     56398.865 2
  24929496.671      -33212.324 2    -25879.480 1
  23908301.326    -1348296.816 2  -1050618.390 1
  23853342.476    -2049929.550 2  -1597343.802 1
  20825215.003     1116754.401 4    870198.118 3
  24114448.513    -1150871.266 2   -896781.241 1
 91  5 28 17 34 45.0000000  0  6 19 06 11 02 18 16
  20659751.751       76850.744 3     59883.310 2
  24923191.732      -66348.412 2    -51699.708 1
  23902779.152    -1377297.136 2  -1073215.998 1
  23845139.250    -2093032.895 2  -1630930.742 1
  20830912.561     1146711.475 4    893541.282 3
  24109831.107    -1175160.367 2   -915707.819 1
 91  5 28 17 35  0.0000000  0  6 19 06 11 02 18 16
  20660627.447       81437.625 3     63457.509 2
  24916900.292      -99404.612 2    -77457.732 1
  23897291.146    -1406147.332 2  -1095696.610 1
  23836953.720    -2136035.947 2  -1664439.521 1
  20836642.793     1176835.145 4    917014.261 3
  24105237.991    -1199275.263 2   -934498.605 1
 91  5 28 17 35 15.0000000  0  6 19 06 11 02 18 16
  20661519.327       86133.563 3     67116.686 3
  24910623.833     -132386.907 2   -103158.080
  23891833.128    -1434853.020 2  -1118064.639 1
  23828795.472    -2178944.367 2  -1697874.653 1
  20842406.304     1207119.476 4    940612.420 3
  24100679.942    -1223221.511 2   -953157.951 1
 91  5 28 17 35 30.0000000  0  6 19 06 11 02 18 16
  20662439.687       90946.984 3     70867.400 2
  24904362.372     -165286.863 2   -128794.358 1
  23886391.897    -1463405.414 2  -1140313.220 1
  23820646.212    -2221749.667 2  -1731229.366 1
  20848205.788     1237572.728 4    964342.205 3
  24096161.479    -1246990.581 2   -971679.286 1
 91  5 28 17 35 45.0000000  0  6 19 06 11 02 18 16
  20663373.840       95876.268 3     74708.395 2
  24898122.191     -198106.214 2   -154367.894 1
  23880989.632    -1491805.861 2  -1162443.381 1
  23812517.037    -2264453.321 2  -1764504.879 1
  20854030.452     1268192.955 4    988202.106 3
  24091670.883    -1270583.782 2   -990063.554 1
 91  5 28 17 36  0.0000000  0  6 19 06 11 02 18 16
  20664333.183      100914.535 3     78634.315 2
  24891881.112     -230851.846 2   -179883.898 1
  23875609.259    -1520060.817 2  -1184460.162 1
  23804408.549    -2307062.045 2  -1797706.395 1
  20859886.004     1298973.656 4   1012187.058 3
  24087212.074    -1294008.065 2  -1008316.280 1
 91  5 28 17 36 15.0000000  0  6 19 06 11 02 18 16
  20665315.003      106069.062 3     82650.833 2
  24885673.005     -263516.516 2   -205336.763 1
  23870256.465    -1548162.737 2  -1206357.680 1
  23796325.547    -2349568.369 2  -1830828.158 1
  20865779.021     1329921.900 4   1036302.554 3
  24082788.330    -1317255.896 2  -1026431.417 1
 91  5 28 17 36 30.0000000  0  6 19 06 11 02 18 16
  20666319.603      111330.493 3     86750.639 2
  24879467.306     -296109.569 2   -230733.771 1
  23864945.038    -1576120.359 2  -1228142.831 1
  23788249.141    -2391981.443 2  -1863877.263 1
  20871695.726     1361028.234 4   1060541.251 3
  24078401.773    -1340336.186 2  -1044416.033 1
 91  5 28 17 36 45.0000000  0  6 19 06 11 02 18 16
  20667337.701      116704.007 3     90937.785 2
  24873282.888     -328625.798 2   -256071.112 1
  23859654.307    -1603928.161 2  -1249811.188 1
  23780199.111    -2434295.918 2  -1896849.481 1
  20877644.506     1392297.643 4   1084907.010 3
  24074043.084    -1363243.362 2  -1062265.723 1
 91  5 28 17 37  0.0000000  0  6 19 06 11 02 18 16
  20668384.278      122186.387 3     95209.766 2
  24867104.464     -361068.377 2   -281351.018 1
  23854396.844    -1631588.978 2  -1271365.023 1
  23772168.268    -2476514.740 2  -1929747.225 1
  20883625.664     1423726.856 4   1109397.304 3
  24069712.288    -1385980.722 2  -1079983.128 1
 91  5 28 17 37 15.0000000  0  6 19 06 11 02 18 16
  20669444.937      127780.210 3     99568.584 2
  24860953.018     -393434.803 2   -306571.622 1
  23849155.872    -1659099.853 2  -1292802.011 1
  23764148.227    -2518635.094 2  -1962568.204 1
  20889639.506     1455318.522 4   1134014.174 3
  24065416.263    -1408545.330 2  -1097565.894 1
 91  5 28 17 37 30.0000000  0  6 19 06 11 02 18 16
  20670531.693      133483.001 3    104012.319 2
  24854804.573     -425727.468 2   -331734.633 1
  23843949.974    -1686462.845 2  -1314123.776 1
  23756156.952    -2560659.302 2  -1995314.293 1
  20895678.826     1487070.166 3   1158755.696 3
  24061159.509    -1430939.410 2  -1115015.784 1
 91  5 28 17 37 45.0000000  0  6 19 06 11 02 18 16
  20671631.030      139293.569 3    108540.027 2
  24848668.728     -457947.616 2   -356841.144 1
  23838768.664    -1713678.618 2  -1335330.804 1
  23748177.377    -2602588.362 2  -2027986.178 1
  20901752.915     1518980.657 4   1183621.009 3
  24056924.036    -1453163.742 2  -1132333.406 1
 91  5 28 17 38  0.0000000  0  6 19 06 11 02 18 16
  20672767.240      145214.654 3    113153.863 2
  24842559.258     -490092.448 2   -381888.919 1
  23833619.725    -1740744.254 2  -1356420.886 1
  23740215.192    -2644419.412 2  -2060581.731 1
  20907856.094     1551052.544 4   1208612.072 3
  24052734.143    -1475215.428 2  -1149516.540 1
 91  5 28 17 38 15.0000000  0  6 19 06 11 02 18 16
  20673910.352      151236.602 3    117846.291 2
  24836460.573     -522171.600 2   -406885.705 1
  23828496.873    -1767668.977 2  -1377401.116 1
  23732269.488    -2686161.741 2  -2093108.179 1
  20913987.751     1583275.931 3   1233721.186 3
  24048565.225    -1497103.806 2  -1166572.312 1
 91  5 28 17 38 30.0000000  0  6 19 06 11 02 18 16
  20675074.141      157366.633 3    122622.938 3
  24830364.898     -554177.944 1   -431825.571 1
  23823402.805    -1794445.068 2  -1398265.586 1
  23724341.479    -2727808.061 2  -2125559.770 1
  20920151.177     1615658.058 4   1258953.989 3
  24044435.587    -1518821.697 2  -1183495.356 1
 91  5 28 17 38 45.0000000  0  6 19 06 11 02 18 16
  20676261.620      163600.824 3    127480.747 2
  24824295.599     -586115.478 2   -456711.843 1
  23818330.612    -1821076.233 2  -1419017.075 1
  23716428.756    -2769362.109 2  -2157939.499 1
  20926338.893     1648194.836 3   1284307.318 3
  24040332.029    -1540372.884 2  -1200288.508 1
 91  5 28 17 39  0.0000000  0  6 19 06 11 02 18 16
  20677471.287      169939.301 3    132419.805 3
  24818214.311     -617983.914 1   -481544.322 1
  23813293.798    -1847561.862 2  -1439655.150 1
  23708543.614    -2810823.634 2  -2190247.112 2
  20932561.388     1680886.418 3   1309781.267 3
  24036263.842    -1561756.925 2  -1216951.356 1
 91  5 28 17 39 15.0000000  0  5 19 11 02 18 16
  20678695.341      176381.547 3    137439.727 3
  23808283.972    -1873902.114 2  -1460180.016 1
  23700677.361    -2852192.822 2  -2222482.768 2
  20938812.658     1713732.046 4   1335375.244 3
  24032225.033    -1582974.033 2  -1233484.119 1
 91  5 28 17 39 30.0000000  0  5 19 11 02 18 16
  20679940.972      182923.317 3    142537.209 2
  23803295.120    -1900100.847 2  -1480594.551 2
  23692817.408    -2893473.777 2  -2254649.665 1
  20945091.211     1746727.820 4   1361086.227 3
  24028216.814    -1604028.168 2  -1249889.919 1
 91  5 28 17 39 45.0000000  0  5 19 11 02 18 16
  20681203.400      189569.905 3    147716.377 2
  23798336.554    -1926152.337 2  -1500894.362 1
  23684978.430    -2934660.895 2  -2286743.485 1
  20951399.744     1779878.979 3   1386918.281 3
  24024240.363    -1624913.811 2  -1266164.427 1
 91  5 28 17 40  0.0000000  0  5 19 11 02 18 16
  20682488.015      196319.447 3    152975.747 2
  23793410.366    -1952057.898 2  -1521080.472 1
  23677160.139    -2975755.772 2  -2318765.388 1
  20957737.960     1813183.576 4   1412869.899 3
  24020300.191    -1645632.424 2  -1282308.747 1
 91  5 28 17 40 15.0000000  0  5 19 11 02 18 16
  20683789.112      203171.148 3    158314.733 2
  23788509.961    -1977817.961 2  -1541153.178 1
  23669361.942    -3016759.096 2  -2350715.961 1
  20964104.349     1846640.359 4   1438940.107 3
  24016394.492    -1666184.781 2  -1298323.568 1
 91  5 28 17 40 30.0000000  0  5 19 11 02 18 16
  20685119.892      210124.702 3    163733.078 2
  23783636.228    -2003432.623 2  -1561112.626 1
  23661576.929    -3057671.027 2  -2382595.354 1
  20970498.327     1880249.428 4   1465128.980 3
  24012516.382    -1686571.087 2  -1314208.975 1
 91  5 28 17 40 45.0000000  0  6 19 06 11 02 18 16
  20686461.159      217181.717 3    169232.045 2
  24776126.148      133973.83212    104397.023 1
  23778787.991    -2028899.848 2  -1580957.187 1
  23653804.811    -3098489.759 2  -2414402.075 2
  20976925.277     1914011.837 4   1491437.336 3
  24008656.254    -1706789.224 2  -1329963.319 1
 91  5 28 17 41  0.0000000  0  5 19 11 02 18 16
  20687820.723      224338.740 3    174808.949 3
  23773966.129    -2054222.762 2  -1600689.274 1
  23646055.475    -3139218.630 2  -2446138.772 1
  20983378.908     1947924.207 4   1517862.545 3
  24004840.197    -1726842.741 2  -1345589.461 1
 91  5 28 17 41 15.0000000  0  5 19 11 02 18 16
  20689201.262      231595.223 3    180463.347 2
  23769174.544    -2079401.461 2  -1620308.972 1
  23638313.633    -3179857.874 2  -2477805.662 1
  20989860.120     1981985.917 4   1544404.121 3
  24001060.113    -1746731.914 2  -1361087.486 1
 91  5 28 17 41 30.0000000  0  6 19 06 11 02 18 16
  20690603.396      238955.850 3    186198.896 3
  24758267.212      127764.675 2     99558.679 1
  23764404.247    -2104430.801 2  -1639812.299 1
  23630601.178    -3220402.657 2  -2509398.949 1
  20996369.819     2016201.663 4   1571065.734 3
  23997309.712    -1766451.703 2  -1376453.538 1
 91  5 28 17 41 45.0000000  0  6 19 06 11 02 18 16
  20692023.206      246416.233 3    192012.191 2
  24752350.506       96630.582 2     75298.419 1
  23759673.816    -2129314.815 2  -1659202.404 1
  23622910.003    -3260857.189 2  -2540921.883 1
  21002910.684     2050566.994 4   1597843.898 3
  23993587.485    -1786006.214 2  -1391690.823 1
 91  5 28 17 42  0.0000000  0  6 19 06 11 02 18 16
  20693461.610      253975.205 3    197902.288 2
  24746444.297       65559.798 2     51087.440 1
  23754962.886    -2154054.328 2  -1678479.896 1
  23615223.619    -3301222.387 2  -2572375.257 1
  21009476.739     2085080.343 4   1624737.405 3
  23989901.536    -1805396.447 2  -1406800.039 1
 91  5 28 17 42 15.0000000  0  6 19 06 11 02 18 16
  20694917.404      261634.207 3    203870.331 2
  24740537.180       34553.806 2     26926.996 1
  23750289.717    -2178647.599 2  -1697643.401 1
  23607560.329    -3341496.741 2  -2603757.818 1
  21016068.576     2119743.333 3   1651747.514 3
  23986245.864    -1824620.724 2  -1421780.008 1
 91  5 28 17 42 30.0000000  0  6 19 06 11 02 18 16
  20696395.681      269390.228 3    209913.979 3
  24734653.455        3609.614 2      2814.627 1
  23745644.434    -2203097.094 2  -1716694.959 1
  23599919.812    -3381682.978 2  -2635071.713 1
  21022696.989     2154553.142 4   1678872.027 3
  23982608.488    -1843682.101 2  -1436632.957 1
 91  5 28 17 42 45.0000000  0  6 19 06 11 02 18 16
  20697888.949      277243.939 3    216033.756 2
  24728769.128      -27272.281 2    -21249.057 1
  23741009.945    -2227402.051 2  -1735633.808 1
  23592287.401    -3421780.190 2  -2666316.225 1
  21029351.184     2189509.655 4   1706110.843 3
  23979022.966    -1862579.632 2  -1451358.323 1
 91  5 28 17 43  0.0000000  0  6 19 06 11 02 18 16
  20699405.600      285193.897 3    222228.524 2
  24722904.886      -58093.164 2    -45265.296 1
  23736416.524    -2251563.411 2  -1754460.825 1
  23584674.770    -3461789.592 2  -2697492.344 1
  21036028.763     2224611.869 4   1733463.201 3
  23975453.943    -1881314.332 2  -1465956.777 1
 91  5 28 17 43 15.0000000  0  6 19 06 11 02 18 16
  20700931.543      293243.436 3    228500.875 3
  24717057.135      -88849.663 2    -69231.404 1
  23731842.586    -2275577.423 2  -1773172.977 1
  23577079.231    -3501707.793 2  -2728597.411 1
  21042739.314     2259863.075 4   1760931.667 3
  23971920.884    -1899882.811 2  -1480425.673 1
 91  5 28 17 43 30.0000000  0  6 19 06 11 02 18 16
  20702482.073      301391.287 3    234849.853 3
  24711204.289     -119543.044 2    -93148.155 1
  23727301.935    -2299444.736 2  -1791770.866 1
  23569498.979    -3541535.718 2  -2759632.090 1
  21049472.952     2295262.008 4   1788515.241 3
  23968413.312    -1918285.779 2  -1494765.640 1
 91  5 28 17 43 45.0000000  0  6 19 06 11 02 18 16
  20704051.188      309639.132 3    241276.739 2
  24705385.322     -150171.843 2   -117014.687 1
  23722787.057    -2323163.519 2  -1810252.973 1
  23561934.615    -3581271.602 2  -2790595.074 1
  21056238.070     2330809.826 4   1816214.822 3
  23964947.114    -1936521.457 2  -1508975.222 1
 91  5 28 17 44  0.0000000  0  6 19 06 11 02 18 16
  20705644.585      317986.946 3    247781.525 2
  24699572.043     -180735.846 2   -140830.782 1
  23718300.065    -2346733.196 2  -1828618.928 1
  23554392.735    -3620915.053 2  -2821486.017 1
  21063033.167     2366506.490 4   1844030.385 3
  23961507.292    -1954589.529 2  -1523054.248 1
 91  5 28 17 44 15.0000000  0  6 19 06 11 02 18 16
  20707246.375      326430.684 3    254361.052 2
  24693762.962     -211239.059 2   -164599.522 1
  23713854.143    -2370157.489 2  -1846871.568 1
  23546866.448    -3660470.083 2  -2852308.038 1
  21069852.546     2402348.245 4   1871959.009 2
  23958102.851    -1972494.084 2  -1537005.810 1
 91  5 28 17 44 30.0000000  0  6 19 06 11 02 18 16
  20708876.348      334972.424 3    261016.952 3
  24687977.569     -241679.629 2   -188319.332 1
  23709413.917    -2393434.103 2  -1865009.192 1
  23539355.743    -3699934.467 2  -2883059.475 1
  21076703.100     2438336.939 4   1900002.131 2
  23954727.787    -1990233.077 2  -1550828.395 1
 91  5 28 17 44 45.0000000  0  6 19 06 11 02 18 16
  20710517.706      343613.564 3    267750.296 2
  24682190.675     -272056.042 2   -211989.276 1
  23705013.260    -2416561.235 2  -1883030.264 1
  23531864.530    -3739306.613 2  -2913739.029 1
  21083577.640     2474473.928 4   1928160.813 3
  23951388.400    -2007804.597 2  -1564520.470 1
 91  5 28 17 45  0.0000000  0  6 19 06 11 02 18 16
  20712182.754      352354.618 3    274561.501 2
  24676416.372     -302367.865 2   -235608.797 1
  23700644.389    -2439538.108 2  -1900934.264 1
  23524386.205    -3778586.025 2  -2944346.299 1
  21090480.065     2510759.438 4   1956435.218 3
  23948067.597    -2025208.369 2  -1578081.813 1
 91  5 28 17 45 15.0000000  0  6 19 06 11 02 18 16
  20713865.487      361195.076 3    281450.159 3
  24670663.655     -332615.801 2   -259178.618 1
  23696295.899    -2462364.961 2  -1918721.431 1
  23516927.973    -3817772.948 2  -2974881.492 1
  21097415.462     2547192.700 4   1984824.744 2
  23944794.460    -2042444.306 2  -1591512.388 1
 91  5 28 17 45 30.0000000  0  6 19 06 11 02 18 16
  20715566.211      370132.427 3    288414.324 2
  24664914.236     -362802.239 2   -282700.443 1
  23691984.884    -2485043.916 2  -1936393.303 1
  23509490.123    -3856869.632 2  -3005346.376 1
  21104377.244     2583770.963 4   2013327.276 2
  23941540.518    -2059514.679 2  -1604813.952 1
 91  5 28 17 45 45.0000000  0  6 19 06 11 02 18 16
  20717284.325      379165.677 3    295453.214 2
  24659190.294     -392928.026 2   -306175.072 1
  23687702.644    -2507575.404 2  -1953950.241 1
  23502073.554    -3895876.787 2  -3035741.537 1
  21111365.707     2620493.620 4   2041942.317 2
  23938325.245    -2076420.402 2  -1617987.213 1
 91  5 28 17 46  0.0000000  0  6 19 06 11 02 18 16
  20719021.922      388294.961 3    302566.931 2
  24653470.261     -422993.021 2   -329602.277 1
  23683435.403    -2529958.850 2  -1971391.861 1
  23494665.081    -3934794.009 2  -3066066.596 1
  21118377.248     2657360.791 3   2070669.973 2
  23935139.045    -2093161.252 2  -1631032.014 1
 91  5 28 17 46 15.0000000  0  6 19 06 11 02 18 16
  20720777.501      397521.655 3    309756.560 3
  24647755.018     -452995.985 2   -352981.111 1
  23679205.330    -2552192.678 2  -1988716.862 1
  23487276.101    -3973619.906 2  -3096320.503 1
  21125422.075     2694373.449 4   2099510.980 2
  23931981.934    -2109735.461 2  -1643946.951 1
 91  5 28 17 46 30.0000000  0  6 19 06 11 02 18 16
  20722554.072      406845.150 3    317021.629 2
  24642064.353     -482937.509 2   -376312.125 1
  23674995.038    -2574277.164 2  -2005925.565 1
  23479903.602    -4012355.029 2  -3126503.651 1
  21132493.881     2731530.967 3   2128464.878 2
  23928861.696    -2126143.648 2  -1656732.569 1
 91  5 28 17 46 45.0000000  0  6 19 06 11 02 18 16
  20724339.038      416262.303 3    324359.651 3
  24636379.989     -512820.925 2   -399597.846 1
  23670830.927    -2596215.172 2  -2023020.059 1
  23472543.100    -4051002.439 2  -3156618.464 1
  21139591.766     2768830.020 4   2157529.058 2
  23925772.335    -2142388.505 2  -1669390.878 1
 91  5 28 17 47  0.0000000  0  6 19 06 11 02 18 16
  20726153.686      425772.439 3    331770.143 3
  24630702.517     -542646.764 2   -422838.697 1
  23666679.102    -2618006.916 2  -2040000.616 1
  23465211.373    -4089562.502 2  -3186665.213 1
  21146713.636     2806269.886 3   2186702.953 2
  23922710.250    -2158470.837 2  -1681922.553 1
 91  5 28 17 47 15.0000000  0  6 19 06 11 02 18 16
  20727979.720      435376.389 3    339253.735 3
  24625045.139     -572414.240 2   -446034.095 1
  23662563.852    -2639651.246 2  -2056866.294 1
  23457894.340    -4128034.127 2  -3216643.065 1
  21153865.180     2843851.315 4   2215987.166 2
  23919683.850    -2174389.310 2  -1694326.549 1
 91  5 28 17 47 30.0000000  0  6 19 06 11 02 18 16
  20729824.043      445075.649 3    346811.602 2
  24619380.859     -602121.833 2   -469182.832 1
  23658472.578    -2661146.245 2  -2073615.586 1
  23450588.100    -4166415.644 2  -3246550.694 1
  21161046.712     2881575.761 3   2245382.824 3
  23916683.529    -2190142.266 2  -1706601.587 1
 91  5 28 17 47 45.0000000  0  6 19 06 11 02 18 16
  20731686.653      454868.948 3    354442.740 3
  24613745.355     -631770.717 2   -492285.788 1
  23654417.889    -2682492.718 2  -2090249.208 1
  23443300.138    -4204708.035 2  -3276388.869 1
  21168249.525     2919441.911 3   2274888.886 2
  23913717.978    -2205730.816 2  -1718748.466 1
 91  5 28 17 48  0.0000000  0  6 19 06 11 02 18 16
  20733573.545      464750.593 3    362142.719 3
  24608109.563     -661366.589 1   -515347.430 1
  23650375.485    -2703696.096 2  -2106771.282 1
  23436028.074    -4242916.841 2  -3306161.933 1
  21175482.920     2957443.758 4   2304500.706 2
  23910781.211    -2221160.654 2  -1730771.699 1
 91  5 28 17 48 15.0000000  0  6 19 06 11 02 18 16
  20735467.635      474721.100 3    369911.935 3
  24602488.149     -690909.106 2   -538367.525 1
  23646371.454    -2724755.516 2  -2123181.229 1
  23428774.001    -4281041.428 2  -3335869.343 1
  21182741.792     2995581.742 3   2334218.593 2
  23907872.923    -2236431.069 2  -1742670.698 1
 91  5 28 17 48 30.0000000  0  6 19 06 11 02 18 16
  20737383.608      484781.534 3    377751.233 3
  24596870.942     -720397.138 2   -561345.107 1
  23642390.213    -2745669.531 2  -2139477.813 1
  23421535.206    -4319080.438 2  -3365510.075 1
  21190021.054     3033857.053 3   2364043.486 3
  23904997.615    -2251540.562 2  -1754444.300 1
 91  5 28 17 48 45.0000000  0  6 19 06 11 02 18 16
  20739311.874      494930.673 3    385659.655 2
  24591277.711     -749831.873 2   -584281.231 1
  23638439.545    -2766438.953 2  -2155661.760 1
  23414310.807    -4357035.076 2  -3395085.066 1
  21197334.493     3072268.100 3   2393974.141 3
  23902161.274    -2266490.132 2  -1766093.319 1
 91  5 28 17 49  0.0000000  0  5 19 11 02 18 16
  20741264.719      505159.620 3    393630.266 3
  23634507.767    -2787072.430 2  -2171739.743 1
  23407105.001    -4394913.939 2  -3424601.028 2
  21204664.116     3110805.959 3   2424003.631 2
  23899332.734    -2281288.583 2  -1777624.540 1
 91  5 28 17 49 15.0000000  0  5 19 11 02 18 16
  20743222.965      515473.692 3    401667.194 3
  23630608.969    -2807564.274 2  -2187707.414 1
  23399910.879    -4432711.511 2  -3454053.618 1
  21212028.222     3149475.839 3   2454135.985 2
  23896552.460    -2295930.749 2  -1789034.032 1
 91  5 28 17 49 30.0000000  0  5 19 11 02 18 16
  20745201.593      525872.709 3    409770.318 3
  23626741.643    -2827914.458 2  -2203564.708 1
  23392733.848    -4470428.078 2  -3483443.125 1
  21219409.707     3188277.357 3   2484370.917 2
  23893797.664    -2310416.675 2  -1800321.709 1
 91  5 28 17 49 45.0000000  0  6 19 06 11 02 18 16
  20747194.914      536358.508 3    417941.082 3
  24568957.861      134260.82512    104622.142 1
  23622888.112    -2848120.630 2  -2219309.711 1
  23385570.011    -4508061.452 2  -3512767.780 1
  21226817.883     3227212.336 3   2514709.845 3
  23891067.456    -2324743.963 2  -1811485.849 1
 91  5 28 17 50  0.0000000  0  5 19 11 02 18 16
  20749209.219      546923.278 3    426173.370 3
  23619070.257    -2868190.210 2  -2234948.320 1
  23378426.851    -4545619.258 2  -3542033.535 1
  21234251.231     3266272.900 3   2545146.626 3
  23888372.025    -2338920.431 2  -1822532.419 1
 91  5 28 17 50 15.0000000  0  5 19 11 02 18 16
  20751237.318      557569.671 3    434469.251 3
  23615289.572    -2888120.172 2  -2250478.106 1
  23371288.194    -4583098.755 2  -3571238.315 1
  21241709.175     3305461.723 3   2575683.341 2
  23885702.971    -2352943.200 2  -1833459.279 1
 91  5 28 17 50 30.0000000  0  6 19 06 11 02 18 16
  20753275.608      568299.578 3    442830.210 3
  24552324.776      116817.626 2     91030.140 1
  23611509.488    -2907908.252 2  -2265897.390 1
  23364176.218    -4620497.632 2  -3600380.243 1
  21249189.594     3344780.364 3   2606321.223 2
  23883061.802    -2366809.951 2  -1844264.491 1
 91  5 28 17 50 45.0000000  0  6 19 06 11 02 18 16
  20755330.084      579110.664 3    451254.435 3
  24546789.114       87760.933 2     68388.665 1
  23607776.476    -2927556.683 2  -2281207.834 1
  23357069.634    -4657818.133 2  -3629461.100 1
  21256694.593     3384226.602 3   2637058.532 2
  23880458.700    -2380523.084 2  -1854950.014 1
 91  5 28 17 51  0.0000000  0  6 19 06 11 02 18 16
  20757403.152      589999.873 3    459739.525 3
  24541269.933       58746.831 2     45780.281 1
  23604065.949    -2947068.030 2  -2296411.478 1
  23349989.139    -4695063.206 2  -3658483.211 2
  21264224.484     3423797.098 3   2667892.654 3
  23877880.483    -2394085.726 2  -1865518.342 1
 91  5 28 17 51 15.0000000  0  6 19 06 11 02 18 16
  20759491.803      600971.149 3    468288.564 2
  24535754.652       29779.243 2     23208.214 1
  23600371.302    -2966438.015 2  -2311504.954 1
  23342908.643    -4732228.720 2  -3687443.313 1
  21271781.353     3463495.629 3   2698826.538 2
  23875326.556    -2407493.342 2  -1875965.819 1
 91  5 28 17 51 30.0000000  0  6 19 06 11 02 18 16
  20761596.047      612022.633 3    476900.103 3
  24530256.454         856.038 2       670.735 1
  23596716.232    -2985668.400 2  -2326489.666 1
  23335857.822    -4769316.611 2  -3716342.932 1
  21279359.206     3503319.980 3   2729858.486 2
  23872804.703    -2420747.843 2  -1886293.960 1
 91  5 28 17 51 45.0000000  0  6 19 06 11 02 18 16
  20763710.481      623150.498 3    485571.164 3
  24524754.663      -28026.424 2    -21835.112 1
  23593083.646    -3004762.671 2  -2341368.285 1
  23328814.495    -4806330.333 2  -3745184.732 1
  21286959.840     3543266.340 3   2760985.492 3
  23870307.726    -2433853.228 2  -1896505.961 1
 91  5 28 17 52  0.0000000  0  6 19 06 11 02 18 16
  20765844.704      634356.547 3    494303.145 3
  24519271.761      -56866.402 2    -44307.807 1
  23589475.046    -3023718.527 2  -2356139.036 1
  23321785.565    -4843267.697 2  -3773967.078 1
  21294585.062     3583336.442 3   2792208.919 2
  23867841.338    -2446807.235 2  -1906599.948 1
 91  5 28 17 52 15.0000000  0  6 19 06 11 02 18 16
  20767990.618      645637.431 3    503093.433 3
  24513785.560      -85667.104 2    -66749.785 1
  23585897.324    -3042538.905 2  -2370804.253 1
  23314772.523    -4880132.004 2  -3802692.472 1
  21302234.269     3623526.911 3   2823526.143 2
  23865404.624    -2459612.899 2  -1916578.437 1
 91  5 28 17 52 30.0000000  0  6 19 06 11 02 18 16
  20770155.422      656997.401 3    511945.349 3
  24508310.450     -114424.417 2    -89158.066 1
  23582342.688    -3061219.323 2  -2385360.403 1
  23307769.070    -4916919.100 2  -3831357.718 1
  21309908.360     3663841.683 3   2854940.220 2
  23862999.086    -2472265.891 2  -1926437.836 1
 91  5 28 17 52 45.0000000  0  6 19 06 11 02 18 16
  20772330.112      668438.580 3    520860.545 3
  24502848.828     -143136.174 2   -111530.788 1
  23578815.624    -3079757.256 2  -2399805.537 1
  23300782.107    -4953626.589 2  -3859960.919 1
  21317602.231     3704283.018 3   2886452.929 2
  23860614.540    -2484763.867 2  -1936176.573 1
 91  5 28 17 53  0.0000000  0  6 19 06 11 02 18 16
  20774523.700      679962.023 3    529839.844 3
  24497397.703     -171801.486 2   -133867.376 1
  23575314.648    -3098151.523 2  -2414138.711 1
  23293805.632    -4990253.268 2  -3888501.118 1
  21325320.384     3744851.633 3   2918064.823 2
  23858270.766    -2497105.938 2  -1945793.711 1
 91  5 28 17 53 15.0000000  0  6 19 06 11 02 18 16
  20776728.369      691568.039 3    538883.488 3
  24491957.074     -200419.731 2   -156167.234 1
  23571836.453    -3116401.186 2  -2428359.222 1
  23286856.441    -5026798.387 2  -3916977.804 1
  21333069.127     3785547.842 3   2949776.129 2
  23855956.963    -2509291.362 2  -1955288.844 1
 91  5 28 17 53 30.0000000  0  6 19 06 11 02 18 16
  20778954.633      703241.238 3    547979.470 3
  24486511.045     -229006.535 2   -178442.635 1
  23568395.139    -3134521.413 2  -2442478.862 1
  23279915.050    -5063277.303 2  -3945402.900 1
  21340831.952     3826356.266 3   2981574.872 2
  23853660.253    -2521335.406 2  -1964673.837 1
 91  5 28 17 53 45.0000000  0  6 19 06 11 02 18 16
  20781186.883      714982.268 3    557128.325 3
  24481081.497     -257561.193 2   -200692.981 1
  23564965.517    -3152511.205 2  -2456496.855 1
  23272988.648    -5099689.338 2  -3973775.907 1
  21348617.262     3867277.338 3   3013461.402 2
  23851391.724    -2533237.154 2  -1973947.849 1
 91  5 28 17 54  0.0000000  0  6 19 06 11 02 18 16
  20783438.920      726814.640 3    566348.344 2
  24475647.761     -286060.224 2   -222900.011 1
  23561575.158    -3170346.762 2  -2470394.652 1
  23266076.032    -5136010.632 2  -4002078.132 1
  21356434.349     3908334.510 3   3045453.984 2
  23849161.272    -2544972.821 2  -1983092.484 1
 91  5 28 17 54 15.0000000  0  6 19 06 11 02 18 16
  20785708.653      738733.008 3    575635.372 2
  24470243.105     -314509.161 2   -245067.938 1
  23558208.496    -3188033.280 2  -2484176.339 1
  23259183.502    -5172246.572 2  -4030313.928 1
  21364270.919     3949522.034 3   3077548.132 2
  23846960.495    -2556548.271 2  -1992112.341 1
 91  5 28 17 54 30.0000000  0  6 19 06 11 02 18 16
  20787990.670      750740.273 3    584991.679 3
  24464830.353     -342905.246 2   -267194.755 1
  23554867.006    -3205567.565 2  -2497839.414 1
  23252302.069    -5208394.188 2  -4058480.840 2
  21372131.779     3990842.412 3   3109745.804 2
  23844791.494    -2567960.518 2  -2001005.002 1
 91  5 28 17 54 45.0000000  0  6 19 06 11 02 18 16
  20790290.382      762836.266 3    594417.121 3
  24459440.679     -371248.409 2   -289280.253 1
  23551559.693    -3222949.220 2  -2511383.541 1
  23245439.518    -5244453.320 2  -4086578.830 2
  21380024.120     4032295.567 3   3142046.947 2
  23842652.777    -2579208.999 2  -2009769.992 1
 91  5 28 17 55  0.0000000  0  6 19 06 11 02 18 16
  20792613.774      775020.652 3    603911.438 3
  24454059.407     -399538.858 2   -311324.668 1
  23548284.164    -3240178.196 2  -2524808.680 1
  23238594.060    -5280423.878 2  -4114607.804 2
  21387936.843     4073881.576 3   3174451.603 2
  23840538.038    -2590293.644 2  -2018407.431 1
 91  5 28 17 55 15.0000000  0  6 19 06 11 02 18 16
  20794948.561      787293.442 3    613474.655 3
  24448684.731     -427776.641 2   -333328.070 1
  23545043.406    -3257254.199 2  -2538114.635 1
  23231771.976    -5316305.763 3  -4142567.666 1
  21395874.441     4115600.119 3   3206959.541 2
  23838455.983    -2601214.603 2  -2026917.267 1
 91  5 28 17 55 30.0000000  0  6 19 06 11 02 18 16
  20797303.424      799652.095 3    623104.764 3
  24443319.941     -455964.397 2   -355292.551 1
  23541814.645    -3274179.535 2  -2551303.204 1
  23224957.098    -5352101.483 2  -4170460.396 2
  21403835.134     4157448.254 3   3239568.454 2
  23836411.393    -2611974.427 2  -2035301.493 1
 91  5 28 17 55 45.0000000  0  6 19 06 11 02 18 16
  20799678.686      812144.686 3    632839.248 3
  24437971.344     -484054.090 2   -377180.583 1
  23538633.845    -3290905.774 2  -2564336.628 1
  23218173.396    -5387762.954 2  -4198248.507 1
  21411835.099     4199473.899 3   3272315.682 2
  23834401.887    -2622524.935 2  -2043522.687 1
 91  5 28 17 56  0.0000000  0  6 19 06 11 02 18 16
  20802070.422      824722.079 3    642639.808 3
  24432640.434     -512094.749 2   -399030.380 1
  23535473.131    -3307481.802 2  -2577252.965 1
  23211396.883    -5423339.008 2  -4225970.060 2
  21419853.946     4241628.028 3   3305163.042 2
  23832435.544    -2632914.791 2  -2051618.639 1
 91  5 28 17 56 15.0000000  0  6 19 06 11 02 18 16
  20804478.360      837385.595 3    652507.472 2
  24427311.320     -540085.239 2   -420841.122 1
  23532348.390    -3323905.960 2  -2590051.007 1
  23204643.762    -5458828.253 2  -4253623.997 2
  21427902.771     4283911.633 4   3338111.277 2
  23830486.294    -2643143.042 2  -2059588.688 1
 91  5 28 17 56 30.0000000  0  6 19 06 11 02 18 16
  20806908.774      850136.633 3    662443.343 3
  24421998.104     -568024.174 2   -442611.692 1
  23529261.429    -3340176.613 3  -2602729.449 1
  23197914.321    -5494228.991 2  -4281208.932 2
  21435970.783     4326325.976 3   3371161.404 2
  23828569.728    -2653208.052 2  -2067431.494 1
 91  5 28 17 56 45.0000000  0  6 19 06 11 02 18 16
  20809349.684      862971.261 3    672444.349 2
  24416687.881     -595915.371 2   -464345.034 1
  23526183.760    -3356297.197 2  -2615290.920 1
  23191188.179    -5529545.039 2  -4308727.881 2
  21444071.480     4368866.970 3   3404310.218 2
  23826674.137    -2663113.336 2  -2075149.946 1
 91  5 28 17 57  0.0000000  0  6 19 06 11 02 18 16
  20811806.788      875894.735 3    682514.583 3
  24411393.546     -623753.832 2   -486037.349 1
  23523157.657    -3372262.348 2  -2627731.276 1
  23184482.121    -5564771.193 2  -4336176.806 2
  21452189.862     4411539.869 3   3437561.797 2
  23824821.115    -2672853.725 2  -2082739.822 1
 91  5 28 17 57 15.0000000  0  6 19 06 11 02 18 16
  20814286.072      888907.937 3    692654.727 3
  24406105.502     -651538.529 2   -507687.687 1
  23520147.739    -3388070.752 2  -2640049.518 1
  23177800.345    -5599906.213 2  -4363554.715 2
  21460334.324     4454345.257 3   3470916.619 2
  23823001.075    -2682428.094 2  -2090200.313 1
 91  5 28 17 57 30.0000000  0  6 19 06 11 02 18 16
  20816779.141      902006.135 3    702861.115 2
  24400819.264     -679274.280 2   -529299.970 1
  23517163.909    -3403726.828 2  -2652249.042 1
  23171129.659    -5634954.680 2  -4390865.162 1
  21468505.161     4497278.107 3   3504370.767 2
  23821218.509    -2691840.964 2  -2097535.063 1
 91  5 28 17 57 45.0000000  0  6 19 06 11 02 18 16
  20819283.011      915191.120 3    713135.124 3
  24395553.713     -706959.406 2   -550872.663 1
  23514215.450    -3419228.553 2  -2664328.291 1
  23164480.568    -5669914.734 2  -4418106.726 1
  21476701.188     4540340.245 3   3537925.649 2
  23819456.037    -2701090.581 2  -2104742.530 1
 91  5 28 17 58  0.0000000  0  6 19 06 11 02 18 16
  20821809.960      928457.322 3    723472.412 3
  24390292.350     -734599.207 2   -572410.185 1
  23511294.266    -3434581.081 2  -2676291.275 1
  23157842.261    -5704791.710 2  -4445283.548 1
  21484918.505     4583526.184 3   3571577.014 2
  23817719.034    -2710182.341 2  -2111827.010 1
 91  5 28 17 58 15.0000000  0  6 19 06 11 02 18 16
  20824350.101      941803.097 3    733871.713 2
  24385052.277     -762195.648 2   -593913.869 1
  23508397.373    -3449785.933 2  -2688139.197 1
  23151221.945    -5739587.109 2  -4472396.819 1
  21493158.000     4626833.728 3   3605323.130 2
  23816021.311    -2719117.842 2  -2118789.718 1
 91  5 28 17 58 30.0000000  0  6 19 06 11 02 18 16
  20826901.035      955228.766 3    744333.257 2
  24379806.514     -789748.233 2   -615383.389 1
  23505534.656    -3464842.317 2  -2699871.433 1
  23144614.813    -5774300.446 2  -4499446.113 2
  21501421.777     4670263.154 3   3639164.205 2
  23814348.167    -2727896.625 2  -2125630.333 1
 91  5 28 17 58 45.0000000  0  6 19 06 11 02 18 16
  20829471.155      968734.546 3    754857.236 2
  24374575.733     -817256.825 2   -636818.512 1
  23502696.221    -3479749.797 2  -2711487.638 1
  23138022.382    -5808931.376 2  -4526431.232 1
  21509713.135     4713814.710 4   3673100.474 2
  23812714.905    -2736518.525 2  -2132348.657 1
 91  5 28 17 59  0.0000000  0  6 19 06 11 02 18 16
  20832065.863      982321.222 3    765444.254 2
  24369346.156     -844720.604 2   -658218.895 1
  23499883.865    -3494507.207 2  -2722986.925 1
  23131445.831    -5843478.940 2  -4553351.388 2
  21518022.187     4757489.126 4   3707132.462 2
  23811093.622    -2744982.243 2  -2138943.745 1
 91  5 28 17 59 15.0000000  0  6 19 06 11 02 18 16
  20834659.663      995989.317 3    776094.700 3
  24364132.458     -872139.177 2   -679583.995 1
  23497111.087    -3509113.899 2  -2734368.747 1
  23124885.771    -5877942.485 2  -4580206.079 2
  21526356.716     4801286.350 3   3741260.144 2
  23809523.007    -2753287.308 2  -2145415.202 1
 91  5 28 17 59 30.0000000  0  6 19 06 11 02 18 16
  20837279.848     1009740.615 3    786809.990 3
  24358918.176     -899510.787 2   -700912.491 1
  23494355.697    -3523567.725 2  -2745631.460 1
  23118351.502    -5912320.161 3  -4606993.825 2
  21534713.730     4845208.149 3   3775484.901 2
  23807964.685    -2761431.737 2  -2151761.512 1
 91  5 28 17 59 45.0000000  0  6 19 06 11 02 18 16
  20839907.528     1023574.924 3    797589.965 2
  24353717.671     -926835.757 2   -722204.560 1
  23491635.383    -3537868.708 2  -2756775.045 1
  23111818.420    -5946612.167 2  -4633714.820 2
  21543096.824     4889254.247 3   3809806.512 2
  23806451.934    -2769415.811 2  -2157982.858 1
 91  5 28 18  0  0.0000000  0  6 19 06 11 02 18 16
  20842562.195     1037492.447 3    808434.775 3
  24348528.561     -954113.812 2   -743460.218 1
  23488938.749    -3552016.281 2  -2767799.137 1
  23105314.122    -5980818.021 3  -4660368.708 1
  21551502.402     4933424.714 3   3844225.041 2
  23804959.566    -2777239.053 2  -2164078.867 1
 91  5 28 18  0 15.0000000  0  6 19 06 11 02 18 16
  20845221.652     1051493.451 3    819344.650 2
  24343339.154     -981344.500 2   -764678.894 1
  23486278.986    -3566009.736 2  -2778703.134 1
  23098821.218    -6014937.122 2  -4686954.995 1
  21559930.770     4977719.686 3   3878740.576 2
  23803500.178    -2784901.118 2  -2170049.359 1
 91  5 28 18  0 30.0000000  0  6 19 06 11 02 18 16
  20847906.595     1065579.385 3    830320.689 3
  24338169.239    -1008526.485 2   -785859.595 1
  23483646.813    -3579847.369 2  -2789485.693 1
  23092347.502    -6048967.851 2  -4713472.413 2
  21568381.020     5022140.678 3   3913354.299 2
  23802076.763    -2792400.345 2  -2175892.907 1
 91  5 28 18  0 45.0000000  0  6 19 06 11 02 18 16
  20850600.533     1079751.276 3    841363.710 3
  24333007.107    -1035658.771 2   -807001.572 1
  23481047.612    -3593527.951 2  -2800145.871 1
  23085890.267    -6082909.200 3  -4739920.193 2
  21576860.351     5066688.531 3   3948066.877 2
  23800677.936    -2799735.925 2  -2181608.924 1
 91  5 28 18  1  0.0000000  0  6 19 06 11 02 18 16
  20853310.953     1094003.278 3    852469.160 3
  24327857.870    -1062747.169 2   -828109.423 1
  23478466.995    -3607056.939 2  -2810687.937 2
  23079445.334    -6116766.924 3  -4766302.811 1
  21585359.462     5111356.966 3   3982873.430 2
  23799314.176    -2806913.219 2  -2187201.609 1
 91  5 28 18  1 15.0000000  0  6 19 06 11 02 18 16
  20856039.661     1108335.449 3    863637.078 2
  24322701.148    -1089791.942 2   -849183.219 1
  23475925.955    -3620434.215 2  -2821111.787 2
  23073018.384    -6150540.581 3  -4792619.873 2
  21593883.466     5156145.843 3   4017773.838 2
  23797977.699    -2813932.295 2  -2192671.011 1
 91  5 28 18  1 30.0000000  0  6 19 06 11 02 18 16
  20858784.267     1122741.873 3    874862.857 2
  24317567.198    -1116798.917 2   -870227.533 1
  23473403.500    -3633665.401 2  -2831421.770 1
  23066604.321    -6184236.109 3  -4818876.099 2
  21602427.547     5201048.930 3   4052763.228 2
  23796675.101    -2820798.972 2  -2198021.680 1
 91  5 28 18  1 45.0000000  0  6 19 06 11 02 18 16
  20861538.757     1137228.629 3    886151.222 3
  24312436.249    -1143761.913 2   -891237.657 1
  23470918.825    -3646744.016 2  -2841612.898 1
  23060210.046    -6217847.226 3  -4845066.541 2
  21610998.317     5246072.260 3   4087846.324 2
  23795398.286    -2827506.999 2  -2203248.711 1
 91  5 28 18  2  0.0000000  0  6 19 06 11 02 18 16
  20864309.442     1151793.937 3    897500.799 2
  24307310.701    -1170682.823 2   -912214.926 1
  23468460.220    -3659671.594 2  -2851686.327 1
  23053829.270    -6251375.599 3  -4871192.518 2
  21619587.375     5291214.067 3   4123021.740 2
  23794148.152    -2834058.040 2  -2208353.410 1
 91  5 28 18  2 15.0000000  0  6 19 06 11 02 18 16
  20867093.310     1166439.516 3    908912.934 3
  24302198.337    -1197559.932 2   -933158.137 1
  23466026.805    -3672446.140 2  -2861640.512 1
  23047465.873    -6284819.601 3  -4897252.751 1
  21628196.213     5336475.660 3   4158290.484 2
  23792936.392    -2840450.419 2  -2213334.490 1
 91  5 28 18  2 30.0000000  0  6 19 06 11 02 18 16
  20869901.172     1181163.287 3    920385.995 3
  24297091.077    -1224395.354 2   -954068.811 1
  23463621.877    -3685069.483 2  -2871476.871 1
  23041118.365    -6318180.932 3  -4923248.569 1
  21636833.836     5381854.822 3   4193650.833 2
  23791750.117    -2846686.127 2  -2218193.446 1
 91  5 28 18  2 45.0000000  0  6 19 06 11 02 18 16
  20872713.222     1195968.379 3    931922.417 3
  24291989.210    -1251186.016 2   -974944.558 1
  23461246.317    -3697538.099 2  -2881192.671 1
  23034784.652    -6351456.286 3  -4949177.385 1
  21645491.534     5427354.851 3   4229105.381 2
  23790594.712    -2852761.860 2  -2222927.829 1
 91  5 28 18  3  0.0000000  0  6 19 06 11 02 18 16
  20875548.063     1210856.993 3    943523.924 3
  24286904.426    -1277929.632 2   -995783.768 1
  23458904.638    -3709849.660 2  -2890786.088 1
  23028469.226    -6384643.203 3  -4975037.285 2
  21654173.227     5472977.757 3   4264655.662 2
  23789470.194    -2858675.104 2  -2227535.532 1
 91  5 28 18  3 15.0000000  0  6 19 06 11 02 18 16
  20878399.681     1225826.726 3    955188.635 2
  24281826.238    -1304628.676 2  -1016588.155 1
  23456597.134    -3722006.260 2  -2900258.761 1
  23022169.680    -6417744.015 3  -5000830.102 2
  21662875.005     5518720.956 3   4300299.678 2
  23788371.755    -2864428.391 2  -2232018.612 1
 91  5 28 18  3 30.0000000  0  6 19 06 11 02 18 16
  20881262.101     1240877.517 3    966916.504 2
  24276750.153    -1331283.094 2  -1037357.827 1
  23454313.320    -3734007.465 2  -2909610.329 1
  23015890.228    -6450758.661 3  -5026555.771 2
  21671606.762     5564584.022 3   4336037.111 2
  23787306.594    -2870021.485 2  -2236376.877 1
 91  5 28 18  3 45.0000000  0  6 19 06 11 02 18 16
  20884139.511     1256011.510 3    978709.225 3
  24271686.658    -1357890.860 2  -1058091.081 1
  23452060.374    -3745850.914 2  -2918839.000 1
  23009617.075    -6483684.925 3  -5052212.572 2
  21680356.799     5610569.072 3   4371869.598 2
  23786277.999    -2875452.168 2  -2240608.541 1
 91  5 28 18  4  0.0010000  0  6 19 06 11 02 18 16
  20887038.205     1271229.504 3    990567.389 3
  24266633.663    -1384454.025 2  -1078789.660 1
  23449840.413    -3757537.390 2  -2927945.322 1
  23003373.600    -6516525.113 3  -5077802.291 1
  21689131.426     5656678.614 3   4407799.084 2
  23785271.596    -2880721.200 2  -2244714.285 1
 91  5 28 18  4 15.0010000  0  6 19 06 11 02 18 16
  20889949.792     1286532.382 3   1002491.685 2
  24261592.347    -1410966.090 2  -1099448.361 1
  23447643.230    -3769062.283 2  -2936925.745 1
  22997138.209    -6549271.848 2  -5103319.197 2
  21697927.941     5702909.322 3   4443822.988 2
  23784300.570    -2885824.985 2  -2248691.257 2
 91  5 28 18  4 30.0010000  0  6 19 06 11 02 18 16
  20892878.758     1301922.164 3   1014483.704 3
  24256552.838    -1437427.894 2  -1120067.889 1
  23445481.131    -3780424.927 2  -2945779.751 1
  22990925.016    -6581925.998 3  -5128763.953 2
  21706752.324     5749265.422 3   4479944.587 2
  23783358.625    -2890762.620 2  -2252538.720 1
 91  5 28 18  4 45.0010000  0  6 19 06 11 02 18 16
  20895819.425     1317395.846 3   1026541.110 2
  24251526.817    -1463842.544 2  -1140650.720 1
  23443350.808    -3791628.245 2  -2954509.612 1
  22984725.904    -6614490.497 3  -5154138.860 2
  21715593.809     5795743.282 3   4516161.074 2
  23782456.248    -2895537.002 2  -2256259.055 1
 91  5 28 18  5  0.0010000  0  6 19 06 11 02 18 16
  20898785.875     1332953.933 3   1038664.284 3
  24246507.393    -1490209.690 2  -1161196.495 1
  23441242.368    -3802671.604 2  -2963114.794 1
  22978549.880    -6646964.921 3  -5179443.566 2
  21724463.170     5842343.239 3   4552472.700 2
  23781573.956    -2900147.513 2  -2259851.639 1
 91  5 28 18  5 15.0010000  0  6 19 06 11 02 18 16
  20901758.912     1348595.203 3   1050852.268 3
  24241497.557    -1516530.362 2  -1181706.105 1
  23439175.599    -3813555.775 2  -2971595.978 1
  22972387.649    -6679350.149 3  -5204678.761 2
  21733350.819     5889064.047 3   4588878.492 2
  23780731.241    -2904595.056 2  -2263317.244 1
 91  5 28 18  5 30.0010000  0  6 19 06 11 02 18 16
  20904753.841     1364319.117 3   1063104.655 3
  24236495.819    -1542805.297 2  -1202180.015 1
  23437135.809    -3824281.045 2  -2979953.352 1
  22966243.698    -6711646.725 3  -5229844.898 2
  21742265.140     5935904.929 3   4625377.849 2
  23779908.315    -2908880.715 2  -2266656.722 1
 91  5 28 18  5 45.0010000  0  6 19 06 11 02 18 16
  20907758.062     1380125.041 3   1075420.945 2
  24231510.876    -1569034.966 2  -1222618.687 1
  23435118.206    -3834847.690 2  -2988187.087 1
  22960117.738    -6743855.052 3  -5254942.263 2
  21751201.353     5982864.994 3   4661970.077 2
  23779127.950    -2913004.645 2  -2269870.170 1
 91  5 28 18  6  0.0010000  0  6 19 06 11 02 18 16
  20910784.165     1396014.252 3   1087802.142 2
  24226525.323    -1595217.933 2  -1243021.023 1
  23433144.368    -3845254.087 2  -2996295.960 1
  22954001.376    -6775973.604 3  -5279969.685 2
  21760160.653     6029945.576 3   4698656.211 2
  23778376.675    -2916965.235 2  -2272956.359 1
 91  5 28 18  6 15.0010000  0  6 19 06 11 02 18 16
  20913823.164     1411984.313 3   1100246.338 3
  24221554.768    -1621356.942 2  -1263389.020 1
  23431187.623    -3855502.518 2  -3004281.753 2
  22947907.498    -6808004.666 3  -5304928.911 1
  21769144.836     6077143.951 3   4735434.136 2
  23777649.673    -2920765.210 2  -2275917.353 1
 91  5 28 18  6 30.0010000  0  6 19 06 11 02 18 16
  20916880.442     1428035.851 3   1112754.028 2
  24216596.795    -1647451.473 2  -1283722.427 1
  23429268.352    -3865592.332 2  -3012143.911 1
  22941821.708    -6839947.616 3  -5329819.507 2
  21778147.002     6124460.637 3   4772304.249 2
  23776955.957    -2924404.012 2  -2278752.765 1
 91  5 28 18  6 45.0010000  0  6 19 06 11 02 18 16
  20919946.123     1444172.940 3   1125328.380 3
  24211630.437    -1673497.396 2  -1304017.895 1
  23427384.758    -3875519.095 2  -3019879.058 1
  22935763.202    -6871798.191 3  -5354638.114 2
  21787176.748     6171899.345 3   4809269.449 2
  23776297.909    -2927877.195 2  -2281459.132 1
 91  5 28 18  7  0.0010000  0  6 19 06 11 02 18 16
  20923036.382     1460390.510 3   1137965.450 3
  24206677.567    -1699499.680 2  -1324279.352 1
  23425523.648    -3885287.531 2  -3027490.821 1
  22929723.586    -6903561.195 3  -5379388.476 2
  21796227.487     6219455.004 3   4846325.767 2
  23775665.653    -2931189.673 2  -2284040.281 1
 91  5 28 18  7 15.0010000  0  6 19 06 11 02 18 16
  20926135.942     1476689.849 3   1150666.236 3
  24201739.383    -1725457.170 2  -1344505.942 1
  23423692.518    -3894896.197 2  -3034978.109 1
  22923693.855    -6935235.347 3  -5404069.599 2
  21805294.105     6267128.692 3   4883474.067 2
  23775065.164    -2934340.319 2  -2286495.354 1
 91  5 28 18  7 30.0010000  0  6 19 06 11 02 18 16
  20929254.383     1493066.340 3   1163427.126 3
  24196812.593    -1751374.271 2  -1364701.091 1
  23421899.753    -3904349.221 3  -3042344.079 1
  22917683.320    -6966825.006 3  -5428684.889 1
  21814391.008     6314915.887 3   4920710.815 2
  23774499.760    -2937333.514 2  -2288827.706 1
 91  5 28 18  7 45.0010000  0  6 19 06 11 02 18 16
  20932379.411     1509516.431 3   1176245.384 3
  24191878.910    -1777254.808 2  -1384867.701 1
  23420132.482    -3913650.117 3  -3049591.514 1
  22911685.069    -6998333.809 3  -5453237.189 2
  21823499.909     6362812.699 3   4958032.964 2
  23773952.338    -2940172.847 2  -2291040.190 1
 91  5 28 18  8  0.0010000  0  6 19 06 11 02 18 16
  20935530.231     1526040.103 3   1189120.960 2
  24186968.009    -1803098.869 2  -1405005.894 1
  23418383.194    -3922798.767 3  -3056720.322 1
  22905705.708    -7029761.688 3  -5477726.401 2
  21832641.476     6410818.655 3   4995440.181 2
  23773439.991    -2942858.667 2  -2293133.029 1
 91  5 28 18  8 15.0010000  0  6 19 06 11 02 18 16
  20938687.046     1542635.043 3   1202052.070 2
  24182055.912    -1828908.804 2  -1425117.465 1
  23416674.076    -3931797.224 3  -3063732.104 1
  22899739.540    -7061110.964 3  -5502154.383 2
  21841795.642     6458931.188 3   5032930.432 2
  23772966.322    -2945392.906 2  -2295107.756 1
 91  5 28 18  8 30.0010000  0  6 19 06 11 02 18 16
  20941855.255     1559301.132 3   1215038.626 3
  24177151.005    -1854684.829 2  -1445202.735 1
  23414992.835    -3940645.315 2  -3070626.714 1
  22893785.360    -7092381.562 2  -5526521.049 2
  21850973.784     6507150.117 3   5070503.576 2
  23772508.838    -2947775.623 2  -2296964.404 1
 91  5 28 18  8 45.0010000  0  6 19 06 11 02 18 16
  20945041.150     1576041.995 3   1228083.435 2
  24172250.897    -1880423.053 2  -1465258.412 1
  23413336.486    -3949339.059 3  -3077401.058 1
  22887856.064    -7123569.478 3  -5550823.289 2
  21860165.721     6555479.064 3   5108162.459 2
  23772084.327    -2950002.818 2  -2298699.895 1
 91  5 28 18  9  0.0010000  0  6 19 06 11 02 18 16
  20948243.535     1592859.816 3   1241188.214 3
  24167359.182    -1906121.405 2  -1485283.082 1
  23411712.211    -3957876.071 3  -3084053.275 1
  22881937.264    -7154672.384 3  -5575059.294 2
  21869383.738     6603919.974 3   5145908.597 2
  23771690.702    -2952072.683 2  -2300312.747 1
 91  5 28 18  9 15.0010000  0  6 19 06 11 02 18 16
  20951455.806     1609751.996 3   1254350.933 2
  24162479.464    -1931782.627 2  -1505278.806 1
  23410120.612    -3966258.862 3  -3090585.315 1
  22876030.749    -7185692.924 3  -5599231.120 2
  21878624.841     6652469.789 3   5183739.577 2
  23771329.753    -2953987.692 2  -2301804.975 1
 91  5 28 18  9 30.0010000  0  6 19 06 11 02 18 16
  20954686.374     1626721.881 3   1267574.209 3
  24157601.238    -1957403.437 2  -1525243.051 1
  23408550.301    -3974483.910 3  -3096994.433 1
  22870144.930    -7216627.650 3  -5623336.082 2
  21887884.834     6701131.624 3   5221657.865 2
  23770993.383    -2955744.533 2  -2303173.938 1
 91  5 28 18  9 45.0010000  0  6 19 06 11 02 18 16
  20957928.930     1643763.419 3   1280853.315 2
  24152732.008    -1982989.828 2  -1545180.462 1
  23407011.463    -3982556.911 2  -3103285.069 1
  22864279.188    -7247482.230 3  -5647378.567 2
  21897164.310     6749899.563 3   5259658.824 2
  23770691.189    -2957348.932 2  -2304424.095 1
 91  5 28 18 10  0.0010000  0  6 19 06 11 02 18 16
  20961187.068     1660879.417 3   1294190.445 2
  24147873.876    -2008538.962 2  -1565088.835 1
  23405508.606    -3990474.801 3  -3109454.855 1
  22858416.150    -7278254.076 3  -5671356.605 2
  21906464.168     6798776.046 3   5297744.354 2
  23770419.585    -2958798.212 2  -2305553.459 1
 91  5 28 18 10 15.0010000  0  6 19 06 11 02 18 16
  20964457.510     1678070.842 3   1307586.337 2
  24143015.142    -2034049.964 2  -1584967.500 1
  23404031.227    -3998236.402 2  -3115502.846 1
  22852576.487    -7308941.945 3  -5695269.206 2
  21915788.011     6847762.247 3   5335915.377 2
  23770164.759    -2960091.360 2  -2306561.119 1
 91  5 28 18 10 30.0010000  0  6 19 06 11 02 18 16
  20967746.535     1695334.340 3   1321038.407 2
  24138170.491    -2059526.266 2  -1604819.142 1
  23402578.732    -4005844.889 2  -3121431.556 1
  22846753.926    -7339549.151 3  -5719118.941 2
  21925130.448     6896854.022 3   5374168.659 2
  23769951.605    -2961231.883 2  -2307449.814 1
 91  5 28 18 10 45.0010000  0  6 19 06 11 02 18 16
  20971042.445     1712674.628 3   1334550.320 2
  24133332.741    -2084963.186 2  -1624640.102 1
  23401168.510    -4013295.372 3  -3127237.089 1
  22840949.041    -7370070.810 3  -5742902.034 2
  21934492.664     6946055.997 3   5412507.824 2
  23769763.335    -2962214.710 2  -2308215.638 1
 91  5 28 18 11  0.0010000  0  6 19 06 11 02 18 16
  20974355.160     1730091.135 3   1348121.604 2
  24128500.086    -2110361.313 2  -1644430.809 1
  23399775.076    -4020588.083 2  -3132919.726 1
  22835155.551    -7400507.418 3  -5766618.849 2
  21943872.270     6995367.608 3   5450932.424 2
  23769600.847    -2963040.300 2  -2308858.979 1
 91  5 28 18 11 15.0010000  0  6 19 06 11 02 18 16
  20977685.848     1747578.936 3   1361748.445 2
  24123669.534    -2135725.483 2  -1664195.104
  23398425.109    -4027727.792 2  -3138483.124 1
  22829377.950    -7430863.779 3  -5790273.125 2
  21953279.158     7044783.853 3   5489438.550 2
  23769477.936    -2963713.744 2  -2309383.720 1
 91  5 28 18 11 30.0010000  0  6 19 06 11 02 18 16
  20981029.135     1765141.119 3   1375433.249 2
  24118843.170    -2161052.740 2  -1683930.604 1
  23397088.929    -4034711.193 2  -3143924.750 1
  22823617.441    -7461136.654 3  -5813862.358 2
  21962705.234     7094307.309 3   5528028.226 2
  23769385.895    -2964231.841 2  -2309787.464 1
 91  5 28 18 11 45.0010000  0  6 19 06 11 02 18 16
  20984383.512     1782782.966 3   1389180.128 2
  24114037.503    -2186337.947 2  -1703633.315 1
  23395792.334    -4041532.764 2  -3149240.256 1
  22817871.913    -7491320.647 3  -5837382.322 2
  21972149.894     7143943.021 3   5566705.366 2
  23769311.548    -2964589.499 2  -2310066.152 1
 91  5 28 18 12  0.0010000  0  6 19 06 11 02 18 16
  20987758.873     1800501.187 3   1402986.515 2
  24109235.421    -2211584.232 2  -1723305.714 1
  23394526.608    -4048195.560 3  -3154432.030 1
  22812145.284    -7521418.795 3  -5860835.401 2
  21981616.140     7193687.756 3   5605467.478 2
  23769272.879    -2964789.772 2  -2310222.219 1
 91  5 28 18 12 15.0010000  0  6 19 06 11 02 18 16
  20991136.938     1818295.144 3   1416851.930 3
  24104442.038    -2236792.249 2  -1742948.326 1
  23393293.262    -4054700.059 2  -3159500.451 1
  22806435.136    -7551431.641 3  -5884222.005 2
  21991100.682     7243540.661 3   5644313.851 2
  23769265.079    -2964833.284 2  -2310256.134 1
 91  5 28 18 12 30.0010000  0  6 19 06 11 02 18 16
  20994542.278     1836163.600 3   1430775.397 2
  24099645.060    -2261963.341 2  -1762562.150 1
  23392078.500    -4061047.281 2  -3164446.351 1
  22800738.181    -7581360.519 3  -5907543.180 2
  22000604.995     7293500.072 3   5683243.210 2
  23769287.563    -2964721.223 2  -2310168.795 1
 91  5 28 18 12 45.0010000  0  6 19 06 11 02 18 16
  20997958.115     1854111.068 3   1444760.422 3
  24094869.965    -2287092.897 2  -1782143.551 1
  23390906.011    -4067232.359 2  -3169265.902 1
  22795061.311    -7611200.699 3  -5930795.249 2
  22010135.100     7343570.789 3   5722259.312 2
  23769334.033    -2964449.147 2  -2309956.841 1
 91  5 28 18 13  0.0010000  0  6 19 06 11 02 18 16
  21001391.637     1872133.075 3   1458803.535 2
  24090090.673    -2312185.400 2  -1801696.156 1
  23389748.817    -4073259.452 2  -3173962.321 1
  22789400.330    -7640956.393 3  -5953981.502 2
  22019682.289     7393747.902 3   5761358.331 2
  23769414.679    -2964021.437 2  -2309623.505 1
 91  5 28 18 13 15.0010000  0  6 19 06 11 02 18 16
  21004829.060     1890231.646 3   1472906.306 2
  24085327.872    -2337238.953 2  -1821218.361 1
  23388638.984    -4079126.414 2  -3178533.977 1
  22783755.533    -7670625.584 3  -5977100.317 2
  22029252.869     7444033.205 3   5800541.641 2
  23769529.493    -2963435.998 2  -2309167.364 1
 91  5 28 18 13 30.0010000  0  6 19 06 11 02 18 16
  21008293.460     1908406.304 3   1487068.370 3
  24080570.768    -2362254.109 2  -1840710.660 1
  23387551.634    -4084833.782 3  -3182981.275 1
  22778122.132    -7700208.623 3  -6000152.017 2
  22038844.129     7494425.917 3   5839808.647 2
  23769671.895    -2962693.393 2  -2308588.728 1
 91  5 28 18 13 45.0010000  0  6 19 06 11 02 18 16
  21011763.261     1926658.754 3   1501291.037 3
  24075814.860    -2387229.222 2  -1860171.802 1
  23386498.461    -4090379.674 2  -3187302.746 1
  22772513.021    -7729703.723 3  -6023135.181 2
  22048453.676     7544927.468 3   5879160.470 2
  23769844.879    -2961792.027 2  -2307886.408 1
 91  5 28 18 14  0.0010000  0  6 19 06 11 02 18 16
  21015251.045     1944984.918 3   1515571.161 2
  24071064.352    -2412168.311 2  -1879604.822 1
  23385468.680    -4095767.686 3  -3191501.190 1
  22766916.789    -7759114.918 3  -6046052.957 2
  22058086.301     7595533.788 3   5918593.920 2
  23770044.240    -2960735.809 2  -2307063.355 1
 91  5 28 18 14 15.0010000  0  6 19 06 11 02 18 16
  21018748.723     1963391.412 3   1529913.870 2
  24066332.123    -2437064.747 2  -1899004.584 1
  23384482.359    -4100990.990 3  -3195571.285 1
  22761330.459    -7788435.268 3  -6068899.981 2
  22067735.721     7646251.280 3   5958114.004 2
  23770277.479    -2959517.803 2  -2306114.241 1
 91  5 28 18 14 30.0010000  0  6 19 06 11 02 18 16
  21022267.088     1981875.686 3   1544317.191 2
  24061594.206    -2461921.306 2  -1918373.320 1
  23383513.732    -4106052.149 2  -3199515.065 1
  22755772.609    -7817667.452 3  -6091678.272 2
  22077409.127     7697076.885 3   5997718.324 2
  23770539.494    -2958140.772 2  -2305041.255 1
 91  5 28 18 14 45.0010000  0  6 19 06 11 02 18 16
  21025801.342     2000435.839 3   1558779.626 3
  24056873.975    -2486739.856 2  -1937712.453 1
  23382578.078    -4110952.855 2  -3203333.786 1
  22750224.643    -7846813.222 3  -6114389.236 2
  22087098.718     7748008.830 3   6037405.519 2
  23770829.395    -2956606.757 2  -2303845.919 1
 91  5 28 18 15  0.0010000  0  6 19 06 11 02 18 16
  21029344.591     2019074.618 3   1573303.338 2
  24052161.238    -2511517.549 2  -1957019.664 1
  23381681.695    -4115689.991 2  -3207025.054 1
  22744698.570    -7875869.478 3  -6137030.461 2
  22096815.296     7799049.466 3   6077177.395 2
  23771148.376    -2954912.684 2  -2302525.880 1
 91  5 28 18 15 15.0010000  0  6 19 06 11 02 18 16
  21032909.418     2037793.097 3   1587889.140 2
  24047454.495    -2536253.267 2  -1976294.291 1
  23380808.102    -4120262.326 2  -3210587.914 2
  22739189.283    -7904835.112 3  -6159601.056 2
  22106544.761     7850199.777 3   6117034.752 2
  23771511.122    -2953057.603 2  -2301080.351 1
 91  5 28 18 15 30.0010000  0  6 19 06 11 02 18 16
  21036486.843     2056589.373 3   1602535.580 2
  24042758.546    -2560949.305 2  -1995537.948 1
  23379974.078    -4124671.749 2  -3214023.823 1
  22733691.391    -7933712.193 3  -6182102.660 2
  22116296.109     7901457.359 3   6156975.675 2
  23771884.365    -2951043.674 2  -2299511.067 1
 91  5 28 18 15 45.0010000  0  6 19 06 11 02 18 16
  21040079.259     2075463.306 3   1617242.525 2
  24038060.493    -2585605.509 2  -2014750.551 1
  23379155.645    -4128918.016 2  -3217332.607 1
  22728213.881    -7962500.565 3  -6204535.124 2
  22126075.935     7952822.135 3   6197000.134 2
  23772297.481    -2948870.920 2  -2297817.998 1
 91  5 28 18 16  0.0010000  0  6 19 06 11 02 18 16
  21043684.561     2094418.628 3   1632012.896 3
  24033371.742    -2610218.418 2  -2033929.377 1
  23378390.279    -4132997.298 3  -3220511.271 1
  22722747.469    -7991196.624 3  -6226895.662 2
  22135870.760     8004297.482 3   6237110.766 2
  23772745.673    -2946535.317 2  -2295998.053 1
 91  5 28 18 16 15.0010000  0  6 19 06 11 02 18 16
  21047305.455     2113450.235 3   1646842.701 3
  24028708.468    -2634793.058 2  -2053078.412 1
  23377641.699    -4136914.562 3  -3223563.671 1
  22717305.035    -8019805.281 3  -6249188.108 2
  22145685.661     8055878.243 3   6277303.505 2
  23773222.343    -2944042.104 2  -2294055.307 1
 91  5 28 18 16 30.0010000  0  6 19 06 11 02 18 16
  21050941.635     2132554.973 3   1661729.500 2
  24024033.206    -2659332.597 2  -2072200.095 1
  23376925.795    -4140672.780 3  -3226492.158 1
  22711877.293    -8048329.606 3  -6271414.814 2
  22155521.554     8107560.947 3   6317575.706 2
  23773725.092    -2941394.390 2  -2291992.151 1
 91  5 28 18 16 45.0010000  0  6 19 06 11 02 18 16
  21054592.509     2151734.730 3   1676674.750 2
  24019371.738    -2683835.140 2  -2091292.983 1
  23376238.370    -4144269.771 2  -3229295.005 1
  22706465.745    -8076767.254 3  -6293574.011 2
  22165375.727     8159347.330 3   6357928.686 2
  23774262.620    -2938590.425 2  -2289807.218 1
 91  5 28 18 17  0.0010000  0  6 19 06 11 02 18 16
  21058259.567     2170994.394 3   1691682.271 3
  24014712.661    -2708295.826 2  -2110353.215 1
  23375590.217    -4147700.553 2  -3231968.341 1
  22701070.975    -8105113.322 3  -6315661.826 2
  22175249.392     8211242.000 3   6398366.049 2
  23774818.436    -2935625.504 2  -2287496.918 1
 91  5 28 18 17 15.0010000  0  6 19 06 11 02 18 16
  21061938.326     2190333.968 3   1706752.049 2
  24010066.174    -2732714.727 2  -2129380.891 1
  23374969.347    -4150964.920 3  -3234511.996 1
  22695691.500    -8133367.807 3  -6337678.263 2
  22185150.340     8263244.795 3   6438887.671 2
  23775415.626    -2932499.486 2  -2285061.064 1
 91  5 28 18 17 30.0010000  0  6 19 06 11 02 18 16
  21065635.966     2209749.199 3   1721880.789 3
  24005428.386    -2757096.055 2  -2148379.346 1
  23374378.753    -4154066.967 2  -3236929.175 1
  22690335.706    -8161534.792 3  -6359626.548 2
  22195064.175     8315351.212 3   6479490.026 2
  23776045.186    -2929216.418 2  -2282502.828 1
 91  5 28 18 17 45.0010000  0  6 19 06 11 02 18 16
  21069340.202     2229239.115 3   1737067.724 2
  24000794.794    -2781440.845 2  -2167349.266 1
  23373821.742    -4157007.499 3  -3239220.496 1
  22684994.901    -8189615.132 3  -6381507.306 2
  22204997.197     8367560.067 3   6520172.214 2
  23776701.733    -2925777.212 2  -2279822.966 1
 91  5 28 18 18  0.0010000  0  6 19 06 11 02 18 16
  21073068.119     2248808.779 3   1752316.804 2
  23996171.097    -2805744.127 2  -2186286.852 1
  23373290.810    -4159781.220 2  -3241381.859 1
  22679666.991    -8217603.779 3  -6403316.619 2
  22214948.515     8419876.082 3   6560937.894 2
  23777378.365    -2922177.144 2  -2277017.713 1
 91  5 28 18 18 15.0010000  0  6 19 06 11 02 18 16
  21076802.936     2268453.540 3   1767624.398 2
  23991552.496    -2830010.507 2  -2205195.716 1
  23372794.055    -4162392.526 2  -3243416.634 1
  22674359.167    -8245505.397 3  -6425058.110 2
  22224928.007     8472294.729 3   6601783.547 2
  23778100.865    -2918420.711 2  -2274090.625 1
 91  5 28 18 18 30.0010000  0  6 19 06 11 02 18 16
  21080556.635     2288172.672 3   1782989.935 2
  23986938.990    -2854240.794 2  -2224076.376 1
  23372327.270    -4164842.137 2  -3245325.423 1
  22669060.339    -8273320.533 3  -6446732.224 2
  22234919.190     8524814.796 3   6642708.225 2
  23778846.147    -2914508.845 2  -2271042.461 1
 91  5 28 18 18 45.0010000  0  6 19 06 11 02 18 16
  21084319.932     2307964.979 3   1798412.498 2
  23982333.877    -2878436.092 2  -2242929.911 1
  23371896.171    -4167130.999 2  -3247108.968 1
  22663785.191    -8301050.224 3  -6468339.745 2
  22244932.849     8577434.937 3   6683710.886 2
  23779620.212    -2910442.612 2  -2267873.952 1
 91  5 28 18 19  0.0010000  0  6 19 06 11 02 18 16
  21088103.610     2327830.518 3   1813892.130 2
  23977735.056    -2902596.488 2  -2261756.128 1
  23371485.454    -4169258.763 2  -3248766.949 1
  22658525.032    -8328694.394 3  -6489880.638 2
  22254969.002     8630155.083 3   6724791.472 2
  23780423.952    -2906221.855 2  -2264585.086 1
 91  5 28 18 19 15.0010000  0  6 19 06 11 02 18 16
  21091894.783     2347770.181 3   1829429.519 2
  23973150.037    -2926721.197 2  -2280554.576 1
  23371116.714    -4171224.514 2  -3250298.706 1
  22653283.161    -8356252.119 3  -6511354.162 2
  22265019.847     8682975.651 3   6765950.299 2
  23781245.988    -2901845.748 2  -2261175.158 1
 91  5 28 18 19 30.0010000  0  6 19 06 11 02 18 16
  21095705.448     2367788.411 3   1845028.126 2
  23968564.111    -2950805.623 2  -2299321.612 1
  23370773.154    -4173023.574 3  -3251700.557 1
  22648056.873    -8383718.778 3  -6532756.727 2
  22275086.878     8735901.084 3   6807190.871 2
  23782112.086    -2897309.712 2  -2257640.561 1
 91  5 28 18 19 45.0010000  0  6 19 06 11 02 18 16
  21099528.704     2387884.094 3   1860687.079 2
  23963987.478    -2974851.150 2  -2318058.436 1
  23370463.168    -4174657.036 3  -3252973.411 1
  22642844.388    -8411095.405 3  -6554089.144 2
  22285180.886     8788929.924 3   6848512.001 2
  23783002.169    -2892615.053 2  -2253982.390 1
 91  5 28 18 20  0.0010000  0  6 19 06 11 02 18 16
  21103368.738     2408052.895 3   1876403.008 2
  23959423.138    -2998861.875 2  -2336768.046 1
  23370185.256    -4176128.994 3  -3254120.394 1
  22637650.785    -8438385.933 3  -6575354.470 2
  22295291.988     8842057.738 3   6889910.252 2
  23783932.423    -2887766.073 2  -2250203.989 1
 91  5 28 18 20 15.0010000  0  6 19 06 11 02 18 16
  21107220.472     2428294.572 3   1892175.729 2
  23954862.392    -3022838.106 2  -2355450.813 1
  23369931.033    -4177439.425 3  -3255141.518 1
  22632479.064    -8465590.625 3  -6596552.899 2
  22305417.485     8895284.015 3   6931385.230 2
  23784882.168    -2882763.131 2  -2246305.609 1
 91  5 28 18 20 30.0010000  0  6 19 06 11 02 18 16
  21111088.400     2448609.727 3   1908005.706 2
  23950303.453    -3046779.387 2  -2374106.336 1
  23369716.081    -4178587.581 3  -3256036.170 1
  22627314.235    -8492708.939 3  -6617684.042 2
  22315567.553     8948609.320 3   6972937.359 2
  23785866.090    -2877605.717 2  -2242286.856 1
 91  5 28 18 20 45.0010000  0  6 19 06 11 02 18 16
  21114966.510     2468995.163 3   1923890.446 2
  23945752.602    -3070688.942 2  -2392737.111 1
  23369523.317    -4179576.750 3  -3256806.971 2
  22622169.798    -8519744.261 3  -6638750.498 2
  22325732.619     9002029.757 3   7014563.637 2
  23786874.887    -2872296.964 2  -2238150.157 1
 91  5 28 18 21  0.0010000  0  6 19 06 11 02 18 16
  21118857.822     2489452.987 3   1939831.580 2
  23941211.942    -3094564.811 2  -2411341.683 1
  23369363.525    -4180404.653 2  -3257452.083 1
  22617043.648    -8546694.239 3  -6659750.459 2
  22335915.667     9055547.238 3   7056265.531 2
  23787910.671    -2866835.063 2  -2233894.143 1
 91  5 28 18 21 15.0010000  0  6 19 06 11 02 18 16
  21122765.911     2509979.191 3   1955826.016 2
  23936668.891    -3118410.812 2  -2429922.949 1
  23369239.411    -4181075.058 3  -3257974.480 1
  22611931.284    -8573562.662 3  -6680686.861 2
  22346116.104     9109157.739 3   7098039.896 2
  23788979.436    -2861223.987 2  -2229521.888 1
 91  5 28 18 21 30.0010000  0  6 19 06 11 02 18 16
  21126685.998     2530577.861 3   1971876.910 2
  23932139.923    -3142223.001 2  -2448477.852 1
  23369142.876    -4181583.797 3  -3258370.891 1
  22606835.114    -8600345.354 3  -6701556.470 2
  22356337.526     9162865.067 3   7139889.709 2
  23790072.177    -2855459.183 2  -2225029.826 1
 91  5 28 18 21 45.0010000  0  6 19 06 11 02 18 16
  21130615.979     2551250.615 3   1987985.538 2
  23927622.053    -3165999.756 2  -2467005.189 1
  23369080.526    -4181929.137 3  -3258640.000 1
  22601752.432    -8627040.653 3  -6722357.987 2
  22366577.244     9216670.522 3   7181815.983 2
  23791197.297    -2849539.239 2  -2220416.876 1
 91  5 28 18 22  0.0010000  0  6 19 06 11 02 18 16
  21134567.842     2571990.790 3   2004146.700 3
  23923094.288    -3189747.787 2  -2485510.100 1
  23369038.855    -4182117.402 3  -3258786.692 1
  22596685.343    -8653655.067 3  -6743096.455 2
  22376835.538     9270567.350 3   7223813.450 2
  23792359.595    -2843470.994 2  -2215688.373 1
 91  5 28 18 22 15.0010000  0  6 19 06 11 02 18 16
  21138523.301     2592805.671 3   2020366.072 2
  23918580.615    -3213459.802 2  -2503986.956 1
  23369034.057    -4182141.206 2  -3258805.236 2
  22591643.129    -8680181.323 3  -6763766.246 2
  22387108.228     9324562.457 3   7265887.514 2
  23793542.877    -2837247.242 2  -2210838.722 1
 91  5 28 18 22 30.0010000  0  6 19 06 11 02 18 16
  21142506.051     2613694.726 3   2036643.244 2
  23914078.625    -3237136.493 2  -2522436.340 1
  23369064.935    -4182001.086 3  -3258696.040 1
  22586610.817    -8706619.905 3  -6784367.723 2
  22397401.003     9378655.040 3   7308037.530 2
  23794754.036    -2830868.838 2  -2205868.527 1
 91  5 28 18 22 45.0010000  0  6 19 06 11 02 18 16
  21146492.388     2634657.161 3   2052977.593 2
  23909571.844    -3260778.466 2  -2540858.599 1
  23369117.992    -4181697.409 2  -3258459.436 1
  22581594.386    -8732971.271 3  -6804901.234 2
  22407711.761     9432844.240 3   7350262.849 2
  23795998.175    -2824336.191 2  -2200778.182 1
 91  5 28 18 23  0.0010000  0  6 19 06 11 02 18 16
  21150500.013     2655695.697 3   2069371.237 2
  23905081.554    -3284382.924 2  -2559251.679 1
  23369205.540    -4181227.334 2  -3258093.122 1
  22576598.947    -8759232.555 3  -6825364.544 2
  22418044.410     9487132.854 3   7392565.613 2
  23797269.895    -2817646.458 2  -2195565.420 1
 91  5 28 18 23 15.0010000  0  6 19 06 11 02 18 16
  21154511.539     2676806.652 3   2085821.318 2
  23900602.659    -3307953.862 2  -2577618.632 1
  23369325.152    -4180594.579 2  -3257600.086 2
  22571616.997    -8785407.581 3  -6845760.657 2
  22428395.347     9541516.660 3   7434942.551 2
  23798574.892    -2810803.808 2  -2190233.486 1
 91  5 28 18 23 30.0010000  0  6 19 06 11 02 18 16
  21158541.344     2697991.026 3   2102328.607 3
  23896118.660    -3331490.217 2  -2595958.598 1
  23369471.455    -4179797.966 2  -3256979.358 2
  22566651.834    -8811495.196 3  -6866088.638 2
  22438759.171     9595996.459 3   7477394.291 2
  23799904.773    -2803807.038 2  -2184781.474 1
 91  5 28 18 23 45.0010000  0  6 19 06 11 02 18 16
  21162589.446     2719251.844 3   2118895.459 2
  23891653.856    -3354989.126 2  -2614269.427 1
  23369663.320    -4178834.444 3  -3256228.577 1
  22561706.154    -8837492.465 3  -6886346.242 2
  22449147.582     9650574.725 3   7519922.749 2
  23801273.018    -2796653.097 2  -2179206.942 1
 91  5 28 18 24  0.0010000  0  6 19 06 11 02 18 16
  21166654.631     2740590.060 3   2135522.631 2
  23887188.441    -3378449.720 2  -2632550.371 1
  23369880.968    -4177703.043 3  -3255346.947 1
  22556773.371    -8863398.386 3  -6906532.634 2
  22459553.670     9705252.327 3   7562528.640 2
  23802662.562    -2789341.373 2  -2173509.541 1
 91  5 28 18 24 15.0010000  0  6 19 06 11 02 18 16
  21170720.715     2761995.632 3   2152202.274 2
  23882727.232    -3401881.784 2  -2650809.104 1
  23370121.406    -4176413.461 2  -3254342.078 1
  22551860.968    -8889222.502 3  -6926655.303 2
  22469974.164     9760019.203 3   7605204.076 2
  23804086.273    -2781881.843 2  -2167696.895 1
 91  5 28 18 24 30.0010000  0  6 19 06 11 02 18 16
  21174808.682     2783476.396 3   2168940.526 2
  23878276.214    -3425277.539 2  -2669039.551 1
  23370403.506    -4174957.688 2  -3253207.730 1
  22546962.963    -8914956.991 3  -6946708.141 2
  22480417.727     9814883.004 3   7647955.049 2
  23805526.474    -2774266.588 2  -2161762.973 1
 91  5 28 18 24 45.0010000  0  6 19 06 11 02 18 16
  21178908.645     2805028.674 3   2185734.487 2
  23873834.784    -3448640.858 2  -2687244.715 1
  23370708.998    -4173339.300 3  -3251946.650 1
  22542083.236    -8940605.590 3  -6966694.042 2
  22490871.498     9869839.605 3   7690778.322 2
  23807008.050    -2766499.719 2  -2155710.867 1
 91  5 28 18 25  0.0010000  0  6 19 06 11 02 18 16
  21183026.600     2826654.721 3   2202585.941 2
  23869394.262    -3471969.549 2  -2705422.890 1
  23371057.052    -4171556.102 3  -3250557.147 2
  22537218.212    -8966166.178 3  -6986611.354 2
  22501351.043     9924890.863 3   7733675.370 2
  23808514.806    -2758578.708 2  -2149538.676 1
 91  5 28 18 25 15.0010000  0  6 19 06 11 02 18 16
  21187152.337     2848350.400 3   2219491.647 2
  23864960.633    -3495267.689 2  -2723577.266 1
  23371424.003    -4169611.944 3  -3249042.226 1
  22532366.667    -8991642.626 3  -7006463.107 2
  22511839.278     9980032.738 3   7776643.016 2
  23810048.244    -2750507.558 2  -2143249.487 1
 91  5 28 18 25 30.0010000  0  6 19 06 11 02 18 16
  21191304.468     2870117.763 3   2236453.215 2
  23860527.004    -3518533.136 2  -2741706.125 1
  23371816.729    -4167504.529 3  -3247400.081 1
  22527537.311    -9017032.685 3  -7026247.560 2
  22522351.499    10035266.924 3   7819682.578 2
  23811615.562    -2742284.379 2  -2136841.821 1
 91  5 28 18 25 45.0010000  0  6 19 06 11 02 18 16
  21195452.996     2891955.951 3   2253469.963 2
  23856108.958    -3541766.750 2  -2759810.264 1
  23372252.330    -4165234.660 3  -3245631.368 2
  22522724.445    -9042337.076 3  -7045965.243 2
  22532880.812    10090592.696 3   7862793.514 2
  23813203.566    -2733910.158 2  -2130316.456 1
 91  5 28 18 26  0.0010000  0  6 19 06 11 02 18 16
  21199620.404     2913867.169 3   2270543.622 2
  23851690.318    -3564966.438 2  -2777887.920 1
  23372715.503    -4162800.068 3  -3243734.298 1
  22517926.865    -9067553.714 3  -7065614.559 2
  22543425.114    10146011.512 3   7905976.962 2
  23814828.435    -2725383.014 2  -2123671.934 1
 91  5 28 18 26 15.0010000  0  6 19 06 11 02 18 16
  21203806.406     2935855.101 3   2287677.052 2
  23847286.067    -3588128.626 2  -2795936.343 1
  23373212.860    -4160196.887 3  -3241705.837 1
  22513145.470    -9092678.782 3  -7085192.502 2
  22553992.495    10201526.600 3   7949235.410 2
  23816486.589    -2716699.342 2  -2116905.454 1
 91  5 28 18 26 30.0010000  0  6 19 06 11 02 18 16
  21208007.703     2957918.992 3   2304869.674 3
  23842882.417    -3611254.007 2  -2813956.137 1
  23373740.197    -4157425.843 3  -3239546.569 2
  22508382.372    -9117712.903 3  -7104699.602 2
  22564574.866    10257137.378 3   7992568.449 2
  23818162.726    -2707859.836 2  -2110017.560 1
 91  5 28 18 26 45.0010000  0  6 19 06 11 02 18 16
  21212216.486     2980058.078 3   2322120.899 2
  23838486.262    -3634343.376 2  -2831947.821 1
  23374294.512    -4154487.606 3  -3237257.047 1
  22503633.060    -9142656.854 3  -7124136.425 2
  22575171.938    10312842.890 3   8035975.269 2
  23819877.542    -2698864.977 2  -2103008.596 1
 91  5 28 18 27  0.0010000  0  6 19 06 11 02 18 16
  21216446.855     3002271.241 3   2339429.840 2
  23834101.197    -3657397.991 2  -2849912.411 1
  23374894.695    -4151383.224 3  -3234838.036 1
  22498907.428    -9167511.858 3  -7143503.939 2
  22585790.884    10368641.826 3   8079454.920 2
  23821625.033    -2689716.252 2  -2095879.705 1
 91  5 28 18 27 15.0010000  0  6 19 06 11 02 18 16
  21220683.524     3024558.366 3   2356796.420 2
  23829722.422    -3680417.729 2  -2867849.863 1
  23375509.571    -4148112.542 3  -3232289.463 1
  22494191.698    -9192277.517 3  -7162801.813 2
  22596425.116    10424533.598 3   8123006.905 2
  23823386.615    -2680413.466 2  -2088630.812 1
 91  5 28 18 27 30.0010000  0  6 19 06 11 02 18 16
  21224947.171     3046922.789 3   2374223.226 2
  23825354.746    -3703399.650 2  -2885757.833 1
  23376159.521    -4144672.373 3  -3229608.809 1
  22489496.045    -9216950.700 3  -7182027.655 2
  22607083.343    10480521.167 3   8166633.536 2
  23825189.868    -2670953.968 2  -2081259.789 1
 91  5 28 18 27 45.0010000  0  6 19 06 11 02 18 16
  21229209.622     3069360.307 3   2391707.000 2
  23820980.474    -3726347.856 2  -2903639.509 1
  23376861.640    -4141066.676 3  -3226799.209 1
  22484820.486    -9241535.499 3  -7201184.622 2
  22617752.057    10536600.315 3   8210331.526 2
  23827021.896    -2661341.763 2  -2073769.762 1
 91  5 28 18 28  0.0010000  0  6 19 06 11 02 18 16
  21233495.160     3091867.644 3   2409245.165 2
  23816622.692    -3749265.626 2  -2921497.478 1
  23377569.447    -4137298.692 3  -3223863.120 1
  22480153.618    -9266035.141 3  -7220275.229 2
  22628442.654    10592767.260 3   8254097.904 2
  23828874.612    -2651580.358 2  -2066163.509 1
 91  5 28 18 28 15.0010000  0  6 19 06 11 02 18 16
  21237791.779     3114449.939 3   2426841.757 2
  23812268.811    -3772147.858 2  -2939327.845 1
  23378315.033    -4133363.207 2  -3220796.503 1
  22475512.523    -9290444.501 3  -7239295.500 2
  22639146.146    10649027.119 3   8297936.724 2
  23830762.708    -2641664.367 2  -2058436.745 1
 91  5 28 18 28 30.0010000  0  6 19 06 11 02 18 16
  21242101.598     3137101.953 3   2444492.658 3
  23807923.916    -3794999.778 2  -2957134.497 1
  23379102.885    -4129265.242 3  -3217603.291 1
  22470881.933    -9314768.599 3  -7258249.321 2
  22649867.324    10705374.527 3   8341843.726 2
  23832673.280    -2631599.053 2  -2050593.651 1
 91  5 28 18 28 45.0010000  0  6 19 06 11 02 18 16
  21246425.204     3159828.603 3   2462201.727 2
  23803578.724    -3817816.556 2  -2974913.782 1
  23379910.821    -4124999.888 3  -3214279.625 1
  22466270.826    -9339002.514 3  -7277132.864 2
  22660611.589    10761813.804 3   8385822.338 2
  23834621.937    -2621380.062 2  -2042630.824 1
 91  5 28 18 29  0.0010000  0  6 19 06 11 02 18 16
  21250765.003     3182628.678 3   2479968.002 2
  23799242.825    -3840599.295 2  -2992666.531 1
  23380748.449    -4120568.104 2  -3210826.294 2
  22461678.304    -9363147.348 3  -7295947.011 2
  22671365.443    10818343.904 3   8429871.716 2
  23836598.768    -2611008.674 2  -2034549.227 1
 91  5 28 18 29 15.0010000  0  6 19 06 11 02 18 16
  21255115.290     3205499.822 3   2497789.663 2
  23794915.921    -3863350.478 2  -3010394.695 1
  23381630.435    -4115972.260 3  -3207245.126 1
  22457098.076    -9387205.335 3  -7314693.472 2
  22682138.780    10874961.982 3   8473989.632 2
  23838596.879    -2600486.916 2  -2026350.497 1
 91  5 28 18 29 30.0010000  0  6 19 06 11 02 18 16
  21259482.068     3228441.761 3   2515666.481 2
  23790588.119    -3886070.418 2  -3028098.502 1
  23382528.912    -4111212.653 2  -3203536.341 1
  22452536.432    -9411176.779 3  -7333372.503 2
  22692934.008    10931667.287 3   8518175.550 1
  23840631.871    -2589815.095 2  -2018034.778 1
 91  5 28 18 29 45.0010000  0  6 19 06 11 02 18 16
  21263862.631     3251450.091 3   2533595.031 2
  23786261.215    -3908763.511 2  -3045781.439 1
  23383478.657    -4106293.408 3  -3199703.174 1
  22447988.582    -9435065.926 3  -7351987.392 2
  22703742.123    10988455.454 3   8562426.020 2
  23842687.847    -2578997.821 2  -2009605.750 1
 91  5 28 18 30  0.0010000  0  6 19 06 11 02 18 16
  21268253.393     3274524.942 3   2551575.424 2
  23781960.391    -3931429.738 2  -3063443.381 1
  23384437.093    -4101214.451 3  -3195745.563 1
  22443462.013    -9458872.782 3  -7370538.171 2
  22714561.337    11045326.175 3   8606740.821 2
  23844777.406    -2568035.597 2  -2001063.759 1
 91  5 28 18 30 15.0010000  0  6 19 06 11 02 18 16
  21272657.645     3297669.594 3   2569610.205 2
  23777650.571    -3954065.765 2  -3081081.825 1
  23385424.906    -4095972.280 2  -3191660.766 1
  22438948.340    -9482593.821 3  -7389022.078 2
  22725397.931    11102282.751 3   8651122.490 2
  23846883.446    -2556924.711 2  -1992405.972 1
 91  5 28 18 30 30.0010000  0  6 19 06 11 02 18 16
  21277080.185     3320880.362 3   2587696.507 2
  23773346.152    -3976675.372 2  -3098699.664 1
  23386461.589    -4090570.604 3  -3187451.642 2
  22434450.250    -9506232.728 3  -7407441.977 2
  22736252.219    11159320.967 3   8695567.817 2
  23849028.462    -2545669.085 2  -1983635.373 1
 91  5 28 18 30 45.0010000  0  6 19 06 11 02 18 16
  21281503.623     3344158.224 3   2605835.086 2
  23769045.930    -3999257.623 2  -3116296.230 1
  23387523.758    -4085008.341 3  -3183117.420 1
  22429964.758    -9529788.397 3  -7425797.017 2
  22747122.099    11216441.666 3   8740077.384 1
  23851198.362    -2534267.817 2  -1974751.282 1
 91  5 28 18 31  0.0010000  0  6 19 06 11 02 18 16
  21285944.747     3367502.614 3   2624025.495 2
  23764765.200    -4021813.067 2  -3133871.877 1
  23388613.497    -4079285.984 3  -3178658.453 2
  22425499.649    -9553261.278 3  -7444087.554 2
  22758013.557    11273643.970 3   8784650.569 2
  23853395.841    -2522721.461 2  -1965754.162 1
 91  5 28 18 31 15.0010000  0  6 19 06 11 02 18 16
  21290401.759     3390914.029 3   2642268.141 2
  23760474.270    -4044341.261 2  -3151426.304 1
  23389724.832    -4073403.026 2  -3174074.339 1
  22421047.435    -9576650.948 3  -7462313.260 2
  22768914.306    11330928.284 3   8829287.632 2
  23855623.292    -2511029.758 2  -1956643.762 1
 91  5 28 18 31 30.0010000  0  6 19 06 11 02 18 16
  21294869.565     3414390.999 3   2660561.866 2
  23756192.326    -4066843.553 2  -3168960.534 1
  23390873.632    -4067360.750 2  -3169366.091 2
  22416612.602    -9599958.766 3  -7480475.186 2
  22779823.153    11388292.780 3   8873987.165 2
  23857876.839    -2499194.197 2  -1947421.241 1
 91  5 28 18 31 45.0010000  0  6 19 06 11 02 18 16
  21299347.265     3437930.725 3   2678904.488 2
  23751910.697    -4089322.839 2  -3186476.846 1
  23392057.813    -4061161.767 3  -3164535.719 1
  22412190.359    -9623187.436 3  -7498575.424 2
  22790758.384    11445734.448 3   8918746.872 2
  23860155.855    -2487217.580 2  -1938088.862 1
 91  5 28 18 32  0.0010000  0  6 19 06 11 02 18 16
  21303838.157     3461529.468 3   2697293.108 2
  23747635.656    -4111782.830 2  -3203978.072 1
  23393263.283    -4054809.818 3  -3159586.148 1
  22407787.312    -9646340.657 3  -7516616.883 2
  22801703.510    11503249.389 3   8963563.637 2
  23862457.966    -2475103.779 2  -1928649.551 1
 91  5 28 18 32 15.0010000  0  6 19 06 11 02 18 16
  21308339.842     3485194.721 3   2715733.545 2
  23743372.603    -4134216.023 2  -3221458.495 1
  23394503.818    -4048297.164 3  -3154511.350 1
  22403396.854    -9669410.778 3  -7534593.583 2
  22812659.725    11560845.010 3   9008443.289 2
  23864794.245    -2462845.495 2  -1919097.648 1
 91  5 28 18 32 30.0010000  0  6 19 06 11 02 18 16
  21312858.916     3508922.743 3   2734222.900 2
  23739112.254    -4156626.414 2  -3238921.121 1
  23395772.240    -4041627.821 3  -3149314.467 2
  22399022.277    -9692401.464 3  -7552508.392 2
  22823636.322    11618516.761 3   9053382.247 2
  23867152.415    -2450446.858 2  -1909436.383 1
 91  5 28 18 32 45.0010000  0  6 19 06 11 02 18 16
  21317383.984     3532717.596 3   2752764.339 2
  23734840.816    -4179009.756 2  -3256362.633 1
  23397075.440    -4034797.525 3  -3143992.165 2
  22394665.394    -9715308.732 3  -7570358.196 2
  22834624.018    11676268.461 3   9098383.525 2
  23869536.063    -2437903.557 2  -1899662.406 1
 91  5 28 18 33  0.0010000  0  6 19 06 11 02 18 16
  21321933.029     3556582.171 3   2771360.101 2
  23730589.454    -4201363.360 2  -3273781.033 1
  23398402.319    -4027803.340 3  -3138542.161 2
  22390318.108    -9738129.722 3  -7588140.777 2
  22845627.601    11734102.938 3   9143449.282 1
  23871943.399    -2425212.733 2  -1889773.443 1
 91  5 28 18 33 15.0010000  0  6 19 06 11 02 18 16
  21326482.685     3580517.809 3   2790011.233 2
  23726344.698    -4223685.768 2  -3291175.108 1
  23399765.783    -4020643.839 3  -3132963.359 1
  22385993.002    -9760862.896 3  -7605854.918 2
  22856651.567    11792021.474 3   9188580.541 2
  23874396.899    -2412373.146 2  -1879768.634 1
 91  5 28 18 33 30.0010000  0  6 19 06 11 02 18 16
  21331050.323     3604523.872 3   2808717.233 2
  23722098.737    -4245977.787 2  -3308545.466 1
  23401156.513    -4013319.656 3  -3127256.188 1
  22381687.379    -9783508.841 3  -7623501.086 2
  22867687.826    11850022.980 3   9233776.474 2
  23876871.986    -2399385.646 2  -1869648.544 1
 91  5 28 18 33 45.0010000  0  6 19 06 11 02 18 16
  21335633.247     3628604.930 3   2827481.677 2
  23717868.062    -4268234.983 2  -3325888.738 1
  23402594.324    -4005826.300 3  -3121417.213 1
  22377390.751    -9806063.155 3  -7641075.844 2
  22878745.078    11908111.610 3   9279040.266 2
  23879370.159    -2386245.986 2  -1859409.849 1
 91  5 28 18 34  0.0010000  0  6 19 06 11 02 18 16
  21340233.866     3652765.116 3   2846307.788 2
  23713637.388    -4290452.944 2  -3343201.405 1
  23404048.913    -3998159.358 3  -3115442.979 2
  22373116.015    -9828521.312 3  -7658575.700 2
  22889822.110    11966291.527 3   9324375.221 2
  23881901.008    -2372949.769 2  -1849049.202 1
 91  5 28 18 34 15.0010000  0  6 19 06 11 02 18 16
  21344841.972     3677000.966 3   2865192.850 3
  23709420.211    -4312635.169 2  -3360486.233 1
  23405530.489    -3990322.207 3  -3109336.123 1
  22368861.355    -9850886.829 3  -7676003.346 2
  22900900.634    12024558.816 3   9369778.247 1
  23884457.334    -2359500.682 2  -1838569.387 1
 91  5 28 18 34 30.0010000  0  6 19 06 11 02 18 16
  21349465.669     3701317.338 3   2884140.651 2
  23705207.223    -4334776.936 2  -3377739.507 1
  23407065.724    -3982310.147 3  -3103092.944 1
  22364624.695    -9873154.814 3  -7693355.004 2
  22912007.348    12082918.072 3   9415252.924 2
  23887039.442    -2345894.626 2  -1827967.274 1
 91  5 28 18 34 45.0010000  0  6 19 06 11 02 18 16
  21354114.852     3725709.835 3   2903147.771 2
  23700992.149    -4356882.701 2  -3394964.797 1
  23408620.748    -3974127.387 3  -3096716.783 1
  22360406.009    -9895329.600 3  -7710634.030 2
  22923129.951    12141364.720 3   9460795.721 1
  23889661.730    -2332135.357 2  -1817245.805 1
 91  5 28 18 35  0.0010000  0  6 19 06 11 02 18 16
  21358768.231     3750181.392 3   2922216.520 2
  23696797.448    -4378949.432 2  -3412159.570 2
  23410202.453    -3965770.940 2  -3090205.274 1
  22356202.322    -9917408.205 3  -7727838.125 2
  22934267.535    12199901.637 3   9506408.843 2
  23892312.497    -2318219.923 2  -1806402.579 1
 91  5 28 18 35 15.0010000  0  6 19 06 11 02 18 16
  21363439.899     3774728.440 3   2941344.070 2
  23692602.154    -4400980.776 2  -3429326.859 1
  23411830.628    -3957244.285 3  -3083561.129 1
  22352019.618    -9939394.112 3  -7744969.987 2
  22945424.917    12258524.683 3   9552089.077 2
  23894985.146    -2304152.584 2  -1795441.055 1
 91  5 28 18 35 30.0010000  0  6 19 06 11 02 18 16
  21368126.853     3799347.934 3   2960528.080 2
  23688411.353    -4422979.825 2  -3446468.937 1
  23413486.383    -3948550.451 3  -3076786.733 1
  22347856.703    -9961290.299 3  -7762031.925 2
  22956596.982    12317230.581 2   9597833.877 1
  23897694.973    -2289936.295 2  -1784363.408 1
 91  5 28 18 35 45.0010000  0  6 19 06 11 02 18 16
  21372820.106     3824045.826 3   2979773.169 2
  23684240.638    -4444940.626 2  -3463581.267 1
  23415178.706    -3939683.419 3  -3069877.368 1
  22343703.978    -9983090.748 3  -7779019.273 2
  22967781.333    12376025.178 3   9643647.758 2
  23900430.574    -2275565.175 2  -1773165.168 1
 91  5 28 18 36  0.0010000  0  6 19 06 11 02 18 16
  21377534.640     3848818.803 3   2999076.766 2
  23680063.029    -4466866.638 2  -3480666.428 1
  23416893.521    -3930646.553 3  -3062835.639 1
  22339572.831   -10004798.686 3  -7795934.533 2
  22978990.280    12434904.774 3   9689527.925 1
  23903188.371    -2261042.993 2  -1761849.167 1
 91  5 28 18 36 15.0010000  0  6 19 06 11 02 18 16
  21382267.768     3873670.347 3   3018441.595 2
  23675898.919    -4488754.281 2  -3497721.706 1
  23418650.906    -3921436.350 3  -3055658.856 2
  22335462.083   -10026410.706 3  -7812775.054 2
  22990210.307    12493872.325 3   9735476.605 1
  23905981.235    -2246366.275 2  -1750412.809 1
 91  5 28 18 36 30.0010000  0  6 19 06 11 02 18 16
  21387014.079     3898597.703 3   3037865.486 2
  23671741.998    -4510606.401 2  -3514749.279 1
  23420431.971    -3912055.482 3  -3048349.097 1
  22331366.613   -10047929.525 3  -7829542.948 2
  23001443.833    12552924.983 3   9781491.597 1
  23908804.977    -2231537.638 2  -1738858.035 1
 91  5 28 18 36 45.0010000  0  6 19 06 11 02 18 16
  21391764.892     3923601.561 3   3057349.001 3
  23667592.563    -4532422.251 2  -3531748.646 1
  23422243.915    -3902503.172 2  -3040905.738 1
  22327290.042   -10069354.410 3  -7846237.635 2
  23012704.633    12612063.272 3   9827573.322 2
  23911653.603    -2216556.671 2  -1727184.546 1
 91  5 28 18 37  0.0010000  0  6 19 06 11 02 18 16
  21396543.581     3948679.275 3   3076890.054 2
  23663446.138    -4554204.388 2  -3548721.683 1
  23424103.532    -3892781.940 3  -3033330.744 2
  22323231.453   -10090687.824 3  -7862861.048 2
  23023973.233    12671284.272 3   9873719.498 1
  23914541.509    -2201425.987 2  -1715394.423 1
 91  5 28 18 37 15.0010000  0  6 19 06 11 02 18 16
  21401327.070     3973834.213 3   3096491.301 2
  23659305.402    -4575949.586 2  -3565665.996 1
  23425981.429    -3882888.555 3  -3025621.616 2
  22319189.345   -10111926.363 3  -7879410.548 2
  23035254.127    12730591.218 3   9919932.642 1
  23917442.599    -2186142.353 2  -1703485.106 1
 91  5 28 18 37 30.0010000  0  6 19 06 11 02 18 16
  21406127.346     3999061.965 3   3116149.278 2
  23655178.757    -4597662.359 2  -3582585.027 1
  23427903.396    -3872827.460 3  -3017781.806 1
  22315164.034   -10133074.530 3  -7895889.614 2
  23046559.303    12789979.262 3   9966208.981 1
  23920383.563    -2170710.581 2  -1691460.351 1
 91  5 28 18 37 45.0010000  0  6 19 06 11 02 18 16
  21410939.618     4024361.404 3   3135863.115 2
  23651050.018    -4619343.892 2  -3599479.669 1
  23429837.063    -3862599.689 3  -3009812.109 1
  22311157.010   -10154133.265 3  -7912298.991 2
  23057876.467    12849447.176 3  10012547.561 2
  23923353.607    -2155131.819 2  -1679321.092 1
 91  5 28 18 38  0.0010000  0  6 19 06 11 02 18 16
  21415771.968     4049732.112 3   3155632.485 2
  23646932.072    -4640994.410 2  -3616350.162 1
  23431817.192    -3852205.457 3  -3001712.718 1
  22307167.672   -10175103.032 3  -7928639.045 2
  23069204.721    12908994.273 3  10058947.845 2
  23926341.634    -2139406.602 2  -1667067.702 1
 91  5 28 18 38 15.0010000  0  6 19 06 11 02 18 16
  21420612.719     4075173.359 3   3175456.808 2
  23642818.018    -4662614.673 2  -3633197.126 1
  23433833.294    -3841645.424 3  -2993484.105 2
  22303187.923   -10195984.451 3  -7944910.272 2
  23080553.068    12968619.557 3  10105409.029 2
  23929359.047    -2123535.607 2  -1654700.734 1
 91  5 28 18 38 30.0010000  0  6 19 06 11 02 18 16
  21425466.358     4100686.102 3   3195336.862 2
  23638709.364    -4684203.912 2  -3650019.894 1
  23435873.687    -3830918.985 3  -2985125.850 1
  22299236.356   -10216776.608 3  -7961111.932 2
  23091911.598    13028323.544 3  10151931.572 1
  23932405.838    -2107518.536 2  -1642219.917 1
 91  5 28 18 38 45.0010000  0  6 19 06 11 02 18 16
  21430332.586     4126264.121 3   3215267.771 2
  23634612.698    -4705768.350 2  -3666823.312 1
  23437943.152    -3820032.266 3  -2976642.687 1
  22295294.090   -10237485.655 3  -7977248.831 2
  23103289.027    13088099.688 3  10198510.343 1
  23935483.812    -2091361.284 2  -1629629.854 1
 91  5 28 18 39  0.0010000  0  6 19 06 11 02 18 16
  21435218.909     4151911.587 3   3235252.788 2
  23630508.538    -4727303.778 2  -3683604.139 1
  23440044.699    -3808980.921 2  -2968031.251 1
  22291366.805   -10258107.370 3  -7993317.688 2
  23114678.444    13147951.894 3  10245148.335 1
  23938583.067    -2075059.711 2  -1616927.329 1
 91  5 28 18 39 15.0010000  0  6 19 06 11 02 18 16
  21440104.926     4177625.553 3   3255289.633 2
  23626417.570    -4748813.177 2  -3700364.696 1
  23442181.914    -3797767.831 3  -2959293.787 2
  22287461.708   -10278644.572 3  -8009320.681 2
  23126081.943    13207876.850 3  10291843.029 1
  23941714.395    -2058617.375 2  -1604115.157 1
 91  5 28 18 39 30.0010000  0  6 19 06 11 02 18 16
  21445012.530     4203406.310 3   3275378.517 2
  23622332.596    -4770296.372 2  -3717104.824 1
  23444341.318    -3786392.796 3  -2950430.120 1
  22283568.905   -10299096.986 3  -8025257.595 2
  23137499.245    13267874.867 3  10338594.705 1
  23944875.406    -2042033.953 2  -1591193.059 1
 91  5 28 18 39 45.0010000  0  6 19 06 11 02 18 16
  21449934.817     4229259.177 3   3295523.595 2
  23618244.926    -4791747.903 2  -3733820.274 1
  23446545.097    -3774850.436 3  -2941436.086 1
  22279693.186   -10319459.192 3  -8041124.242 2
  23148927.332    13327951.069 3  10385407.269 2
  23948049.313    -2025304.251 2  -1578156.927 1
 91  5 28 18 40  0.0010000  0  6 19 06 11 02 18 16
  21454870.603     4255185.296 3   3315725.754 2
  23614161.157    -4813166.824 2  -3750510.336 1
  23448770.750    -3763139.607 3  -2932310.760 1
  22275837.255   -10339730.115 3  -8056919.752 2
  23160381.201    13388105.758 3  10432280.987 2
  23951261.889    -2008427.488 2  -1565006.228 1
 91  5 28 18 40 15.0010000  0  6 19 06 11 02 18 16
  21459812.679     4281185.892 3   3335985.940 2
  23610100.465    -4834551.712 2  -3767173.871 1
  23451025.789    -3751259.052 3  -2923053.183 1
  22272000.816   -10359908.548 3  -8072643.167 2
  23171836.274    13448340.233 2  10479216.879 1
  23954506.844    -1991402.294 2  -1551739.887 1
 91  5 28 18 40 30.0010000  0  6 19 06 11 02 18 16
  21464775.146     4307259.159 3   3356302.759 2
  23606034.084    -4855904.442 2  -3783812.324 1
  23453322.500    -3739210.479 3  -2913664.682 2
  22268174.864   -10379996.030 3  -8088295.739 2
  23183312.026    13508652.568 2  10526213.459 1
  23957768.883    -1974230.791 2  -1538359.487 1
 91  5 28 18 40 45.0010000  0  6 19 06 11 02 18 16
  21469752.899     4333405.309 3   3376676.359 2
  23601975.495    -4877224.792 2  -3800425.546 1
  23455649.792    -3726993.786 3  -2904145.185 1
  22264370.193   -10399992.367 3  -8103877.285 2
  23194806.371    13569042.863 2  10573270.771 2
  23961062.699    -1956912.929 2  -1524865.073 1
 91  5 28 18 41  0.0010000  0  6 19 06 11 02 18 16
  21474739.351     4359618.832 3   3397102.467 2
  23597927.995    -4898518.344 2  -3817017.919 1
  23458001.662    -3714614.431 3  -2894498.932 2
  22260579.622   -10419903.192 3  -8119392.192 2
  23206315.706    13629504.724 2  10620383.834 1
  23964385.604    -1939454.383 2  -1511261.007 1
 91  5 28 18 41 15.0010000  0  6 19 06 11 02 18 16
  21479740.784     4385901.036 3   3417582.094 2
  23593876.596    -4919783.767 2  -3833588.364 1
  23460383.215    -3702071.066 3  -2884724.875 1
  22256812.425   -10439727.099 3  -8134839.372 2
  23217838.521    13690039.704 2  10667553.897 1
  23967733.682    -1921853.713 2  -1497546.198 1
 91  5 28 18 41 30.0010000  0  6 19 06 11 02 18 16
  21484756.317     4412247.572 3   3438111.842 2
  23589842.891    -4941025.540 2  -3850140.356 1
  23462810.035    -3689368.151 3  -2874826.517 1
  22253053.029   -10459468.375 3  -8150222.174 2
  23229370.044    13750642.961 3  10714777.140 1
  23971101.548    -1904115.628 2  -1483724.367 1
 91  5 28 18 41 45.0010000  0  6 19 06 11 02 18 16
  21489782.032     4438660.320 3   3458693.175 2
  23585804.090    -4962241.760 2  -3866672.449 1
  23465253.344    -3676503.815 3  -2864802.359 1
  22249315.820   -10479124.920 3  -8165538.946 2
  23240915.649    13811315.970 2  10762054.747 1
  23974521.886    -1886238.551 2  -1469794.199 1
 91  5 28 18 42  0.0020000  0  6 19 06 11 02 18 16
  21494822.740     4465144.697 3   3479330.342 2
  23581766.785    -4983430.192 2  -3883182.883 1
  23467730.825    -3663473.475 2  -2854648.840 1
  22245584.906   -10498694.449 3  -8180787.916 2
  23252474.449    13872066.396 2  10809392.679 2
  23977944.915    -1868217.765 2  -1455752.036 1
 91  5 28 18 42 15.0020000  0  6 19 06 11 02 18 16
  21499874.246     4491694.132 3   3500018.208 2
  23577744.169    -5004590.966 2  -3899671.808 1
  23470246.989    -3650281.856 3  -2844369.649 1
  22241878.567   -10518177.348 3  -8195969.370 2
  23264048.236    13932882.664 2  10856781.918 1
  23981401.821    -1850058.616 2  -1441602.104 1
 91  5 28 18 42 30.0020000  0  6 19 06 11 02 18 16
  21504938.343     4518312.324 3   3520759.630 2
  23573716.153    -5025723.729 2  -3916138.858 1
  23472779.330    -3636926.218 3  -2833962.668 1
  22238190.219   -10537572.895 3  -8211082.768 2
  23275631.918    13993770.736 3  10904227.104 2
  23984881.508    -1831758.219 2  -1427342.051 1
 91  5 28 18 42 45.0020000  0  6 19 06 11 02 18 16
  21510016.226     4544999.228 3   3541554.612 2
  23569705.831    -5046828.381 2  -3932583.996 1
  23475358.446    -3623406.521 3  -2823427.846 1
  22234515.666   -10556881.155 3  -8226128.147 2
  23287236.583    14054730.294 3  10951727.996 1
  23988393.277    -1813316.810 2  -1412972.128 1
 91  5 28 18 43  0.0020000  0  6 19 06 11 02 18 16
  21515112.998     4571750.329 3   3562399.614 2
  23565693.110    -5067909.586 2  -3949010.895 1
  23477960.648    -3609727.360 3  -2812768.779 1
  22230858.196   -10576106.878 3  -8241109.215 2
  23298842.749    14115756.248 2  10999280.626 1
  23991926.039    -1794738.976 2  -1398495.928 1
 91  5 28 18 43 15.0020000  0  6 19 06 11 02 18 16
  21520214.264     4598568.729 3   3583297.046 2
  23561687.282    -5088964.398 2  -3965417.227 1
  23480598.223    -3595885.844 3  -2801983.160 2
  22227216.920   -10595246.707 3  -8256023.351 2
  23310467.203    14176851.425 2  11046887.197 1
  23995489.068    -1776021.834 2  -1383911.148 1
 91  5 28 18 43 30.0020000  0  6 19 06 11 02 18 16
  21525324.525     4625451.883 3   3604244.935 2
  23557682.352    -5109995.166 2  -3981804.799 2
  23483257.077    -3581884.286 3  -2791072.878 2
  22223589.727   -10614303.053 3  -8270872.429 2
  23322111.140    14238012.992 3  11094545.491 1
  23999078.185    -1757168.189 2  -1369220.055 1
 91  5 28 18 43 45.0020000  0  6 19 06 11 02 18 16
  21530454.278     4652404.199 3   3625246.732 2
  23553684.926    -5130997.660 2  -3998170.363 1
  23485954.916    -3567718.505 3  -2780034.574 1
  22219977.532   -10633271.607 3  -8285653.102 2
  23333765.870    14299245.122 2  11142258.765 1
  24002693.085    -1738174.105 2  -1354419.440 1
 91  5 28 18 44  0.0020000  0  6 19 06 11 02 18 16
  21535596.613     4679420.503 3   3646298.382 2
  23549693.485    -5151976.914 2  -4014517.810 2
  23488683.319    -3553393.505 3  -2768872.250 1
  22216383.319   -10652157.466 3  -8300369.344 2
  23345430.791    14360542.455 3  11190022.867 1
  24006328.663    -1719044.951 2  -1339513.601 1
 91  5 28 18 44 15.0020000  0  6 19 06 11 02 18 16
  21540749.453     4706502.244 3   3667401.018 2
  23545710.447    -5172931.459 2  -4030845.998 1
  23491439.013    -3538907.794 2  -2757584.668 1
  22212806.792   -10670959.133 4  -8315019.974 2
  23357103.512    14421906.196 2  11237838.700 1
  24009998.121    -1699779.154 2  -1324501.362 1
 91  5 28 18 44 30.0020000  0  6 19 06 11 02 18 16
  21545915.477     4733650.141 3   3688555.212 2
  23541720.804    -5193860.759 2  -4047154.519 2
  23494231.580    -3524260.875 3  -2746171.513 1
  22209243.763   -10689676.041 4  -8329604.568 2
  23368793.919    14483336.681 2  11285706.533 1
  24013687.071    -1680376.169 2  -1309382.149 1
 91  5 28 18 44 45.0020000  0  6 19 06 11 02 18 16
  21551096.184     4760859.486 3   3709757.292 2
  23537745.557    -5214769.317 2  -4063446.885 1
  23497050.227    -3509457.317 3  -2734636.280 1
  22205702.311   -10708312.771 4  -8344126.676 2
  23380501.113    14544829.059 3  11333622.630 1
  24017406.297    -1660840.873 2  -1294159.869 1
 91  5 28 18 45  0.0020000  0  6 19 06 11 02 18 16
  21556282.293     4788129.589 3   3731006.702 2
  23533772.709    -5235658.021 2  -4079723.768 1
  23499887.467    -3494497.894 3  -2722979.586 1
  22202168.363   -10726869.951 3  -8358586.805 2
  23392211.910    14606382.105 2  11381585.986 1
  24021157.596    -1641174.047 2  -1278835.083 1
 91  5 28 18 45 15.0020000  0  6 19 06 11 02 18 16
  21561483.095     4815463.105 3   3752305.532 2
  23529802.855    -5256524.138 2  -4095983.052 1
  23502766.072    -3479380.026 3  -2711199.429 1
  22198652.092   -10745344.719 3  -8372982.712 2
  23403934.696    14667998.233 2  11429598.500 1
  24024914.602    -1621373.283 2  -1263405.929 1
 91  5 28 18 45 30.0020000  0  6 19 06 11 02 18 16
  21566703.982     4842856.308 3   3773650.868 2
  23525828.812    -5277371.454 2  -4112227.716 1
  23505672.563    -3464107.414 3  -2699298.729 1
  22195152.616   -10763740.935 3  -8387317.409 2
  23415668.571    14729673.615 2  11477657.154 1
  24028713.567    -1601442.610 2  -1247875.600 1
 91  5 28 18 45 45.0020000  0  6 19 06 11 02 18 16
  21571923.665     4870311.922 3   3795044.844 2
  23521869.750    -5298197.256 2  -4128455.603 1
  23508608.431    -3448677.413 3  -2687275.343 2
  22191664.230   -10782055.985 3  -8401588.856 2
  23427415.639    14791410.795 2  11525763.993 1
  24032525.733    -1581379.602 2  -1232242.122 1
 91  5 28 18 46  0.0020000  0  6 19 06 11 02 18 16
  21577156.846     4897828.881 3   3816486.607 2
  23517911.892    -5319002.618 2  -4144667.534 1
  23511570.981    -3433091.061 3  -2675130.136 1
  22188196.532   -10800290.770 3  -8415797.762 2
  23439173.194    14853208.019 2  11573917.617 1
  24036362.468    -1561185.265 2  -1216506.279 1
 91  5 28 18 46 15.0020000  0  6 19 06 11 02 18 16
  21582402.311     4925407.009 3   3837976.042 2
  23513950.728    -5339787.722 2  -4160863.674 1
  23514570.699    -3417348.640 3  -2662863.330 1
  22184741.127   -10818445.393 3  -8429944.210 2
  23450952.344    14915065.109 3  11622117.884 1
  24040239.087    -1540859.922 2  -1200668.360 1
 91  5 28 18 46 30.0020000  0  6 19 06 11 02 18 16
  21587667.269     4953048.925 3   3859515.174 2
  23510005.461    -5360549.990 2  -4177042.051 1
  23517593.504    -3401447.565 3  -2650472.894 1
  22181301.602   -10836517.246 3  -8444026.161 2
  23462733.292    14976984.465 2  11670366.664 1
  24044131.890    -1520401.141 2  -1184726.509 1
 91  5 28 18 46 45.0020000  0  6 19 06 11 02 18 16
  21592939.416     4980756.396 3   3881105.392 2
  23506058.090    -5381287.535 2  -4193201.160 1
  23520650.791    -3385385.923 3  -2637957.351 1
  22177877.677   -10854504.550 3  -8458042.226 2
  23474527.126    15038967.506 2  11718665.080 1
  24048055.275    -1499807.464 2  -1168679.457 1
 91  5 28 18 47  0.0020000  0  6 19 06 11 02 18 16
  21598220.864     5008525.072 3   3902743.314 2
  23502115.824    -5402004.703 2  -4209344.389 1
  23523741.050    -3369168.232 3  -2625320.194 2
  22174472.032   -10872411.628 3  -8471995.777 2
  23486329.956    15101009.475 2  11767009.417 1
  24051995.150    -1479083.521 2  -1152530.944 1
 91  5 28 18 47 15.0020000  0  6 19 06 11 02 18 16
  21603514.894     5036358.947 3   3924432.038 2
  23498176.551    -5422697.819 2  -4225468.899 1
  23526855.600    -3352790.698 3  -2612558.471 1
  22171080.180   -10890234.599 4  -8485883.797 2
  23498154.669    15163114.105 2  11815402.552 1
  24055962.605    -1458225.456 2  -1136277.948 1
 91  5 28 18 47 30.0020000  0  6 19 06 11 02 18 16
  21608827.822     5064253.650 3   3946168.148 2
  23494245.070    -5443371.007 2  -4241577.862 1
  23529996.526    -3336257.508 3  -2599675.473 1
  22167701.522   -10907977.704 3  -8499709.575 2
  23509975.184    15225276.698 2  11863840.860 1
  24059956.437    -1437237.894 2  -1119924.058 1
 91  5 28 18 47 45.0020000  0  6 19 06 11 02 18 16
  21614152.136     5092214.047 3   3967955.448 2
  23490312.096    -5464019.539 2  -4257667.593 1
  23533174.621    -3319563.900 3  -2586667.479 2
  22164346.839   -10925636.035 4  -8513469.300 2
  23521821.779    15287501.891 2  11912327.981 1
  24063976.059    -1416116.239 2  -1103465.634 1
 91  5 28 18 48  0.0020000  0  6 19 06 11 02 18 16
  21619479.443     5120234.541 3   3989789.579 2
  23486384.811    -5484649.064 2  -4273742.531 1
  23536382.704    -3302715.542 3  -2573538.906 1
  22161001.162   -10943215.167 4  -8527167.317 3
  23533675.573    15349783.769 2  11960859.241 1
  24068025.949    -1394866.259 2  -1086907.209 1
 91  5 28 18 48 15.0020000  0  6 19 06 11 02 18 16
  21624823.250     5148321.859 3   4011675.778 2
  23482463.529    -5505252.765 2  -4289797.342 1
  23539624.361    -3285705.692 3  -2560284.479 1
  22157671.067   -10960708.249 4  -8540798.274 2
  23545538.362    15412128.757 2  12009439.691 1
  24072094.136    -1373481.544 2  -1070243.876 1
 91  5 28 18 48 30.0020000  0  6 19 06 11 02 18 16
  21630182.334     5176476.361 3   4033614.344 2
  23478551.539    -5525830.368 2  -4305831.823 1
  23542888.799    -3268534.174 3  -2546904.076 2
  22154353.859   -10978114.936 4  -8554361.918 3
  23557418.836    15474536.902 2  12058069.354 1
  24076184.502    -1351961.504 2  -1053475.026 1
 91  5 28 18 48 45.0020000  0  6 19 06 11 02 18 16
  21635554.916     5204698.055 3   4055605.255 2
  23474638.947    -5546381.662 2  -4321845.802 1
  23546190.712    -3251200.903 3  -2533397.651 1
  22151062.137   -10995435.141 4  -8567858.161 3
  23569301.710    15537008.240 2  12106748.253 1
  24080304.848    -1330306.440 2  -1036600.976 1
 91  5 28 18 49  0.0020000  0  6 19 06 11 02 18 16
  21640941.292     5232987.764 3   4077649.157 2
  23470738.047    -5566905.910 2  -4337838.704 1
  23549519.009    -3233705.078 3  -2519764.539 1
  22147783.006   -11012668.081 4  -8581286.414 2
  23581200.778    15599543.197 2  12155476.707 1
  24084455.478    -1308515.781 2  -1019621.241 1
 91  5 28 18 49 15.0020000  0  6 19 06 11 02 18 16
  21646333.959     5261349.885 3   4099749.493 2
  23466839.250    -5587398.772 2  -4353807.152 1
  23552877.880    -3216042.479 3  -2506001.477 1
  22144519.169   -11029809.470 4  -8594643.338 2
  23593120.821    15662145.558 2  12204257.713 1
  24088628.287    -1286585.342 2  -1002532.625 1
 91  5 28 18 49 30.0020000  0  6 19 06 11 02 18 16
  21651744.608     5289781.966 3   4121904.346 2
  23462943.139    -5607862.591 2  -4369752.951 1
  23556264.339    -3198215.455 3  -2492110.320 2
  22141276.011   -11046861.597 4  -8607930.690 3
  23605045.663    15724812.866 2  12253089.289 1
  24092824.489    -1264517.641 2   -985337.060 1
 91  5 28 18 49 45.0020000  0  6 19 06 11 02 18 16
  21657164.253     5318283.599 3   4144113.403 2
  23459054.236    -5628297.903 2  -4385676.563 1
  23559698.463    -3180224.676 3  -2478091.534 2
  22138046.046   -11063824.946 4  -8621148.875 2
  23616979.806    15787544.417 2  12301970.977 1
  24097053.060    -1242313.655 2   -968035.243 1
 91  5 28 18 50  0.0020000  0  6 19 06 11 02 18 16
  21662605.187     5346850.584 3   4166373.373 2
  23455167.427    -5648708.973 2  -4401581.279 1
  23563150.273    -3162074.423 3  -2463948.491 1
  22134833.775   -11080703.697 4  -8634301.138 2
  23628925.632    15850335.752 2  12350899.237 2
  24101302.616    -1219977.295 2   -950630.304 1
 91  5 28 18 50 15.0020000  0  6 19 06 11 02 18 16
  21668055.117     5375485.140 3   4188685.995 2
  23451293.208    -5669093.512 2  -4417465.319 1
  23566628.163    -3143762.369 3  -2449679.357 2
  22131640.987   -11097495.544 4  -8647385.675 2
  23640883.158    15913188.623 2  12399875.403 1
  24105572.859    -1197506.720 2   -933120.793 1
 91  5 28 18 50 30.0020000  0  6 19 06 11 02 18 16
  21673519.138     5404187.465 3   4211051.422 2
  23447413.597    -5689451.486 2  -4433328.658 1
  23570146.231    -3125288.487 3  -2435284.162 1
  22128461.688   -11114200.389 4  -8660402.433 3
  23652858.065    15976102.953 2  12448899.493 1
  24109876.676    -1174902.256 2   -915506.970 1
 91  5 28 18 50 45.0020000  0  6 19 06 11 02 18 16
  21678995.147     5432959.089 3   4233470.858 2
  23443544.474    -5709781.174 2  -4449169.981 1
  23573690.074    -3106651.239 3  -2420761.654 1
  22125300.075   -11130816.640 4  -8673350.147 2
  23664839.873    16039079.826 2  12497972.310 1
  24114201.189    -1152162.537 2   -897787.722 1
 91  5 28 18 51  0.0020000  0  6 19 06 11 02 18 16
  21684471.453     5461794.686 3   4255940.132 2
  23439683.142    -5730087.863 2  -4464993.367 1
  23577275.893    -3087855.979 3  -2406115.975 1
  22122151.655   -11147349.416 4  -8686232.814 3
  23676840.265    16102113.981 2  12547089.768 1
  24118553.875    -1129292.905 2   -879967.258 1
 91  5 28 18 51 15.0020000  0  6 19 06 11 02 18 16
  21689978.341     5490697.831 3   4278462.047 2
  23435818.818    -5750367.993 2  -4480796.048 1
  23580877.295    -3068899.074 3  -2391344.392 2
  22119022.420   -11163795.034 4  -8699047.567 3
  23688847.254    16165208.910 2  12596254.556 1
  24122936.541    -1106289.872 2   -862042.852 1
 91  5 28 18 51 30.0020000  0  6 19 06 11 02 18 16
  21695493.019     5519668.350 3   4301036.465 2
  23431966.185    -5770621.789 2  -4496578.200 1
  23584517.681    -3049780.927 3  -2376447.155 2
  22115913.568   -11180153.902 4  -8711794.725 3
  23700861.738    16228363.714 2  12645466.047 1
  24127343.785    -1083153.959 2   -844014.908 1
 91  5 28 18 51 45.0020000  0  6 19 06 11 02 18 16
  21701015.795     5548698.557 3   4323657.388 2
  23428114.451    -5790857.096 2  -4512345.943 1
  23588180.839    -3030509.504 3  -2361430.460 2
  22112810.719   -11196433.851 4  -8724480.397 3
  23712891.804    16291570.558 2  12694718.069 1
  24131770.522    -1059893.504 2   -825889.934 1
 91  5 28 18 52  0.0020000  0  6 19 06 11 02 18 16
  21706553.866     5577792.120 3   4346327.693 2
  23424269.915    -5811070.141 2  -4528096.378 1
  23591879.683    -3011081.024 3  -2346291.403 2
  22109728.557   -11212631.243 4  -8737101.726 2
  23724932.969    16354832.799 2  12744013.272 1
  24136217.945    -1036504.746 2   -807664.970 1
 91  5 28 18 52 15.0020000  0  6 19 06 11 02 18 16
  21712096.125     5606950.428 3   4369048.431 2
  23420433.170    -5831259.588 2  -4543828.399 1
  23595606.099    -2991494.297 3  -2331029.044 2
  22106666.471   -11228744.549 4  -8749657.535 2
  23736982.231    16418151.424 2  12793352.382 1
  24140689.651    -1012986.377 2   -789338.988 1
 91  5 28 18 52 30.0020000  0  6 19 06 11 02 18 16
  21717663.573     5636166.382 3   4391814.093 2
  23416598.825    -5851432.393 2  -4559547.463 1
  23599361.604    -2971756.350 3  -2315648.851 1
  22103613.686   -11244780.576 4  -8762153.138 2
  23749041.379    16481519.269 2  12842729.864 1
  24145187.436     -989345.782 2   -770917.765 1
 91  5 28 18 52 45.0020000  0  6 19 06 11 02 18 16
  21723231.624     5665446.034 3   4414629.385 2
  23412758.189    -5871582.606 2  -4575248.909 1
  23603151.582    -2951861.231 3  -2300146.185 1
  22100578.587   -11260733.576 3  -8774584.028 2
  23761102.934    16544941.942 2  12892150.075 1
  24149707.103     -965577.177 2   -752396.824 1
 91  5 28 18 53  0.0020000  0  6 19 06 11 02 18 16
  21728817.351     5694791.643 3   4437496.083 2
  23408931.034    -5891707.951 2  -4590930.997 1
  23606965.842    -2931806.706 3  -2284519.297 1
  22097557.876   -11276601.029 3  -8786948.277 2
  23773184.566    16608421.435 2  12941614.528 2
  24154256.453     -941678.625 2   -733774.565 1
 91  5 28 18 53 15.0020000  0  6 19 06 11 02 18 16
  21734414.779     5724203.927 3   4460414.724 2
  23405104.183    -5911807.722 2  -4606593.116 1
  23610815.473    -2911592.104 3  -2268767.655 2
  22094553.961   -11292382.443 3  -8799245.457 2
  23785275.499    16671958.200 2  12991123.626 1
  24158835.487     -917649.327 2   -715050.501 1
 91  5 28 18 53 30.0020000  0  6 19 06 11 02 18 16
  21740017.896     5753682.425 3   4483384.965 2
  23401279.130    -5931882.305 2  -4622235.648 1
  23614684.893    -2891218.085 3  -2252891.815 1
  22091567.129   -11308078.052 3  -8811475.791 2
  23797378.115    16735551.692 2  13040676.926 1
  24163432.808     -893490.168 2   -696225.208 1
 91  5 28 18 53 45.0020000  0  6 19 06 11 02 18 16
  21745642.301     5783236.024 3   4506413.726 2
  23397468.771    -5951922.892 2  -4637851.661 1
  23618595.688    -2870675.818 3  -2236884.890 1
  22088596.483   -11323678.966 3  -8823632.333 3
  23809489.736    16799210.302 2  13090280.974 1
  24168056.801     -869192.349 2   -677291.888 1
 91  5 28 18 54  0.0020000  0  6 19 06 11 02 18 16
  21751284.096     5812866.899 3   4529502.704 2
  23393665.600    -5971927.430 2  -4653439.614 1
  23622539.454    -2849963.367 3  -2220745.313 1
  22085648.923   -11339183.205 4  -8835713.558 2
  23821619.338    16862935.699 2  13139937.052 1
  24172705.984     -844754.145 2   -658249.179 1
 91  5 28 18 54 15.0020000  0  6 19 06 11 02 18 16
  21756939.686     5842573.851 3   4552650.966 2
  23389858.835    -5991897.014 2  -4669000.334 1
  23626511.403    -2829081.863 3  -2204474.044 1
  22082712.758   -11354591.803 3  -8847720.252 2
  23833760.031    16926726.570 2  13189644.128 1
  24177384.248     -820177.123 2   -639098.264 1
 91  5 28 18 54 30.0020000  0  6 19 06 11 02 18 16
  21762603.965     5872356.294 3   4575858.041 2
  23386067.060    -6011832.124 2  -4684534.153 1
  23630524.726    -2808031.965 3  -2188071.549 1
  22079803.274   -11369905.363 4  -8859652.887 2
  23845906.726    16990582.079 2  13239401.609 1
  24182086.488     -795461.796 2   -619839.613 1
 91  5 28 18 54 45.0020000  0  6 19 06 11 02 18 16
  21768286.830     5902223.998 3   4599131.572 2
  23382287.875    -6031722.989 2  -4700033.496 1
  23634560.831    -2786803.938 3  -2171530.261 2
  22076907.873   -11385114.133 4  -8871503.869 2
  23858073.498    17054511.634 2  13289216.787 1
  24186819.013     -770598.734 2   -600465.828 1
 91  5 28 18 55  0.0020000  0  6 19 06 11 02 18 16
  21773984.980     5932171.659 3   4622467.384 2
  23378507.495    -6051575.058 2  -4715502.639 1
  23638625.423    -2765403.169 3  -2154854.352 2
  22074031.065   -11400223.460 4  -8883277.354 3
  23870253.767    17118509.688 2  13339085.338 1
  24191571.624     -745593.453 2   -580981.212 1
 91  5 28 18 55 15.0020000  0  6 19 06 11 02 18 16
  21779704.725     5962201.343 3   4645867.131 2
  23374739.103    -6071386.078 2  -4730939.792 1
  23642737.671    -2743827.687 3  -2138042.308 2
  22071176.140   -11415231.032 4  -8894971.565 2
  23882445.423    17182578.274 2  13389008.827 1
  24196361.709     -720443.996 2   -561384.293 1
 91  5 28 18 55 30.0020000  0  6 19 06 11 02 18 16
  21785435.857     5992311.720 3   4669329.748 2
  23370978.808    -6091157.317 2  -4746345.938 2
  23646879.603    -2722078.929 3  -2121095.258 2
  22068341.003   -11430138.253 3  -8906587.565 3
  23894648.177    17246715.465 2  13438985.784 1
  24201174.278     -695151.928 2   -541676.234 1
 91  5 28 18 55 45.0020000  0  6 19 06 11 02 18 16
  21791176.280     6022505.138 3   4692857.069 2
  23367219.115    -6110886.572 2  -4761719.376 1
  23651047.919    -2700154.704 3  -2104011.454 1
  22065523.857   -11444942.630 4  -8918123.438 2
  23906873.119    17310923.403 2  13489017.899 1
  24206016.827     -669715.150 2   -521855.398 1
 91  5 28 18 56  0.0020000  0  6 19 06 11 02 18 16
  21796939.197     6052783.873 3   4716450.866 2
  23363472.902    -6130571.622 2  -4777058.358 1
  23655256.405    -2678052.923 3  -2086789.321 2
  22062724.990   -11459642.173 3  -8929577.609 3
  23919095.356    17375203.966 2  13539106.540 1
  24210879.758     -644131.588 2   -501920.200 1
 91  5 28 18 56 15.0020000  0  6 19 06 11 02 18 16
  21802716.493     6083144.984 3   4740108.861 2
  23359735.990    -6150215.396 2  -4792365.171 1
  23659493.972    -2655776.549 3  -2069431.117 1
  22059943.522   -11474239.746 3  -8940952.331 3
  23931344.275    17439553.938 2  13589249.339 1
  24215775.966     -618404.730 2   -481873.285 1
 91  5 28 18 56 30.0020000  0  6 19 06 11 02 18 16
  21808510.585     6113586.368 3   4763829.408 2
  23356003.275    -6169820.007 2  -4807641.493 1
  23663765.716    -2633327.784 3  -2051938.591 1
  22057192.024   -11488737.509 3  -8952249.278 3
  23943604.885    17503971.032 2  13639444.361 1
  24220698.559     -592536.936 2   -461716.613 1
 91  5 28 18 56 45.0020000  0  6 19 06 11 02 18 16
  21814320.260     6144112.561 3   4787616.040 2
  23352284.346    -6189380.938 2  -4822883.770 2
  23668074.332    -2610702.270 3  -2034308.326 1
  22054448.021   -11503130.990 3  -8963464.972 3
  23955870.599    17568459.163 2  13689694.826 1
  24225651.131     -566524.154 2   -441446.949 1
 91  5 28 18 57  0.0020000  0  6 19 06 11 02 18 16
  21820141.329     6174718.425 3   4811464.741 2
  23348567.223    -6208903.220 2  -4838095.923 1
  23672410.833    -2587905.209 3  -2016544.433 1
  22051731.606   -11517425.135 3  -8974603.259 2
  23968157.289    17633013.248 2  13739996.644 2
  24230626.790     -540371.103 2   -421068.007 1
 91  5 28 18 57 15.0020000  0  6 19 06 11 02 18 16
  21825981.891     6205401.464 3   4835373.588 2
  23344855.492    -6228389.325 2  -4853279.894 1
  23676775.211    -2564939.219 3  -1998648.882 1
  22049028.376   -11531622.317 4  -8985665.997 2
  23980455.077    17697630.361 2  13790347.528 1
  24235630.623     -514080.814 2   -400582.123 1
 91  5 28 18 57 30.0020000  0  6 19 06 11 02 18 16
  21831838.036     6236159.512 3   4859340.879 2
  23341160.548    -6247841.579 2  -4868437.478 1
  23681184.855    -2541806.493 3  -1980623.416 1
  22046342.534   -11545724.892 3  -8996655.001 3
  23992762.157    17762308.289 2  13840745.840 1
  24240652.743     -487655.528 2   -379990.995 1
 91  5 28 18 57 45.0020000  0  6 19 06 11 02 18 16
  21837702.278     6266993.396 3   4883367.269 2
  23337462.009    -6267258.906 2  -4883567.856 1
  23685612.795    -2518506.311 3  -1962467.434 1
  22043678.880   -11559731.975 4  -9007569.604 2
  24005082.124    17827047.354 2  13891191.769 1
  24245714.441     -461094.782 2   -359294.359 1
 91  5 28 18 58  0.0020000  0  6 19 06 11 02 18 16
  21843587.503     6297900.996 3   4907451.091 2
  23333772.169    -6286643.523 2  -4898672.755 1
  23690081.796    -2495040.906 3  -1944182.720 1
  22041032.014   -11573645.606 4  -9018411.394 3
  24017422.482    17891845.407 2  13941683.709 1
  24250793.222     -434400.910 2   -338493.966 1
 91  5 28 18 58 15.0020000  0  6 19 06 11 02 18 16
  21849482.920     6328886.656 3   4931595.742 2
  23330093.716    -6305991.062 2  -4913748.747 1
  23694577.181    -2471406.052 3  -1925765.991 2
  22038400.731   -11587461.593 4  -9029177.093 3
  24029758.643    17956706.208 2  13992224.481 1
  24255896.896     -407569.831 2   -317586.702 1
 91  5 28 18 58 30.0020000  0  6 19 06 11 02 18 16
  21855387.628     6359949.474 3   4955800.516 2
  23326411.362    -6325302.627 2  -4928796.712 1
  23699107.345    -2447603.045 3  -1907218.215 1
  22035790.143   -11601181.223 4  -9039867.707 2
  24042107.996    18021628.366 2  14042813.128 1
  24261031.134     -380602.896 2   -296573.502 1
 91  5 28 18 58 45.0020000  0  6 19 06 11 02 18 16
  21861317.823     6391088.426 3   4980064.621 2
  23322743.405    -6344579.025 2  -4943817.259 1
  23703665.394    -2423632.732 3  -1888540.060 1
  22033198.733   -11614804.895 3  -9050483.541 2
  24054477.731    18086610.844 2  14093448.724 1
  24266193.266     -353500.929 2   -275455.114 1
 91  5 28 18 59  0.0020000  0  6 19 06 11 02 18 16
  21867255.513     6422306.625 3   5004390.480 2
  23319082.934    -6363817.085 2  -4958807.937 1
  23708257.916    -2399492.087 3  -1869729.200 1
  22030627.714   -11628329.490 4  -9061022.174 3
  24066854.665    18151656.264 2  14144133.412 1
  24271368.878     -326261.221 2   -254229.428 1
 91  5 28 18 59 15.0020000  0  6 19 06 11 02 18 16
  21873216.289     6453602.876 3   5028777.156 2
  23315438.656    -6383018.229 2  -4973769.859 1
  23712893.008    -2375182.755 3  -1850786.855 1
  22028070.481   -11641756.770 4  -9071484.988 3
  24079241.187    18216763.257 2  14194866.050 1
  24276583.169     -298885.853 2   -232897.991 1
 91  5 28 18 59 30.0020000  0  6 19 06 11 02 18 16
  21879184.560     6484983.431 3   5053229.510 2
  23311785.087    -6402176.085 2  -4988698.047 1
  23717554.782    -2350698.437 3  -1831708.221 2
  22025532.137   -11655080.151 4  -9081866.831 3
  24091643.301    18281937.624 2  14245651.162 1
  24281819.046     -271368.549 2   -211456.003 1
 91  5 28 18 59 45.0020000  0  6 19 06 11 02 18 16
  21885171.110     6516443.774 3   5077744.046 2
  23308155.197    -6421294.981 2  -5003595.895 2
  23722240.837    -2326043.627 3  -1812496.698 2
  22023018.084   -11668303.931 4  -9092171.080 2
  24104058.904    18347174.888 2  14296485.331 1
  24287082.206     -243713.938 2   -189906.964 1
 91  5 28 19  0  0.0020000  0  6 19 06 11 02 18 16
  21891174.160     6547986.384 3   5102322.691 2
  23304516.923    -6440372.406 2  -5018461.400 1
  23726968.563    -2301215.966 3  -1793150.482 2
  22020521.412   -11681425.717 4  -9102395.832 2
  24116488.904    18412477.184 2  14347370.172 1
  24292370.242     -215919.493 2   -168249.014 1
 91  5 28 19  0 15.0020000  0  6 19 06 11 02 18 16
  21897188.892     6579609.068 3   5126963.723 2
  23300895.427    -6459410.762 3  -5033296.467 1
  23731721.767    -2276217.930 3  -1773671.512 2
  22018043.027   -11694447.779 4  -9112542.887 3
  24128925.796    18477841.987 2  14398303.723 1
  24297686.764     -187987.857 2   -146484.121
 91  5 28 19  0 30.0020000  0  6 19 06 11 02 18 16
  21903224.617     6611309.232 3   5151665.138 2
  23297286.826    -6478412.478 3  -5048102.984 1
  23736514.557    -2251052.086 3  -1754061.788 1
  22015583.829   -11707372.521 4  -9122614.111 3
  24141371.675    18543266.290 2  14449283.585 1
  24303020.964     -159922.044 2   -124614.699 1
 91  5 28 19  0 45.0020000  0  6 19 06 11 02 18 16
  21909275.925     6643085.476 3   5176425.822 2
  23293671.325    -6497379.076 2  -5062882.171 1
  23741337.910    -2225720.094 3  -1734322.599 2
  22013142.622   -11720201.597 4  -9132610.786 2
  24153837.046    18608748.419 2  14500308.516 1
  24308390.554     -131723.628 2   -102641.992 1
 91  5 28 19  1  0.0020000  0  6 19 06 11 02 18 16
  21915328.132     6674937.150 3   5201245.292 2
  23290065.420    -6516311.183 2  -5077634.447 1
  23746183.757    -2200222.715 3  -1714454.546 2
  22010717.600   -11732935.649 4  -9142533.429 3
  24166311.710    18674287.461 2  14551377.814 1
  24313778.422     -103393.195 2    -80566.380 1
 91  5 28 19  1 15.0020000  0  6 19 06 11 02 18 16
  21921406.426     6706862.058 3   5226121.833 2
  23286472.412    -6535210.803 2  -5092361.417 1
  23751061.686    -2174562.279 3  -1694459.444 1
  22008314.164   -11745576.862 4  -9152383.710 2
  24178791.468    18739880.978 2  14602489.581 1
  24319198.067      -74933.607 2    -58390.120 1
 91  5 28 19  1 30.0020000  0  6 19 06 11 02 18 16
  21927499.405     6738858.468 3   5251054.079 2
  23282882.396    -6554079.838 2  -5107064.556 1
  23755981.278    -2148740.649 3  -1674338.702 1
  22005923.912   -11758126.836 4  -9162162.910 2
  24191280.223    18805526.936 2  14653642.200 1
  24324639.603      -46347.020 2    -36114.856 1
 91  5 28 19  1 45.0020000  0  6 19 06 11 02 18 16
  21933597.489     6770928.199 3   5276043.474 2
  23279304.674    -6572916.326 2  -5121742.333 2
  23760927.848    -2122756.033 3  -1654090.988 1
  22003553.160   -11770583.836 4  -9171869.650 3
  24203781.567    18871226.687 2  14704836.748 1
  24330098.825      -17631.790 2    -13739.399 1
 91  5 28 19  2  0.0020000  0  6 19 06 11 02 18 16
  21939718.650     6803068.524 3   5301087.853 2
  23275719.457    -6591723.142 2  -5136396.998 2
  23765900.209    -2096611.424 3  -1633718.603 1
  22001200.688   -11782950.680 4  -9181506.148 3
  24216298.504    18936977.206 2  14756070.824 1
  24335589.222       11209.349 2      8734.145 1
 91  5 28 19  2 15.0020000  0  6 19 06 11 02 18 16
  21945844.008     6835281.275 3   5326188.675 2
  23272150.425    -6610498.350 2  -5151027.006 2
  23770900.150    -2070305.160 3  -1613220.235 1
  21998862.603   -11795225.533 4  -9191070.970 3
  24228817.840    19002780.240 2  14807345.780 1
  24341100.908       40177.989 2     31307.076 1
 91  5 28 19  2 30.0020000  0  6 19 06 11 02 18 16
  21951990.952     6867563.294 3   5351343.483 2
  23268574.203    -6629244.987 2  -5165634.777 1
  23775939.956    -2043840.336 3  -1592598.323 1
  21996543.408   -11807411.418 4  -9200566.457 3
  24241353.963    19068632.349 2  14858659.057 1
  24346635.376       69270.719 2     53976.714 1
 91  5 28 19  2 45.0020000  0  6 19 06 11 02 18 16
  21958142.694     6899916.568 3   5376553.807 2
  23265015.964    -6647961.214 2  -5180218.837 1
  23781006.155    -2017215.225 3  -1571851.510 1
  21994245.197   -11819506.354 4  -9209991.078 3
  24253893.079    19134535.285 2  14910011.897 1
  24352202.222       98488.922 2     76744.123 1
 91  5 28 19  3  0.0020000  0  6 19 06 11 02 18 16
  21964319.914     6932344.099 3   5401821.982 2
  23261460.430    -6666643.975 2  -5194776.819 1
  23786110.423    -1990427.163 3  -1550977.720 1
  21991962.883   -11831507.592 4  -9219342.679 3
  24266438.494    19200491.410 2  14961406.226 1
  24357783.456      127835.495 2     99611.547 1
 91  5 28 19  3 15.0020000  0  6 19 06 11 02 18 16
  21970497.745     6964839.747 3   5427143.248 2
  23257909.380    -6685299.545 2  -5209313.650 1
  23791229.078    -1963482.401 3  -1529981.845 2
  21989694.651   -11843421.160 4  -9228625.974 3
  24279005.792    19266494.211 2  15012836.875 1
  24363391.371      157303.832 2    122573.785 1
 91  5 28 19  3 30.0020000  0  6 19 06 11 02 18 16
  21976692.049     6997403.571 3   5452517.633 2
  23254368.836    -6703927.770 2  -5223829.128 1
  23796393.304    -1936381.041 3  -1508863.921 2
  21987442.011   -11855247.081 4  -9237840.968 3
  24291568.893    19332543.695 2  15064303.893 1
  24369026.570      186893.737 2    145630.845 1
 91  5 28 19  3 45.0020000  0  6 19 06 11 02 18 16
  21982905.853     7030038.074 3   5477947.100 2
  23250831.581    -6722526.003 2  -5238321.274 1
  23801575.809    -1909120.634 3  -1487622.056 2
  21985210.652   -11866982.802 4  -9246985.690 3
  24304158.082    19398642.086 2  15115809.059 1
  24374676.462      216607.597 2    168784.464 1
 91  5 28 19  4  0.0020000  0  6 19 06 11 02 18 16
  21989134.936     7062745.785 3   5503433.615 2
  23247294.335    -6741091.568 2  -5252787.938 1
  23806794.602    -1881698.594 3  -1466254.277 2
  21982992.790   -11878625.615 4  -9256058.002 3
  24316735.876    19464791.701 2  15167354.139 1
  24380355.435      246447.906 2    192036.575 1
 91  5 28 19  4 15.0020000  0  6 19 06 11 02 18 16
  21995365.222     7095522.141 3   5528973.609 2
  23243766.974    -6759629.046 2  -5267232.697 1
  23812044.561    -1854119.764 3  -1444764.321 2
  21980796.209   -11890180.142 4  -9265061.529 3
  24329331.652    19530987.580 2  15218935.259 1
  24386052.390      276409.728 2    215383.427 1
 91  5 28 19  4 30.0020000  0  6 19 06 11 02 18 16
  22001618.001     7128367.830 3   5554567.634 2
  23240251.008    -6778137.736 2  -5281655.083 1
  23817321.210    -1826383.540 3  -1423151.718 1
  21978610.727   -11901645.767 4  -9273995.775 3
  24341940.325    19597230.201 2  15270552.799 1
  24391781.418      306493.412 2    238825.206 1
 91  5 28 19  4 45.0020000  0  6 19 06 11 02 18 16
  22007877.961     7161286.445 3   5580218.470 2
  23236725.750    -6796614.249 2  -5296052.354 2
  23822629.034    -1798486.584 2  -1401413.846 1
  21976451.620   -11913018.995 4  -9282858.027 3
  24354562.189    19663522.848 2  15322209.299 1
  24397527.243      336702.266 2    262364.544 1
 91  5 28 19  5  0.0020000  0  6 19 06 11 02 18 16
  22014163.111     7194276.696 3   5605925.148 2
  23233213.981    -6815059.751 2  -5310425.483 1
  23827974.036    -1770430.433 3  -1379551.936 1
  21974300.008   -11924301.127 4  -9291649.292 3
  24367178.950    19729863.816 2  15373903.466 1
  24403297.646      367034.512 2    286000.043 1
 91  5 28 19  5 15.0020000  0  6 19 06 11 02 18 16
  22020448.863     7227339.102 3   5631688.033 2
  23229711.207    -6833473.757 2  -5324774.058 2
  23833337.927    -1742214.780 3  -1357565.725 1
  21972176.578   -11935491.650 4  -9300369.180 3
  24379816.406    19796253.147 2  15425635.359 1
  24409095.935      397490.622 2    309731.995 1
 91  5 28 19  5 30.0020000  0  6 19 06 11 02 18 16
  22026754.394     7260475.137 3   5657508.303 2
  23226217.124    -6851854.574 2  -5339096.767 2
  23838737.487    -1713838.215 3  -1335454.139 1
  21970061.246   -11946588.901 4  -9309016.379 3
  24392452.955    19862692.368 2  15477406.096 1
  24414917.004      428071.751 2    333561.421 1
 91  5 28 19  5 45.0020000  0  6 19 06 11 02 18 16
  22033073.118     7293681.435 3   5683383.306 2
  23222724.541    -6870205.707 2  -5353396.344 1
  23844171.825    -1685304.256 3  -1313219.925 1
  21967966.591   -11957596.244 4  -9317593.531 3
  24405112.591    19929177.707 2  15529212.755 1
  24420759.363      458774.387 2    357485.503 1
 91  5 28 19  6  0.0020000  0  6 19 06 11 02 18 16
  22039411.630     7326960.854 3   5709315.301 2
  23219234.960    -6888524.160 2  -5367670.465 1
  23849631.344    -1656610.156 3  -1290860.931 1
  21965892.929   -11968511.053 4  -9326098.568 3
  24417769.827    19995711.688 2  15581057.340 1
  24426626.598      489600.743 2    381505.948 1
 91  5 28 19  6 15.0020000  0  6 19 06 11 02 18 16
  22045752.542     7360312.439 3   5735303.526 2
  23215756.469    -6906811.094 2  -5381920.040 2
  23855119.342    -1627757.154 3  -1268378.116 1
  21963832.757   -11979334.372 4  -9334532.319 3
  24430441.756    20062293.038 2  15632938.817 1
  24432518.716      520549.868 2    405622.131 1
 91  5 28 19  6 30.0020000  0  6 19 06 11 02 18 16
  22052120.135     7393736.723 3   5761348.411 2
  23212283.369    -6925065.860 2  -5396144.508 1
  23860643.025    -1598744.928 3  -1245771.227 1
  21961790.872   -11990065.605 4  -9342894.323 3
  24443114.881    20128922.086 2  15684857.465 1
  24438429.724      551621.841 2    429833.961 1
 91  5 28 19  6 45.0020000  0  6 19 06 11 02 18 16
  22058488.331     7427232.729 3   5787449.165 2
  23208819.266    -6943289.261 2  -5410344.565 1
  23866191.583    -1569574.377 3  -1223040.931 1
  21959763.375   -12000705.551 4  -9351185.177 3
  24455807.498    20195597.285 2  15736812.079 1
  24444369.211      582815.292 2    454140.516 1
 91  5 28 19  7  0.0020000  0  6 19 06 11 02 18 16
  22064875.407     7460799.135 3   5813604.774 2
  23205355.764    -6961482.758 2  -5424521.308 1
  23871769.816    -1540247.197 3  -1200188.627 1
  21957756.565   -12011255.698 4  -9359406.073 3
  24468503.709    20262317.243 2  15788801.556 1
  24450320.093      614128.597 2    478540.507 1
 91  5 28 19  7 15.0020000  0  6 19 06 11 02 18 16
  22071275.370     7494430.889 3   5839811.319 2
  23201899.757    -6979651.239 2  -5438678.576 1
  23877383.132    -1510768.516 2  -1177218.252 1
  21955766.542   -12021721.050 4  -9367560.881 3
  24481206.516    20329076.586 2  15840821.721 1
  24456300.658      645556.757 2    503029.929 1
 91  5 28 19  7 30.0020000  0  6 19 06 11 02 18 16
  22077690.629     7528131.283 3   5866071.348 2
  23198449.447    -6997791.545 2  -5452813.881 1
  23883017.432    -1481135.257 2  -1154127.440 1
  21953790.610   -12032098.340 4  -9375647.074 3
  24493923.406    20395878.359 2  15892874.970 1
  24462307.896      677102.676 2    527611.106 1
 91  5 28 19  7 45.0020000  0  6 19 06 11 02 18 16
  22084117.884     7561900.122 3   5892384.700 2
  23195004.836    -7015903.618 2  -5466927.156 1
  23888688.308    -1451347.729 3  -1130916.431 1
  21951833.263   -12042387.765 4  -9383664.807 3
  24506643.306    20462721.946 2  15944960.782 1
  24468330.428      708765.729 2    552283.628 1
 91  5 28 19  8  0.0020000  0  6 19 06 11 02 18 16
  22090553.830     7595735.361 3   5918749.799 2
  23191557.222    -7033989.661 2  -5481020.202 1
  23894390.359    -1421408.150 3  -1107586.927 1
  21949891.507   -12052591.459 4  -9391615.732 3
  24519369.497    20529605.148 2  15997077.467 1
  24474379.642      740543.798 2    577045.683 1
 91  5 28 19  8 15.0020000  0  6 19 06 11 02 18 16
  22097005.961     7629639.609 3   5945168.676 2
  23188121.597    -7052046.803 2  -5495090.692 2
  23900110.994    -1391313.959 3  -1084136.931 1
  21947965.640   -12062706.652 4  -9399497.700 3
  24532104.378    20596530.370 2  16049226.859 1
  24480444.745      772439.069 2    601899.041 1
 91  5 28 19  8 30.0020000  0  6 19 06 11 02 18 16
  22103469.190     7663612.142 3   5971640.743 2
  23184688.677    -7070075.868 3  -5509139.317 1
  23905873.911    -1361066.274 3  -1060567.346 1
  21946054.466   -12072734.277 4  -9407311.426 3
  24544841.658    20663496.347 2  16101408.057 1
  24486539.224      804450.592 2    626843.024 1
 91  5 28 19  8 45.0020000  0  6 19 06 11 02 18 16
  22109948.901     7697655.212 3   5998167.794 2
  23181266.846    -7088074.554 2  -5523164.250 1
  23911658.405    -1330662.901 3  -1036876.402 1
  21944168.167   -12082672.032 4  -9415055.125 3
  24557595.734    20730505.163 2  16153622.634 1
  24492654.688      836580.461 2    651879.194 1
 91  5 28 19  9  0.0020000  0  6 19 06 11 02 18 16
  22116444.203     7731772.830 3   6024752.931 2
  23177846.211    -7106038.891 3  -5537162.449 1
  23917461.187    -1300099.946 2  -1013061.174 1
  21942289.669   -12092515.793 4  -9422725.583 3
  24570356.093    20797560.487 2  16205873.452 1
  24498788.440      868832.218 2    677010.445 1
 91  5 28 19  9 15.0020000  0  6 19 06 11 02 18 16
  22122946.704     7765965.544 3   6051396.591 2
  23174436.674    -7123968.395 3  -5551133.479 1
  23923319.731    -1269377.285 3   -989121.489 2
  21940439.047   -12102265.297 4  -9430322.596 3
  24583122.463    20864662.337 2  16258160.502 1
  24504954.570      901205.952 2    702236.666 1
 91  5 28 19  9 30.0020000  0  6 19 06 11 02 18 16
  22129466.891     7800232.368 3   6078097.981 2
  23171031.028    -7141863.895 2  -5565078.038 1
  23929199.861    -1238495.975 3   -965058.156 1
  21938599.524   -12111921.388 4  -9437846.824 3
  24595901.109    20931809.717 2  16310483.034 1
  24511140.192      933700.409 2    727556.990 1
 91  5 28 19  9 45.0020000  0  6 19 06 11 02 18 16
  22136005.662     7834576.033 3   6104859.249 2
  23167629.885    -7159722.417 3  -5578993.797 2
  23935099.771    -1207453.404 3   -940869.179 2
  21936780.382   -12121481.312 4  -9445296.109 3
  24608686.063    20999005.051 2  16362842.937 1
  24517346.493      966318.105 2    752973.285 1
 91  5 28 19 10  0.0020000  0  6 19 06 11 02 18 16
  22142552.530     7868999.623 3   6131682.795 2
  23164241.332    -7177541.100 3  -5592878.468 1
  23941038.665    -1176246.695 3   -916552.290 1
  21934978.028   -12130942.182 4  -9452668.213 3
  24621487.796    21066251.021 2  16415242.315 1
  24523574.685      999061.747 2    778487.817 1
 91  5 28 19 10 15.0020000  0  6 19 06 11 02 18 16
  22149121.586     7903506.646 3   6158571.365 2
  23160859.968    -7195316.442 3  -5606729.378 1
  23947015.329    -1144872.563 3   -892104.948 1
  21933201.761   -12140300.406 4  -9459960.328 3
  24634286.536    21133550.857 2  16467683.670 1
  24529828.957     1031934.479 2    804102.890 1
 91  5 28 19 10 30.0020000  0  6 19 06 11 02 18 16
  22155712.219     7938100.809 3   6185527.831 2
  23157483.107    -7213044.579 3  -5620543.513 1
  23953015.971    -1113327.452 3   -867524.385 2
  21931440.781   -12149552.027 4  -9467169.387 3
  24647105.963    21200908.035 2  16520169.698 1
  24536105.407     1064939.984 2    829821.343 1
 91  5 28 19 10 45.0020000  0  6 19 06 11 02 18 16
  22162305.251     7972780.951 3   6212551.298 2
  23154117.335    -7230726.775 2  -5634321.859 1
  23959049.898    -1081612.799 3   -842811.706 1
  21929698.386   -12158698.620 4  -9474296.601 3
  24659937.082    21268321.043 2  16572699.196 1
  24542416.636     1098076.802 2    855642.208 1
 91  5 28 19 11  0.0020000  0  6 19 06 11 02 18 16
  22168915.376     8007545.431 3   6239640.482 2
  23150759.660    -7248364.500 2  -5648065.534 1
  23965119.197    -1049730.456 3   -817968.356 2
  21927980.874   -12167741.583 4  -9481343.062 3
  24672777.493    21335787.916 2  16625270.707 1
  24548744.356     1131342.926 2    881563.806 1
 91  5 28 19 11 15.0020000  0  6 19 06 11 02 18 16
  22175550.987     8042393.642 3   6266794.901 2
  23147417.280    -7265958.429 3  -5661775.090 2
  23971214.576    -1017681.087 3   -792994.872 2
  21926275.656   -12176681.608 4  -9488309.311 3
  24685626.298    21403307.883 2  16677883.520 1
  24555103.555     1164737.131 2    907585.197 1
 91  5 28 19 11 30.0020000  0  6 19 06 11 02 18 16
  22182201.283     8077329.518 3   6294017.642 2
  23144081.488    -7283504.475 3  -5675447.345 1
  23977344.427     -985461.073 3   -767888.405 2
  21924598.917   -12185514.859 4  -9495192.354 3
  24698487.990    21470884.518 2  16730540.593 1
  24561483.739     1198263.390 2    933709.462 1
 91  5 28 19 11 45.0020000  0  6 19 06 11 02 18 16
  22188861.167     8112343.892 3   6321301.550 2
  23140743.593    -7301011.834 2  -5689089.438 2
  23983504.563     -953079.711 3   -742656.218 1
  21922932.073   -12194250.427 4  -9501999.288 3
  24711357.787    21538508.282 2  16783234.296 1
  24567881.006     1231911.992 2    959929.091 1
 91  5 28 19 12  0.0020000  0  6 19 06 11 02 18 16
  22195540.543     8147437.721 3   6348647.372 2
  23137419.196    -7318479.308 3  -5702700.448 2
  23989702.174     -920536.047 3   -717297.553 1
  21921290.408   -12202887.229 4  -9508729.263 3
  24724235.367    21606179.998 2  16835965.395 1
  24574307.660     1265683.900 2    986244.850 1
 91  5 28 19 12 15.0020000  0  6 19 06 11 02 18 16
  22202233.112     8182605.715 3   6376050.965 2
  23134108.287    -7335912.436 3  -5716284.705 2
  23995919.870     -887835.860 3   -691816.916 2
  21919664.929   -12211430.874 4  -9515386.650 3
  24737121.943    21673894.060 2  16888729.498 1
  24580756.798     1299573.440 2   1012652.179 1
 91  5 28 19 12 30.0020000  0  6 19 06 11 02 18 16
  22208938.567     8217845.710 3   6403510.676 2
  23130794.683    -7353313.331 3  -5729843.830 1
  24002178.635     -854981.523 3   -666216.154 1
  21918053.550   -12219883.588 4  -9521973.180 3
  24750016.921    21741647.783 2  16941524.472 1
  24587237.407     1333578.043 2   1039149.239 1
 91  5 28 19 12 45.0020000  0  6 19 06 11 02 18 16
  22215650.026     8253159.148 3   6431027.624 2
  23127488.277    -7370680.362 3  -5743376.583 2
  24008453.593     -821971.732 3   -640494.274 1
  21916469.140   -12228243.639 4  -9528487.505 3
  24762921.183    21809442.317 2  16994351.301 1
  24593722.222     1367698.956 2   1065736.875 1
 91  5 28 19 13  0.0020000  0  6 19 06 11 02 18 16
  22222396.254     8288545.775 3   6458601.595 2
  23124191.756    -7388013.753 3  -5756883.114 1
  24014774.115     -788806.900 3   -614651.576 1
  21914891.640   -12236511.363 4  -9534929.885 3
  24775822.757    21877277.255 2  17047209.601 1
  24600237.313     1401935.457 2   1092414.609 1
 91  5 28 19 13 15.0020000  0  6 19 06 11 02 18 16
  22229137.988     8323998.032 3   6486226.699 2
  23120901.230    -7405320.958 3  -5770369.246 1
  24021107.235     -755494.683 2   -588694.046 1
  21913332.420   -12244694.368 4  -9541306.250 3
  24788737.811    21945144.882 2  17100093.384 1
  24606769.785     1436280.119 2   1119176.625 1
 91  5 28 19 13 30.0020000  0  6 19 06 11 02 18 16
  22235895.306     8359516.905 3   6513903.719 2
  23117608.016    -7422601.086 3  -5783834.289 1
  24027467.927     -722034.454 2   -562621.166 1
  21911792.386   -12252791.872 4  -9547615.995 3
  24801655.570    22013045.646 2  17153002.988 1
  24613328.345     1470732.757 2   1146022.762 1
 91  5 28 19 13 45.0020000  0  6 19 06 11 02 18 16
  22242667.622     8395099.289 3   6541630.218 2
  23114323.187    -7439857.066 3  -5797280.509 2
  24033862.201     -688429.433 2   -536435.467 1
  21910268.240   -12260806.774 4  -9553861.378 3
  24814588.921    22080976.291 2  17205935.806 1
  24619905.192     1505290.582 2   1172950.924 1
 91  5 28 19 14  0.0020000  0  6 19 06 11 02 18 16
  22249453.122     8430744.813 3   6569405.933 2
  23111047.353    -7457089.257 3  -5810708.186 2
  24040282.555     -654680.215 2   -510137.417 1
  21908759.381   -12268739.618 4  -9560042.814 3
  24827518.364    22148936.252 2  17258891.541 1
  24626498.827     1539953.079 2   1199960.581 1
 91  5 28 19 14 15.0020000  0  6 19 06 11 02 18 16
  22256249.118     8466455.497 3   6597232.411 2
  23107773.919    -7474295.658 3  -5824115.770 2
  24046738.891     -620784.999 2   -483725.599 1
  21907264.918   -12276588.218 4  -9566158.611 3
  24840454.707    22216927.387 2  17311871.570 1
  24633119.448     1574721.603 2   1227052.896 1
 91  5 28 19 14 30.0020000  0  6 19 06 11 02 18 16
  22263061.002     8502229.997 3   6625108.619 2
  23104503.783    -7491477.613 3  -5837504.313 2
  24053214.405     -586745.471 2   -457201.348 1
  21905786.640   -12284354.206 4  -9572210.026 3
  24853402.751    22284947.551 2  17364874.191 1
  24639753.550     1609594.350 2   1254226.450 1
 91  5 28 19 14 45.0020000  0  6 19 06 11 02 18 16
  22269872.887     8538064.374 3   6653031.480 2
  23101236.344    -7508639.076 3  -5850876.873 2
  24059721.103     -552565.678 2   -430567.800 1
  21904328.151   -12292041.586 4  -9578200.185 3
  24866343.885    22352992.610 2  17417896.221 1
  24646414.045     1644567.361 2   1281478.039 1
 91  5 28 19 15  0.0020000  0  6 19 06 11 02 18 16
  22276706.959     8573966.036 3   6681006.770 2
  23097980.002    -7525772.475 3  -5864227.583 1
  24066256.881     -518238.418 3   -403819.329 1
  21902875.054   -12299642.817 4  -9584123.230 3
  24879300.620    22421069.703 2  17470943.192 1
  24653080.831     1679647.504 2   1308813.158 1
 91  5 28 19 15 15.0030000  0  6 19 06 11 02 18 16
  22283548.818     8609931.658 3   6709031.914 2
  23094714.659    -7542884.723 3  -5877561.802 2
  24072812.739     -483767.300 2   -376958.765 2
  21901445.649   -12307164.178 4  -9589984.043 3
  24892265.445    22489177.405 2  17524014.023 1
  24659779.388     1714831.285 2   1336228.985 1
 91  5 28 19 15 30.0030000  0  6 19 06 11 02 18 16
  22290410.767     8645953.069 3   6737100.513 2
  23091467.008    -7559976.922 3  -5890880.410 2
  24079399.481     -449160.752 3   -349992.631 1
  21900031.527   -12314608.158 4  -9595784.539 3
  24905227.868    22557302.960 2  17577098.816 1
  24666488.743     1750109.975 2   1363718.850 1
 91  5 28 19 15 45.0030000  0  6 19 06 11 02 18 16
  22297272.123     8682036.338 3   6765217.315 2
  23088216.059    -7577046.395 3  -5904181.286 1
  24086014.396     -414412.823 3   -322916.363 1
  21898625.798   -12321971.452 4  -9601522.169 3
  24918190.597    22625454.216 2  17630203.566 1
  24673219.982     1785489.231 2   1391287.057 1
 91  5 28 19 16  0.0030000  0  6 19 06 11 02 18 16
  22304146.662     8718183.436 3   6793383.866 2
  23084978.904    -7594091.052 3  -5917462.846 1
  24092655.399     -379521.715 3   -295728.504 1
  21897245.251   -12329252.115 4  -9607195.418 3
  24931174.903    22693632.950 2  17683329.730 1
  24679982.107     1820971.028 2   1418935.150 1
 91  5 28 19 16 15.0030000  0  6 19 06 11 02 18 16
  22311040.990     8754391.652 3   6821598.036 2
  23081733.949    -7611113.530 3  -5930727.104 2
  24099317.692     -344490.381 3   -268431.429 1
  21895872.800   -12336452.959 4  -9612806.467 3
  24944143.329    22761836.287 2  17736475.034 1
  24686740.925     1856552.754 2   1446661.082 1
 91  5 28 19 16 30.0030000  0  6 19 06 11 02 18 16
  22317945.509     8790661.179 3   6849859.971 2
  23078505.187    -7628113.538 3  -5943973.856 2
  24106010.557     -309318.809 3   -241025.036 1
  21894515.941   -12343573.674 4  -9618355.077 3
  24957131.840    22830064.078 2  17789639.496 1
  24693528.824     1892233.821 2   1474464.461 1
 91  5 28 19 16 45.0030000  0  6 19 06 11 02 18 16
  22324856.921     8826991.354 3   6878169.172 2
  23075269.524    -7645091.695 3  -5957203.592 2
  24112727.102     -274007.815 2   -213510.021 1
  21893181.269   -12350614.985 4  -9623841.821 3
  24970123.946    22898315.480 2  17842822.258 1
  24700345.804     1928013.468 2   1502344.655 1
 91  5 28 19 17  0.0030000  0  6 19 06 11 02 18 16
  22331784.526     8863387.386 3   6906529.689 2
  23072043.755    -7662042.704 3  -5970412.182 2
  24119480.529     -238552.423 3   -185882.498 1
  21891853.482   -12357571.678 4  -9629262.624 3
  24983110.354    22966595.319 2  17896027.161 1
  24707171.178     1963896.368 2   1530305.293 1
 91  5 28 19 17 15.0030000  0  6 19 06 11 02 18 16
  22338716.931     8899849.886 3   6934942.003 2
  23068822.785    -7678966.202 3  -5983599.319 1
  24126255.541     -202952.499 3   -158142.343 1
  21890546.688   -12364443.430 4  -9634617.241 3
  24996108.751    23034903.601 2  17949254.294 1
  24714031.033     1999882.779 2   1558346.574 1
 91  5 28 19 17 30.0030000  0  6 19 06 11 02 18 16
  22345674.210     8936371.648 3   6963400.477 2
  23065609.912    -7695869.104 3  -5996770.423 2
  24133051.833     -167215.225 2   -130295.167 2
  21889254.883   -12371237.334 4  -9639911.190 3
  25009112.854    23103232.877 2  18002497.812 1
  24720886.386     2035965.445 2   1586462.879 1
 91  5 28 19 17 45.0030000  0  6 19 06 11 02 18 16
  22352630.897     8972954.367 3   6991906.468 2
  23062396.132    -7712749.599 3  -6009924.051 1
  24139868.517     -131339.025 2   -102339.726 2
  21887977.466   -12377951.524 4  -9645143.024 3
  25022124.146    23171584.802 2  18055758.867 1
  24727772.024     2072145.684 2   1614655.132 1
 91  5 28 19 18  0.0030000  0  6 19 06 11 02 18 16
  22359607.066     9009599.983 3   7020461.475 2
  23059185.362    -7729605.826 3  -6023058.767 2
  24146733.467      -95322.302 3    -74274.782 1
  21886716.845   -12384584.192 4  -9650311.344 3
  25035124.646    23239960.957 2  18109038.889 1
  24734675.338     2108424.927 2   1642924.693 1
 91  5 28 19 18 15.0030000  0  6 19 06 11 02 18 16
  22366589.535     9046309.732 3   7049066.444 2
  23055984.774    -7746436.655 3  -6036173.683 1
  24153616.104      -59164.304 2    -46099.754 1
  21885467.610   -12391134.317 4  -9655415.331 3
  25048152.428    23308361.893 2  18162338.200 1
  24741605.047     2144803.876 2   1671271.925
 91  5 28 19 18 30.0030000  0  6 19 06 11 02 18 16
  22373586.689     9083085.073 3   7077722.539 2
  23052780.591    -7763240.442 3  -6049267.549 2
  24160517.019      -22863.693 2    -17813.596 2
  21884235.756   -12397600.273 4  -9660453.746 3
  25061169.715    23376789.177 2  18215658.030 1
  24748542.843     2181283.900 2   1699697.824 1
 91  5 28 19 18 45.0030000  0  6 19 06 11 02 18 16
  22380602.130     9119925.272 3   7106429.148 2
  23049591.398    -7780017.780 3  -6062340.813 2
  24167455.121       13578.661 2     10582.979 1
  21883023.402   -12403982.804 4  -9665427.153 3
  25074194.200    23445242.010 2  18268997.789 1
  24755508.516     2217863.996 2   1728201.675 1
 91  5 28 19 19  0.0030000  0  6 19 06 11 02 18 16
  22387622.370     9156835.311 3   7135190.188 2
  23046401.611    -7796763.549 3  -6075389.455 2
  24174422.295       50167.521 2     39093.733 1
  21881826.325   -12410276.980 4  -9670331.704 3
  25087223.475    23513724.872 2  18322360.997 1
  24762489.485     2254548.865 2   1756787.254 1
 91  5 28 19 19 15.0030000  0  6 19 06 11 02 18 16
  22394656.404     9193811.060 3   7164002.428 2
  23043231.300    -7813482.024 3  -6088416.839 2
  24181410.758       86898.349 2     67715.098 1
  21880643.646   -12416487.189 4  -9675170.823 3
  25100263.246    23582233.279 2  18375744.041 1
  24769481.848     2291333.869 2   1785450.871 1
 91  5 28 19 19 30.0030000  0  6 19 06 11 02 18 16
  22401706.921     9230846.667 3   7192861.325 2
  23040053.501    -7830178.888 3  -6101427.374 2
  24188428.599      123765.184 2     96442.451 2
  21879474.752   -12422619.150 4  -9679948.981 3
  25113300.923    23650761.078 2  18429142.214 1
  24776495.492     2328212.810 2   1814187.688 1
 91  5 28 19 19 45.0030000  0  6 19 06 11 02 18 16
  22408768.535     9267945.780 3   7221769.687 2
  23036875.703    -7846850.402 3  -6114418.188 1
  24195468.025      160771.481 2    125278.456 1
  21878327.147   -12428669.302 4  -9684663.382 3
  25126347.892    23719311.641 2  18482558.123 1
  24783546.907     2365189.070 2   1843000.303 1
 91  5 28 19 20  0.0030000  0  6 19 06 11 02 18 16
  22415835.838     9305109.363 3   7250728.306 2
  23033709.292    -7863495.549 3  -6127388.423 2
  24202531.140      197918.098 2    154223.875 1
  21877190.640   -12434636.560 4  -9689313.208 3
  25139396.659    23787885.753 2  18535992.392 1
  24790594.430     2402263.580 2   1871889.359
 91  5 28 19 20 15.0030000  0  6 19 06 11 02 18 16
  22422927.127     9342345.004 3   7279743.060 2
  23030544.983    -7880106.645 3  -6140332.130 2
  24209630.823      235212.289 2    183284.231 1
  21876072.709   -12440513.333 4  -9693892.515 3
  25152458.313    23856490.384 2  18589450.430 1
  24797669.228     2439443.458 2   1900860.684 1
 91  5 28 19 20 30.0030000  0  6 19 06 11 02 18 16
  22430026.818     9379646.526 3   7308809.161 2
  23027395.969    -7896689.800 3  -6153254.073 2
  24216758.983      272647.650 2    212454.599 2
  21874970.371   -12446305.883 4  -9698406.190 3
  25165507.682    23925119.549 2  18642927.554 1
  24804762.018     2476722.133 2   1929908.989 2
 91  5 28 19 20 45.0030000  0  6 19 06 11 02 18 16
  22437133.096     9417019.612 3   7337931.002 2
  23024245.445    -7913239.475 3  -6166149.920 2
  24223908.434      310229.507 2    241739.128 1
  21873885.421   -12452008.673 4  -9702849.926 3
  25178575.635    23993778.174 2  18696427.798 1
  24811879.394     2514105.011 2   1959038.388 1
 91  5 28 19 21  0.0030000  0  6 19 06 11 02 18 16
  22444260.960     9454465.925 3   7367109.930 2
  23021097.025    -7929753.820 3  -6179018.237 2
  24231084.871      347959.448 2    271139.044 1
  21872813.070   -12457620.016 4  -9707222.398 3
  25191651.083    24062467.723 2  18749951.922 1
  24819007.259     2551593.402 2   1988250.056 1
 91  5 28 19 21 15.0030000  0  6 19 06 11 02 18 16
  22451396.922     9491983.200 3   7396344.152 2
  23017956.404    -7946235.171 3  -6191860.821 2
  24238303.275      385834.681 2    300652.156 1
  21871765.289   -12463142.408 4  -9711525.572 3
  25204723.233    24131185.639 2  18803498.252 1
  24826166.307     2589184.412 2   2017541.703 1
 91  5 28 19 21 30.0030000  0  6 19 06 11 02 18 16
  22458549.068     9529564.873 3   7425628.525 2
  23014829.866    -7962689.727 3  -6204682.568 2
  24245529.472      423848.676 2    330273.411 1
  21870730.709   -12468581.986 4  -9715764.211 3
  25217806.778    24199925.174 2  18857061.434 1
  24833331.043     2626871.428 2   2046908.112 1
 91  5 28 19 21 45.0030000  0  6 19 06 11 02 18 16
  22465715.907     9567214.609 3   7454965.956 2
  23011705.431    -7979113.985 3  -6217480.688 2
  24252788.640      462004.655 2    360005.275 1
  21869711.110   -12473935.257 4  -9719935.593 3
  25230890.620    24268689.687 2  18910644.058 1
  24840525.759     2664657.579 2   2076351.851 1
 91  5 28 19 22  0.0030000  0  6 19 06 11 02 18 16
  22472893.539     9604936.642 3   7484359.706 2
  23008585.192    -7995503.560 3  -6230251.782 2
  24260080.493      500306.740 2    389851.022 1
  21868711.004   -12479198.026 4  -9724036.457 3
  25243984.653    24337483.198 2  18964249.287 1
  24847737.873     2702547.171 2   2105876.080 1
 91  5 28 19 22 15.0030000  0  6 19 06 11 02 18 16
  22480083.762     9642731.073 3   7513809.880 2
  23005479.638    -8011858.371 3  -6242995.797 2
  24267405.623      538754.682 2    419810.430 1
  21867724.988   -12484370.456 4  -9728066.915 3
  25257078.991    24406305.458 2  19017876.859 1
  24854968.563     2740539.531 2   2135480.522 1
 91  5 28 19 22 30.0030000  0  6 19 06 11 02 18 16
  22487285.074     9680595.290 3   7543314.442 2
  23002373.491    -8028180.898 3  -6255714.618 2
  24274740.944      577345.646 2    449881.265 1
  21866760.558   -12489455.197 4  -9732029.058 3
  25270181.417    24475153.398 2  19071524.497 1
  24862211.851     2778631.748 2   2165162.704 1
 91  5 28 19 22 45.0030000  0  6 19 06 11 02 18 16
  22494504.378     9718526.394 3   7572871.113 2
  22999269.734    -8044473.995 3  -6268410.553 2
  24282111.340      616076.426 2    480061.034 1
  21865806.319   -12494455.039 4  -9735925.041 3
  25283289.846    24544024.009 2  19125189.770 1
  24869484.814     2816820.836 2   2194920.356 1
 91  5 28 19 23  0.0030000  0  6 19 06 11 02 18 16
  22501744.063     9756526.057 3   7602481.223 2
  22996174.083    -8060735.936 3  -6281082.172 2
  24289504.526      654948.527 2    510350.963 1
  21864877.557   -12499368.530 4  -9739753.742 3
  25296397.970    24612918.595 2  19178873.713 1
  24876771.266     2855107.857 2   2224754.370 1
 91  5 28 19 23 15.0030000  0  6 19 06 11 02 18 16
  22508982.553     9794591.282 3   7632142.398 2
  22993083.824    -8076969.639 3  -6293731.807 2
  24296930.083      693958.850 2    540748.563 1
  21863953.603   -12504198.416 4  -9743517.295 3
  25309515.089    24681833.982 2  19232573.901 1
  24884071.216     2893489.965 2   2254662.480 1
 91  5 28 19 23 30.0030000  0  6 19 06 11 02 18 16
  22516237.237     9832719.241 3   7661852.473 2
  22990000.457    -8093177.720 3  -6306361.477 2
  24304381.430      733104.139 2    571251.361 1
  21863046.131   -12508947.539 4  -9747217.916 3
  25322632.505    24750766.875 2  19286287.709 1
  24891394.549     2931963.848 2   2284642.045 1
 91  5 28 19 23 45.0030000  0  6 19 06 11 02 18 16
  22523508.097     9870914.525 3   7691615.003 2
  22986921.585    -8109355.653 3  -6318967.645 2
  24311861.850      772388.717 3    601862.676 1
  21862160.244   -12513611.175 4  -9750851.921 3
  25335754.126    24819721.550 2  19340018.463 1
  24898736.161     2970533.512 2   2314696.331 1
 91  5 28 19 24  0.0030000  0  6 19 06 11 02 18 16
  22530787.062     9909171.218 3   7721425.378 2
  22983849.011    -8125509.174 3  -6331554.808 2
  24319359.956      811806.481 2    632577.778 1
  21861289.644   -12518195.498 4  -9754424.125 3
  25348883.234    24888691.867 2  19393761.554 1
  24906082.877     3009192.723 2   2344820.253 1
 91  5 28 19 24 15.0030000  0  6 19 06 11 02 18 16
  22538077.711     9947494.730 3   7751287.836 2
  22980776.141    -8141632.879 3  -6344118.722 2
  24326888.346      851362.626 2    663400.724 1
  21860434.034   -12522695.193 4  -9757930.382 3
  25362009.942    24957683.269 2  19447520.906 1
  24913467.966     3047946.750 2   2375018.152 1
 91  5 28 19 24 30.0030000  0  6 19 06 11 02 18 16
  22545384.859     9985882.613 3   7781200.407 2
  22977717.956    -8157729.396 3  -6356661.446 2
  24334434.719      891054.198 2    694329.177 1
  21859590.420   -12527113.090 4  -9761372.903 3
  25375140.559    25026692.481 2  19501294.233 1
  24920858.447     3086792.303 2   2405287.336 1
 91  5 28 19 24 45.0030000  0  6 19 06 11 02 18 16
  22552702.189    10024338.110 3   7811165.712 2
  22974661.576    -8173795.258 3  -6369180.292 2
  24342018.575      930884.438 2    725365.697 1
  21858767.791   -12531445.647 4  -9764748.926 3
  25388273.567    25095722.610 2  19555083.867 1
  24928270.820     3125732.682 2   2435630.437 1
 91  5 28 19 25  0.0030000  0  6 19 06 11 02 18 16
  22560033.915    10062856.549 3   7841180.062 2
  22971605.485    -8189834.927 3  -6381678.742 2
  24349616.810      970848.353 2    756506.371 1
  21857958.651   -12535697.565 4  -9768062.117 3
  25401416.163    25164768.871 2  19608886.007 1
  24935702.074     3164762.960 2   2466043.548 1
 91  5 28 19 25 15.0030000  0  6 19 06 11 02 18 16
  22567378.825    10101441.962 3   7871246.574 2
  22968561.094    -8205844.178 3  -6394153.485 2
  24357248.924     1010949.891 2    787754.261 1
  21857167.501   -12539864.673 4  -9771309.222 3
  25414551.570    25233835.291 2  19662703.852 1
  24943146.520     3203886.837 2   2496529.635 1
 91  5 28 19 25 30.0030000  0  6 19 06 11 02 18 16
  22574736.936    10140094.053 3   7901365.060 2
  22965523.595    -8221823.286 3  -6406604.716 2
  24364911.027     1051188.439 2    819108.944 1
  21856390.434   -12543947.262 4  -9774490.459 3
  25427708.267    25302920.937 2  19716536.706 1
  24950602.658     3243103.669 2   2527088.162 1
 91  5 28 19 25 45.0030000  0  6 19 06 11 02 18 16
  22582099.838    10178814.765 3   7931537.016 2
  22962489.098    -8237770.340 3  -6419031.006 2
  24372588.110     1091565.688 2    850571.715 1
  21855627.467   -12547943.638 4  -9777604.517 3
  25440849.668    25372027.343 2  19770385.753 1
  24958089.970     3282414.849 2   2557720.205 1
 91  5 28 19 26  0.0030000  0  6 19 06 11 02 18 16
  22589477.127    10217605.191 3   7961763.286 2
  22959458.798    -8253684.183 3  -6431431.391 2
  24380295.776     1132082.431 2    882143.163 1
  21854885.475   -12551852.695 4  -9780650.544 3
  25454006.356    25441155.471 2  19824251.766
  24965582.989     3321821.486 2   2588426.597 1
 91  5 28 19 26 15.0030000  0  6 19 06 11 02 18 16
  22596873.009    10256463.728 3   7992042.637 2
  22956439.291    -8269566.269 3  -6443807.038 2
  24388041.814     1172736.725 2    913821.787 2
  21854156.684   -12555675.988 4  -9783629.733 3
  25467164.553    25510303.429 2  19878133.105 1
  24973102.078     3361321.328 2   2619205.641 1
 91  5 28 19 26 30.0030000  0  6 19 06 11 02 18 16
  22604290.774    10295393.720 2   8022377.671 2
  22953417.079    -8285413.200 3  -6456155.286 2
  24395794.745     1213531.791 2    945610.120 1
  21853445.876   -12559410.307 4  -9786539.596 3
  25480328.439    25579474.140 2  19932032.206 1
  24980629.867     3400917.501 2   2650059.713 1
 91  5 28 19 26 45.0030000  0  6 19 06 11 02 18 16
  22611704.045    10334388.453 3   8052763.135 2
  22950408.060    -8301231.637 3  -6468481.338 2
  24403595.943     1254460.543 2    977502.597 1
  21852754.254   -12563062.456 4  -9789385.427 3
  25493495.623    25648660.786 2  19985943.769 1
  24988187.940     3440602.692 2   2680983.184 1
 91  5 28 19 27  0.0030000  0  6 19 06 11 02 18 16
  22619139.495    10373453.316 2   8083203.250 2
  22947407.137    -8317016.002 3  -6480780.829 2
  24411399.236     1295528.046 2   1009503.208 1
  21852072.526   -12566627.062 4  -9792163.048 3
  25506677.194    25717868.320 2  20039871.672 1
  24995759.197     3480382.051 2   2711979.972 1
 91  5 28 19 27 15.0030000  0  6 19 06 11 02 18 16
  22626580.041    10412583.821 3   8113694.516 2
  22944404.417    -8332770.817 3  -6493057.301 2
  24419248.108     1336729.594 3   1041608.261 1
  21851408.781   -12570108.555 4  -9794875.900 3
  25519842.877    25787092.054 2  20093812.081 1
  25003337.948     3520250.948 2   2743046.588 1
 91  5 28 19 27 30.0030000  0  6 19 06 11 02 18 16
  22634045.480    10451781.780 3   8144238.345 2
  22941417.289    -8348494.072 3  -6505309.190 2
  24427114.657     1378066.827 2   1073819.048 1
  21850764.833   -12573505.178 4  -9797522.620 3
  25533017.556    25856333.631 2  20147766.410 1
  25010951.182     3560210.871 2   2774184.165 1
 91  5 28 19 27 45.0030000  0  6 19 06 11 02 18 16
  22641512.105    10491048.646 3   8174835.880 2
  22938429.558    -8364184.373 3  -6517535.389 2
  24435009.694     1419540.752 3   1106136.322 1
  21850129.872   -12576815.575 4  -9800102.155 3
  25546192.235    25925594.066 2  20201735.620 1
  25018569.205     3600262.718 2   2805393.290 1
 91  5 28 19 28  0.0030000  0  6 19 06 11 02 18 16
  22649006.023    10530388.562 2   8205490.309 2
  22935453.214    -8379837.508 3  -6529732.637 2
  24442919.119     1461155.168 2   1138563.098 1
  21849519.490   -12580035.608 4  -9802611.283 3
  25559377.114    25994877.096 2  20255722.213 1
  25026211.214     3640410.225 2   2836677.032 1
 91  5 28 19 28 15.0030000  0  6 19 06 11 02 18 16
  22656499.330    10569799.738 3   8236200.280 2
  22932480.474    -8395455.177 3  -6541902.239 2
  24450863.915     1502908.018 2   1171097.731 1
  21848927.404   -12583167.113 4  -9805051.421 3
  25572567.079    26064180.700 2  20309724.879 1
  25033865.516     3680651.573 2   2868033.812 1
 91  5 28 19 28 30.0030000  0  6 19 06 11 02 18 16
  22664016.630    10609279.104 3   8266963.398 2
  22929514.626    -8411040.203 3  -6554046.397 2
  24458837.801     1544796.201 2   1203737.829 1
  21848347.900   -12586213.118 4  -9807424.936 3
  25585757.053    26133501.779 2  20363741.206 1
  25041545.296     3720983.524 2   2899461.198 1
 91  5 28 19 28 45.0030000  0  6 19 06 11 02 18 16
  22671539.323    10648827.163 3   8297780.026 2
  22926556.875    -8426592.190 3  -6566164.827 2
  24466841.055     1586819.905 2   1236483.505 1
  21847779.494   -12589173.239 4  -9809731.530 3
  25598953.317    26202840.438 2  20417771.264 1
  25049231.375     3761405.448 2   2930958.780 1
 91  5 28 19 29  0.0030000  0  6 19 06 11 02 18 16
  22679081.499    10688440.556 2   8328647.576 2
  22923602.117    -8442114.262 3  -6578259.955 2
  24474852.110     1628975.464 2   1269331.968 1
  21847236.870   -12592050.819 4  -9811973.808 3
  25612152.871    26272192.973 2  20471812.084 1
  25056942.042     3801914.111 2   2962523.880 1
 91  5 28 19 29 15.0030000  0  6 19 06 11 02 18 16
  22686629.670    10728118.067 3   8359565.085 2
  22920652.463    -8457607.781 3  -6590332.822 2
  24482903.640     1671261.320 2   1302281.959 1
  21846702.946   -12594847.135 4  -9814152.757 3
  25625345.541    26341557.807 2  20525862.503 1
  25064667.690     3842507.975 2   2994155.440 1
 91  5 28 19 29 30.0030000  0  6 19 06 11 02 18 16
  22694188.642    10767857.915 3   8390531.176 2
  22917713.000    -8473074.245 3  -6602384.591 2
  24490978.851     1713675.503 2   1335331.921 2
  21846183.706   -12597564.054 4  -9816269.846 3
  25638556.499    26410932.895 2  20579920.903 1
  25072408.632     3883184.849 2   3025851.624 1
 91  5 28 19 29 45.0030000  0  6 19 06 11 02 18 16
  22701762.594    10807667.283 3   8421551.424 2
  22914773.834    -8488506.418 3  -6614409.659 2
  24499077.139     1756224.988 2   1368487.314 1
  21845686.043   -12600194.229 4  -9818319.338 3
  25651764.150    26480325.247 2  20633992.785 1
  25080167.261     3923951.603 2   3057617.786 1
 91  5 28 19 30  0.0030000  0  6 19 06 11 02 18 16
  22709358.735    10847541.865 2   8452622.487 2
  22911841.560    -8503908.263 3  -6626411.086 2
  24507194.623     1798905.189 2   1401744.600 1
  21845200.386   -12602742.019 4  -9820304.631 3
  25664969.707    26549730.382 2  20688074.468 1
  25087940.583     3964803.893 2   3089450.754 1
 91  5 28 19 30 15.0030000  0  6 19 06 11 02 18 16
  22716954.283    10887482.989 3   8483745.413 2
  22908919.181    -8519278.838 3  -6638388.146 2
  24515337.287     1841717.073 2   1435104.460 2
  21844728.210   -12605206.322 4  -9822224.868 3
  25678175.866    26619148.988 2  20742166.837 1
  25095728.589     4005742.212 2   3121350.642 1
 91  5 28 19 30 30.0030000  0  6 19 06 11 02 18 16
  22724570.204    10927496.340 3   8514924.599 2
  22906002.508    -8534612.155 3  -6650336.186 2
  24523507.226     1884665.979 2   1468571.115 1
  21844278.517   -12607581.543 4  -9824075.688 3
  25691391.623    26688586.447 2  20796273.811 1
  25103536.383     4046771.888 2   3153321.710 1
 91  5 28 19 30 45.0030000  0  6 19 06 11 02 18 16
  22732196.324    10967583.193 3   8546161.076 2
  22903092.422    -8549906.770 3  -6662254.055 2
  24531707.755     1927752.948 2   1502145.334 1
  21843842.620   -12609866.397 4  -9825856.092 3
  25704607.074    26758044.087 2  20850396.485 1
  25111359.770     4087893.932 2   3185364.780 1
 91  5 28 19 31  0.0030000  0  6 19 06 11 02 18 16
  22739838.935    11007742.391 3   8577453.916 2
  22900186.228    -8565163.848 3  -6674142.687 2
  24539942.452     1970976.507 2   1535825.977 1
  21843426.511   -12612062.097 4  -9827567.037 3
  25717828.816    26827520.327 2  20904533.753 1
  25119207.438     4129106.938 2   3217478.806 1
 91  5 28 19 31 15.0030000  0  6 19 06 11 02 18 16
  22747496.535    11047981.211 3   8608808.817 2
  22897292.337    -8580376.033 3  -6685996.330 2
  24548184.347     2014343.649 2   1569618.542 1
  21843025.984   -12614161.354 4  -9829202.822 3
  25731052.966    26897022.125 2  20958690.879 1
  25127066.196     4170417.998 2   3249669.160 1
 91  5 28 19 31 30.0030000  0  6 19 06 11 02 18 16
  22755165.225    11088298.557 3   8640224.913 2
  22894402.938    -8595544.150 3  -6697815.629 2
  24556462.512     2057853.113 2   1603521.958 1
  21842646.748   -12616164.978 4  -9830764.091 3
  25744282.500    26966548.286 2  21012867.006 1
  25134945.641     4211825.579 2   3281934.721 1
 91  5 28 19 31 45.0030000  0  6 19 06 11 02 18 16
  22762854.603    11128690.882 3   8671699.410 2
  22891524.027    -8610671.689 3  -6709603.321 2
  24564772.166     2101501.110 2   1637533.362 1
  21842283.399   -12618076.794 4  -9832253.816 3
  25757514.442    27036094.937 2  21067059.056 1
  25142846.672     4253325.710 2   3314272.367 1
 91  5 28 19 32  0.0030000  0  6 19 06 11 02 18 16
  22770554.171    11169160.728 3   8703234.319 2
  22888652.315    -8625756.038 3  -6721357.352 2
  24573115.089     2145290.024 2   1671654.571 1
  21841935.643   -12619894.077 4  -9833669.880 3
  25770753.878    27105664.340 2  21121268.856 1
  25150760.293     4294920.576 2   3346684.034 1
 91  5 28 19 32 15.0030000  0  6 19 06 11 02 18 16
  22778272.926    11209705.251 3   8734827.412 2
  22885788.097    -8640799.854 3  -6733079.789 2
  24581473.298     2189216.565 2   1705882.997 1
  21841606.470   -12621619.931 4  -9835014.705 3
  25783999.606    27175253.477 2  21175494.054 1
  25158689.498     4336607.020 2   3379166.890 1
 91  5 28 19 32 30.0030000  0  6 19 06 11 02 18 16
  22785999.184    11250320.235 3   8766475.414 2
  22882935.571    -8655807.445 3  -6744773.991 2
  24589852.797     2233276.287 2   1740215.210 2
  21841299.181   -12623258.863 4  -9836291.804 3
  25797244.740    27244857.680 2  21229730.931 1
  25166640.297     4378380.515 2   3411717.529 1
 91  5 28 19 32 45.0030000  0  6 19 06 11 02 18 16
  22793742.221    11291004.094 3   8798177.095 2
  22880086.047    -8670780.357 3  -6756441.189 2
  24598266.777     2277467.221 2   1774649.685 1
  21840999.395   -12624812.421 4  -9837502.373 3
  25810497.962    27314474.731 2  21283977.850 1
  25174612.377     4420238.896 2   3444334.412 1
 91  5 28 19 33  0.0030000  0  6 19 06 11 02 18 16
  22801502.045    11331756.162 2   8829931.913 2
  22877244.314    -8685718.862 3  -6768081.584 2
  24606697.239     2321788.508 2   1809185.719 1
  21840719.982   -12626281.073 4  -9838646.774 3
  25823746.996    27384103.947 2  21338234.292 1
  25182588.958     4462181.454 2   3477016.786 1
 91  5 28 19 33 15.0030000  0  6 19 06 11 02 18 16
  22809266.074    11372580.037 3   8861742.691 2
  22874411.271    -8700619.365 3  -6779692.350 2
  24615163.378     2366243.469 2   1843825.924 1
  21840457.365   -12627661.169 4  -9839722.176 3
  25836999.014    27453748.814 2  21392502.867 1
  25190586.219     4504211.184 2   3509767.238 1
 91  5 28 19 33 30.0030000  0  6 19 06 11 02 18 16
  22817045.390    11413477.458 2   8893610.779 2
  22871577.635    -8715480.058 3  -6791272.102 2
  24623652.298     2410833.468 2   1878571.345 2
  21840210.636   -12628951.192 4  -9840727.392 3
  25850251.643    27523410.813 2  21446784.951 1
  25198597.570     4546329.470 2   3542586.593 1
 91  5 28 19 33 45.0030000  0  6 19 06 11 02 18 16
  22824840.891    11454444.578 3   8925533.179 2
  22868760.489    -8730304.720 3  -6802823.787 2
  24632155.911     2455554.336 2   1913418.727 1
  21839982.797   -12630154.986 4  -9841665.413 3
  25863518.957    27593085.777 1  21501077.084 1
  25206626.014     4588532.312 2   3575471.888 1
 91  5 28 19 34  0.0030000  0  6 19 06 11 02 18 16
  22832655.282    11495477.569 2   8957506.902 2
  22865946.633    -8745097.040 3  -6814350.248 2
  24640686.808     2500402.119 2   1948365.014 1
  21839770.838   -12631276.443 4  -9842539.283 3
  25876771.280    27662769.507 2  21555375.910 1
  25214674.543     4630815.576 2   3608419.814 1
 91  5 28 19 34 15.0030000  0  6 19 06 11 02 18 16
  22840472.368    11536580.322 3   8989534.993 2
  22863139.076    -8759852.962 3  -6825848.375 2
  24649256.374     2545380.422 2   1983412.995 1
  21839575.980   -12632311.512 4  -9843345.833 3
  25890035.304    27732465.594 2  21609684.447 1
  25222735.365     4673182.711 2   3641433.061 1
 91  5 28 19 34 30.0030000  0  5 19 06 11 02 16
  22848310.745    11577752.695 2   9021617.328 2
  22860332.418    -8774572.647 3  -6837318.238 2
  24657827.738     2590488.715 2   2018562.287 1
  21839396.104   -12633260.672 4  -9844085.445 3
  25230811.475     4715632.934 2   3674511.088 1
 91  5 28 19 34 45.0030000  0  5 19 06 11 02 16
  22856156.310    11618994.991 2   9053754.153 2
  22857541.953    -8789255.825 3  -6848759.673 2
  24666440.782     2635726.814 2   2053812.716 1
  21839230.614   -12634123.756 4  -9844757.972 3
  25238913.663     4758166.126 2   3707653.809 1
 91  5 28 19 35  0.0030000  0  5 19 06 11 02 16
  22864019.265    11660306.911 3   9085945.219 2
  22854755.084    -8803902.441 3  -6860172.609 2
  24675065.508     2681094.255 2   2089163.952 1
  21839084.015   -12634900.855 4  -9845363.506 3
  25247016.157     4800781.920 2   3740860.845 1
 91  5 28 19 35 15.0030000  0  5 19 06 11 02 16
  22871894.216    11701688.484 2   9118190.580 2
  22851975.404    -8818512.389 3  -6871556.959 2
  24683723.512     2726591.035 2   2124615.947 1
  21838951.812   -12635591.907 4  -9845901.991 3
  25255140.533     4843480.275 2   3774132.158 1
 91  5 28 19 35 30.0030000  0  5 19 06 11 02 16
  22879789.253    11743139.582 2   9150490.103 2
  22849201.124    -8833085.784 3  -6882912.852 2
  24692399.507     2772216.445 2   2160168.140 1
  21838834.294   -12636197.145 4  -9846373.613 3
  25263285.291     4886260.575 2   3807467.500 1
 91  5 28 19 35 45.0030000  0  5 19 06 11 02 16
  22887685.189    11784661.668 2   9182844.943 2
  22846434.645    -8847621.118 3  -6894239.081 2
  24701106.677     2817971.733 2   2195821.566 1
  21838738.353   -12636715.270 4  -9846777.344 3
  25271448.338     4929123.909 2   3840867.361 1
 91  5 28 19 36  0.0030000  0  5 19 06 11 02 16
  22895598.810    11826250.068 2   9215251.460 2
  22843675.653    -8862122.880 3  -6905539.141 2
  24709854.027     2863852.043 2   2231572.389 1
  21838651.712   -12637150.910 4  -9847116.807 3
  25279619.481     4972065.224 2   3874328.071 1
 91  5 28 19 36 15.0030000  0  5 19 06 11 02 16
  22903518.723    11867902.382 2   9247707.772 2
  22840924.155    -8876593.101 3  -6916814.622 2
  24718598.374     2909854.655 2   2267418.560 1
  21838584.258   -12637506.510 4  -9847393.899 3
  25287802.621     5015081.701 2   3907847.331 1
 91  5 28 19 36 30.0030000  0  5 19 06 11 02 16
  22911461.425    11909617.138 2   9280212.747 2
  22838175.658    -8891033.359 3  -6928066.768 2
  24727387.089     2955977.771 2   2303358.588 1
  21838531.803   -12637783.569 4  -9847609.792 3
  25295995.044     5058171.461 2   3941423.714 1
 91  5 28 19 36 45.0030000  0  5 19 06 11 02 16
  22919409.519    11951392.877 2   9312765.242 2
  22835431.664    -8905445.076 3  -6939296.666 2
  24736170.709     3002219.596 2   2339391.144 1
  21838495.821   -12637983.599 4  -9847765.665 3
  25304213.556     5101332.467 2   3975055.576 1
 91  5 28 19 37  0.0030000  0  5 19 06 11 02 16
  22927371.408    11993227.361 2   9345363.499 2
  22832692.756    -8919830.195 3  -6950505.846 2
  24745004.393     3048577.717 2   2375514.320 1
  21838474.837   -12638108.706 4  -9847863.153 3
  25312447.659     5144562.636 2   4008741.361 1
 91  5 28 19 37 15.0030000  0  5 19 06 11 02 16
  22935343.496    12035124.563 2   9378010.632 2
  22829965.845    -8934184.604 3  -6961691.093 2
  24753837.475     3095055.479 2   2411730.702 1
  21838457.448   -12638155.057 4  -9847899.272 3
  25320681.754     5187865.424 2   4042483.748 1
 91  5 28 19 37 30.0030000  0  5 19 06 11 02 16
  22943332.057    12077083.105 2   9410705.575 2
  22827237.129    -8948509.793 3  -6972853.568 2
  24762715.230     3141651.463 2   2448039.206 1
  21838468.241   -12638124.035 4  -9847875.100 3
  25328930.550     5231238.891 2   4076281.236 1
 91  5 28 19 37 45.0030000  0  5 19 06 11 02 16
  22951322.434    12119098.772 2   9443445.015 2
  22824515.916    -8962809.497 3  -6983996.190 2
  24771602.573     3188361.220 2   2484436.361 2
  21838488.928   -12638019.887 4  -9847793.950 3
  25337209.911     5274678.743 2   4110130.335 1
 91  5 28 19 38  0.0030000  0  5 19 06 11 02 16
  22959332.886    12161175.470 2   9476232.022 2
  22821799.798    -8977080.165 3  -6995116.185 2
  24780516.301     3235188.253 2   2520924.934 1
  21838520.408   -12637838.856 4  -9847652.889 3
  25345490.179     5318188.384 2   4144033.839 1
 91  5 28 19 38 15.0030000  0  5 19 06 11 02 16
  22967347.832    12203310.771 3   9509064.704 2
  22819093.574    -8991323.956 3  -7006215.230 2
  24789442.629     3282129.885 2   2557502.776 1
  21838571.668   -12637583.423 4  -9847453.853 3
  25353770.446     5361765.072 2   4177989.652 1
 91  5 28 19 38 30.0030000  0  5 19 06 11 02 16
  22975373.877    12245504.301 3   9541942.744 2
  22816388.843    -9005540.995 3  -7017293.437 2
  24798398.630     3329185.417 2   2594169.394 1
  21838631.330   -12637253.973 4  -9847197.147 3
  25362072.902     5405407.820 2   4211996.927 1
 91  5 28 19 38 45.0030000  0  5 19 06 11 02 16
  22983415.810    12287757.304 3   9574867.126 2
  22813684.112    -9019730.026 3  -7028349.825 2
  24807372.911     3376355.758 2   2630925.477 1
  21838709.577   -12636849.303 4  -9846881.819 3
  25370397.241     5449117.567 2   4246056.400 1
 91  5 28 19 39  0.0030000  0  5 19 06 11 02 16
  22991473.631    12330066.361 2   9607835.188 2
  22810987.181    -9033894.427 3  -7039387.011 2
  24816372.381     3423637.140 2   2667768.040 1
  21838801.610   -12636372.918 4  -9846510.606 3
  25378728.769     5492890.722 2   4280165.283 1
 91  5 28 19 39 15.0030000  0  5 19 06 11 02 16
  22999532.054    12372439.366 2   9640853.089 2
  22808299.838    -9048025.982 3  -7050398.599 2
  24825398.532     3471037.306 2   2704703.140 1
  21838908.640   -12635816.847 4  -9846077.307 3
  25387075.592     5536734.880 2   4314329.475 1
 91  5 28 19 39 30.0030000  0  5 19 06 11 02 16
  23007617.456    12414873.740 2   9673918.799 2
  22805616.998    -9062127.128 3  -7061386.500 2
  24834444.472     3518553.401 2   2741728.601 1
  21839024.658   -12635183.583 4  -9845583.854 3
  25395429.613     5580647.289 2   4348546.823 1
 91  5 28 19 39 45.0030000  0  5 19 06 11 02 16
  23015691.767    12457368.604 2   9707031.645 2
  22802940.152    -9076198.550 3  -7072351.230 2
  24843497.008     3566184.371 2   2778843.619 1
  21839163.763   -12634474.007 4  -9845030.938 3
  25403785.423     5624626.531 2   4382816.325 1
 91  5 28 19 40  0.0030000  0  5 19 06 11 02 16
  23023793.057    12499923.090 2   9740190.949 2
  22800265.706    -9090241.110 3  -7083293.476 2
  24852596.607     3613928.691 2   2816046.894 1
  21839311.863   -12633689.200 4  -9844419.398 3
  25412182.913     5668671.305 2   4417136.778 1
 91  5 28 19 40 15.0030000  0  5 19 06 11 02 16
  23031896.450    12542538.070 2   9773397.405 2
  22797598.152    -9104253.926 3  -7094212.546 2
  24861695.910     3661786.988 2   2853339.007 2
  21839476.148   -12632828.453 4  -9843748.686 3
  25420568.405     5712782.190 2   4451508.912 1
 91  5 28 19 40 30.0030000  0  5 19 06 11 02 16
  23040024.726    12585208.425 2   9806646.994 2
  22794938.390    -9118242.061 3  -7105112.383 2
  24870811.397     3709753.937 2   2890715.753 1
  21839653.625   -12631896.817 4  -9843022.737 4
  25428970.389     5756953.623 2   4485928.059 1
 91  5 28 19 40 45.0030000  0  5 19 06 11 02 16
  23048151.493    12627937.209 2   9839942.129 2
  22792284.028    -9132202.111 3  -7115990.325 2
  24879969.455     3757832.326 2   2928179.345 1
  21839844.286   -12630891.381 4  -9842239.285 3
  25437398.451     5801188.105 2   4520396.482 1
 91  5 28 19 41  0.0030000  0  5 19 06 11 02 16
  23056298.057    12670721.086 2   9873280.171 2
  22789627.573    -9146137.315 3  -7126848.916 2
  24889141.010     3806018.486 2   2965726.911 1
  21840048.148   -12629815.516 4  -9841400.951 3
  25445818.722     5845482.230 2   4554911.359 1
 91  5 28 19 41 15.0030000  0  5 19 06 11 02 16
  23064447.615    12713562.581 2   9906663.106 2
  22786979.799    -9160045.293 3  -7137686.305 2
  24898327.843     3854314.449 2   3003360.051 1
  21840269.094   -12628666.748 4  -9840505.806 3
  25454259.680     5889838.259 2   4589474.357 1
 91  5 28 19 41 30.0030000  0  5 19 06 11 02 16
  23072615.163    12756467.290 2   9940095.318 2
  22784339.232    -9173920.138 3  -7148497.865 2
  24907536.270     3902725.627 2   3041082.959 1
  21840502.936   -12627439.306 4  -9839549.362 3
  25462710.236     5934261.457 2   4624089.744 1
 91  5 28 19 41 45.0030000  0  5 19 06 11 02 16
  23080790.503    12799431.339 2   9973573.755 2
  22781706.457    -9187765.430 3  -7159286.383 2
  24916765.080     3951247.948 2   3078892.501 1
  21840748.766   -12626137.169 4  -9838534.706 3
  25471186.261     5978747.444 2   4658754.077 1
 91  5 28 19 42  0.0030000  0  5 19 06 11 02 16
  23088982.333    12842502.483 2  10007135.667 2
  22779089.264    -9201533.465 3  -7170014.717 2
  24926033.170     3999928.919 2   3116825.672 1
  21841018.878   -12624712.676 4  -9837424.718 3
  25479670.094     6023343.628 2   4693504.279 1
 91  5 28 19 42 15.0030000  0  5 19 06 11 02 16
  23097194.841    12885638.343 2  10040747.985 2
  22776477.176    -9215266.285 3  -7180715.611 2
  24935327.932     4048725.992 2   3154849.320 1
  21841304.582   -12623207.978 4  -9836252.229 3
  25488169.807     6068007.428 2   4728307.138 1
 91  5 28 19 42 30.0030000  0  5 19 06 11 02 16
  23105417.253    12928836.849 2  10074409.114 2
  22773868.979    -9228965.964 3  -7191390.676 2
  24944631.690     4097636.394 2   3192961.233 1
  21841605.572   -12621625.459 4  -9835019.090 3
  25496677.015     6112736.082 2   4763160.605 1
 91  5 28 19 42 45.0030000  0  5 19 06 11 02 16
  23113643.853    12972099.510 2  10108120.240 2
  22771267.981    -9242630.973 3  -7202038.747 2
  24953950.744     4146661.484 2   3231162.518 1
  21841921.848   -12619963.662 4  -9833724.190 3
  25505201.019     6157530.850 2   4798065.578 1
 91  5 28 19 43  0.0030000  0  5 19 06 11 02 16
  23121892.344    13015428.908 2  10141883.377 2
  22768675.376    -9256258.414 3  -7212657.519 2
  24963312.061     4195803.609 2   3269454.970 1
  21842255.522   -12618220.057 4  -9832365.538 4
  25513742.107     6202394.153 2   4833023.913 1
 91  5 28 19 43 15.0030000  0  5 19 06 11 02 16
  23130145.032    13058824.539 2  10175698.116 2
  22766084.272    -9269848.846 3  -7223247.451 2
  24972681.476     4245061.848 2   3307837.971 1
  21842600.286   -12616395.064 4  -9830943.472 3
  25522294.284     6247324.969 2   4868034.893 1
 91  5 28 19 43 30.0030000  0  5 19 06 11 02 16
  23138412.709    13102290.655 2  10209567.772 2
  22763511.446    -9283397.734 3  -7233805.012 2
  24982080.861     4294440.289 2   3346314.639 1
  21842964.534   -12614484.442 4  -9829454.668 3
  25530846.461     6292327.282 2   4903101.501 1
 91  5 28 19 43 45.0030000  0  5 19 06 11 02 16
  23146706.466    13145827.905 2  10243492.865 1
  22760937.731    -9296904.320 3  -7244329.617 2
  24991496.745     4343939.235 2   3384885.206 1
  21843345.271   -12612487.549 4  -9827898.650 3
  25539426.227     6337401.207 2   4938223.991 1
 91  5 28 19 44  0.0030000  0  5 19 06 11 02 16
  23154998.129    13189439.022 2  10277475.545 2
  22758379.006    -9310365.681 3  -7254818.989 2
  25000945.305     4393561.142 2   3423551.578 1
  21843740.693   -12610401.627 4  -9826273.259 3
  25548027.570     6382549.390 2   4973404.289 1
 91  5 28 19 44 15.0030000  0  5 19 06 11 02 16
  23163316.168    13233122.438 2  10311514.532 2
  22755821.170    -9323783.293 3  -7265274.266 2
  25010408.559     4443303.991 2   3462312.199 1
  21844156.802   -12608228.369 4  -9824579.814 3
  25556635.213     6427769.859 2   5008640.947 1
 91  5 28 19 44 30.0030000  0  5 19 06 11 02 16
  23171643.203    13276879.999 2  10345611.277 2
  22753276.230    -9337155.182 3  -7275693.916 2
  25019893.389     4493169.146 2   3501168.093 1
  21844587.910   -12605966.254 4  -9822817.120 3
  25565241.050     6473063.748 2   5043934.844 1
 91  5 28 19 44 45.0030000  0  5 19 06 11 02 16
  23179990.026    13320715.650 2  10379768.892 1
  22750745.085    -9350477.367 3  -7286074.829 2
  25029411.497     4543160.495 2   3540122.360 1
  21845036.695   -12603611.160 4  -9820981.978 3
  25573878.672     6518434.962 2   5079288.948 1
 91  5 28 19 45  0.0030000  0  5 19 06 11 02 16
  23188340.749    13364628.845 2  10413986.924 2
  22748219.637    -9363750.114 3  -7296417.234 2
  25038949.698     4593277.145 2   3579174.261 1
  21845498.680   -12601163.758 4  -9819074.923 3
  25582534.582     6563882.350 2   5114702.435 1
 91  5 28 19 45 15.0030000  0  5 19 06 11 02 16
  23196716.051    13408617.479 2  10448263.746 2
  22745703.176    -9376975.639 3  -7306722.821 2
  25048510.376     4643516.642 2   3618321.834 1
  21845981.039   -12598626.288 4  -9817097.676 3
  25591192.586     6609403.349 2   5150173.287 1
 91  5 28 19 45 30.0030000  0  5 19 06 11 02 16
  23205091.946    13452682.035 2  10482599.746 2
  22743196.610    -9390153.130 3  -7316990.991 2
  25058106.731     4693879.154 2   3657565.250 1
  21846484.391   -12595998.234 4  -9815049.843 3
  25599864.079     6654998.500 2   5185701.852 1
 91  5 28 19 45 45.0030000  0  5 19 06 11 02 16
  23213490.631    13496815.405 2  10516989.341 2
  22740692.442    -9403289.475 3  -7327227.102 2
  25067707.291     4744357.289 2   3696898.827 1
  21846998.841   -12593286.489 4  -9812936.791 3
  25608566.162     6700660.282 2   5221282.431 1
 91  5 28 19 46  0.0040000  0  5 19 06 11 02 16
  23221907.005    13541026.956 2  10551439.851 2
  22738208.965    -9416379.030 3  -7337426.745 2
  25077333.925     4794960.751 2   3736330.044 1
  21847528.571   -12590484.609 4  -9810753.510 4
  25617259.838     6746397.799 2   5256921.880 1
 91  5 28 19 46 15.0040000  0  5 19 06 11 02 16
  23230340.172    13585315.734 2  10585950.565 2
  22735724.883    -9429414.864 3  -7347584.536 2
  25086968.652     4845687.315 2   3775857.190 1
  21848087.380   -12587587.822 4  -9808496.266 3
  25625980.200     6792209.617 2   5292619.509 1
 91  5 28 19 46 30.0040000  0  5 19 06 11 02 16
  23238776.331    13629677.538 2  10620518.146 2
  22733253.697    -9442405.166 3  -7357706.852 2
  25096653.148     4896532.674 2   3815476.868 1
  21848652.793   -12584603.385 4  -9806170.731 3
  25634709.558     6838091.014 2   5328371.102 1
 91  5 28 19 46 45.0040000  0  5 19 06 11 02 16
  23247232.279    13674107.868 2  10655139.164 2
  22730783.104    -9455353.935 3  -7367796.791 2
  25106358.331     4947492.122 2   3855185.500 1
  21849235.892   -12581535.786 4  -9803780.384 3
  25643449.413     6884037.215 2   5364173.190 1
 91  5 28 19 47  0.0040000  0  5 19 06 11 02 16
  23255706.812    13718608.627 2  10689815.042 2
  22728332.003    -9468259.263 3  -7377852.889 2
  25116068.609     4998567.303 2   3894984.323 1
  21849836.677   -12578383.235 4  -9801323.854 3
  25652213.846     6930049.685 2   5400027.034 1
 91  5 28 19 47 15.0040000  0  5 19 06 11 02 16
  23264183.744    13763177.859 2  10724544.292 2
  22725885.098    -9481122.899 3  -7387876.493 2
  25125820.855     5049756.020 2   3934871.547 1
  21850450.645   -12575147.588 4  -9798802.574 3
  25660971.377     6976126.586 2   5435931.006 1
 91  5 28 19 47 30.0040000  0  5 19 06 11 02 16
  23272678.963    13807813.002 2  10759324.888 1
  22723442.687    -9493947.233 3  -7397869.473 2
  25135580.902     5101055.303 2   3974844.984 1
  21851079.909   -12571831.406 4  -9796218.540 3
  25669757.998     7022264.456 2   5471882.587 1
 91  5 28 19 47 45.0040000  0  5 19 06 11 02 16
  23281185.569    13852520.946 2  10794162.189 2
  22721014.070    -9506725.308 3  -7407826.408 2
  25145358.329     5152471.677 2   4014909.590 1
  21851731.360   -12568428.016 4  -9793566.544 3
  25678545.509     7068470.341 2   5507887.070 1
 91  5 28 19 48  0.0040000  0  5 19 06 11 02 16
  23289711.964    13897300.105 2  10829055.018 2
  22718588.752    -9519458.581 3  -7417748.434 2
  25155169.042     5204003.340 2   4055064.083 1
  21852397.802   -12564939.124 4  -9790847.923 3
  25687351.918     7114741.916 2   5543942.757 1
 91  5 28 19 48 15.0040000  0  5 19 06 11 02 16
  23298244.658    13942145.697 2  10863999.590 2
  22716174.523    -9532151.639 3  -7427639.118 2
  25164994.439     5255645.112 2   4095304.355 1
  21853075.629   -12561369.594 4  -9788066.479 3
  25696172.410     7161074.041 2   5580045.642 1
 91  5 28 19 48 30.0040000  0  5 19 06 11 02 16
  23306783.651    13987056.105 2  10898994.687 1
  22713764.186    -9544805.941 3  -7437499.625 2
  25174831.825     5307395.080 2   4135628.944 1
  21853768.752   -12557720.797 4  -9785223.262 3
  25705003.093     7207464.920 2   5616194.550 1
 91  5 28 19 48 45.0040000  0  5 19 06 11 02 16
  23315335.829    14032029.278 2  10934038.683 1
  22711364.353    -9557423.565 3  -7447331.518 2
  25184710.585     5359250.814 2   4176035.969 1
  21854476.262   -12553994.845 4  -9782319.918 3
  25713834.081     7253911.956 2   5652386.864 1
 91  5 28 19 49  0.0040000  0  5 19 06 11 02 16
  23323916.485    14077062.844 2  10969129.738 2
  22708970.803    -9570006.525 3  -7457136.417 2
  25194594.144     5411209.578 2   4216523.220 1
  21855199.059   -12550194.322 4  -9779358.473 3
  25722691.148     7300412.765 2   5688621.098 1
 91  5 28 19 49 15.0040000  0  5 19 06 11 02 16
  23332494.750    14122157.398 2  11004268.309 1
  22706578.465    -9582554.048 3  -7466913.701 2
  25204504.681     5463272.015 2   4257091.299 1
  21855937.753   -12546318.611 4  -9776338.442 4
  25731549.420     7346967.568 2   5724897.551 1
 91  5 28 19 49 30.0040000  0  5 19 06 11 02 16
  23341088.904    14167313.586 2  11039454.922 1
  22704202.304    -9595065.351 3  -7476662.766 2
  25214433.209     5515438.338 2   4297740.364 1
  21856689.630   -12542366.871 4  -9773259.168 4
  25740414.584     7393576.541 2   5761216.072 1
 91  5 28 19 49 45.0040000  0  5 19 06 11 02 16
  23349689.043    14212530.408 2  11074688.780 2
  22701829.449    -9607541.243 3  -7486384.241 2
  25224381.221     5567706.976 2   4338469.128 1
  21857455.599   -12538340.351 4  -9770121.617 3
  25749301.029     7440238.144 2   5797575.746 1
 91  5 28 19 50  0.0040000  0  5 19 06 11 02 16
  23358307.784    14257802.547 2  11109965.747 2
  22699456.290    -9619987.049 3  -7496082.249 2
  25234331.335     5620072.329 2   4379273.209 1
  21858231.462   -12534244.343 4  -9766929.924 4
  25758182.684     7486946.737 2   5833971.961 1
 91  5 28 19 50 15.0040000  0  5 19 06 11 02 16
  23366935.206    14303133.665 2  11145288.652 2
  22697096.331    -9632398.665 3  -7505753.634 2
  25244320.721     5672537.924 2   4420155.453 1
  21859025.612   -12530075.150 4  -9763681.206 4
  25767093.410     7533705.771 2   5870407.491 1
 91  5 28 19 50 30.0040000  0  5 19 06 11 02 16
  23375569.234    14348520.853 2  11180655.279 2
  22694736.957    -9644778.979 3  -7515400.617 2
  25254338.586     5725100.566 2   4461113.282 1
  21859831.158   -12525835.725 4  -9760377.761 4
  25775982.255     7580511.831 2   5906879.647 1
 91  5 28 19 50 45.0040000  0  5 19 06 11 02 16
  23384218.844    14393963.197 2  11216064.855 1
  22692391.682    -9657128.944 3  -7525023.964 2
  25264346.259     5777758.723 2   4502145.546 1
  21860657.382   -12521527.223 4  -9757020.493 3
  25784908.582     7627363.691 2   5943387.486 1
 91  5 28 19 51  0.0040000  0  5 19 06 11 02 16
  23392872.050    14439459.421 2  11251516.427 2
  22690045.509    -9669449.548 3  -7534624.428 2
  25274377.613     5830510.951 2   4543251.106 1
  21861488.702   -12517150.741 4  -9753610.250 3
  25793832.501     7674259.451 2   5979929.555 1
 91  5 28 19 51 15.0040000  0  5 19 06 11 02 16
  23401543.246    14485012.049 2  11287011.956 2
  22687708.925    -9681738.095 3  -7544199.912 2
  25284450.943     5883359.455 2   4584431.728 1
  21862335.317   -12512703.924 4  -9750145.194 3
  25802763.322     7721201.873 2   6016508.016 1
 91  5 28 19 51 30.0040000  0  5 19 06 11 02 16
  23410224.337    14530623.212 2  11322553.085 2
  22685375.944    -9693992.237 3  -7553748.605 2
  25294524.561     5936306.162 2   4625688.875 1
  21863195.124   -12508184.638 4  -9746623.669 3
  25811702.833     7768192.160 2   6053123.715 1
 91  5 28 19 51 45.0040000  0  5 19 06 11 02 16
  23418912.626    14576290.014 2  11358137.573 2
  22683045.651    -9706214.582 3  -7563272.491 2
  25304607.489     5989347.938 2   4667020.066 1
  21864066.326   -12503595.731 4  -9743047.905 3
  25820649.237     7815227.684 2   6089774.774 1
 91  5 28 19 52  0.0040000  0  5 19 06 11 02 16
  23427614.403    14622006.561 2  11393760.804 1
  22680728.262    -9718410.927 3  -7572776.136 2
  25314722.481     6042478.515 2   4708420.441 1
  21864954.010   -12498942.971 4  -9739422.381 3
  25829616.031     7862302.045 2   6126455.943 1
 91  5 28 19 52 15.0040000  0  5 19 06 11 02 16
  23436320.675    14667778.702 2  11429427.383 1
  22678416.562    -9730575.318 3  -7582254.883 2
  25324847.674     6095703.273 2   4749894.197 1
  21865852.181   -12494220.838 4  -9735742.794 3
  25838584.317     7909420.755 2   6163171.718 1
 91  5 28 19 52 30.0040000  0  5 19 06 11 02 16
  23445049.431    14713600.512 2  11465132.654 2
  22676106.057    -9742713.549 3  -7591713.234 2
  25334999.844     6149015.919 2   4791436.439 1
  21866765.657   -12489435.261 4  -9732013.776 4
  25847560.107     7956577.429 2   6199917.093 1
 91  5 28 19 52 45.0040000  0  5 19 06 11 02 16
  23453771.887    14759478.221 2  11500881.500 2
  22673799.453    -9754819.187 3  -7601146.206 2
  25345166.410     6202422.500 2   4833051.881 1
  21867689.017   -12484580.058 4  -9728230.504 3
  25856537.389     8003777.649 2   6236696.358 1
 91  5 28 19 53  0.0040000  0  5 19 06 11 02 16
  23462520.432    14805413.259 2  11536674.998 1
  22671504.548    -9766890.835 3  -7610552.678 2
  25355346.161     6255923.896 2   4874741.215 1
  21868623.171   -12479653.944 4  -9724391.977 3
  25865527.567     8051022.486 2   6273510.548 1
 91  5 28 19 53 15.0040000  0  5 19 06 11 02 16
  23471271.681    14851401.352 2  11572509.836 2
  22669213.230    -9778932.432 3  -7619935.731 2
  25365545.394     6309515.773 2   4916501.064 1
  21869573.510   -12474661.025 4  -9720501.391 3
  25874526.740     8098307.575 2   6310355.985 1
 91  5 28 19 53 30.0040000  0  5 19 06 11 02 16
  23480020.522    14897443.881 2  11608387.106 2
  22666925.812    -9790942.414 3  -7629294.163 2
  25375759.024     6363199.011 2   4958332.094 1
  21870537.940   -12469599.809 4  -9716557.582 3
  25883537.003     8145633.789 2   6347233.447 1
 91  5 28 19 53 45.0040000  0  5 19 06 11 02 16
  23488797.545    14943540.283 2  11644306.352 1
  22664645.592    -9802921.122 3  -7638628.208 2
  25385987.050     6416972.884 2   5000233.734 1
  21871513.163   -12464471.062 4  -9712561.158 4
  25892546.664     8193000.227 2   6384142.251 1
 91  5 28 19 54  0.0040000  0  5 19 06 11 02 16
  23497584.760    14989688.163 2  11680265.718 1
  22662374.961    -9814870.755 3  -7647939.610 2
  25396241.444     6470834.856 2   5042204.067 2
  21872500.679   -12459277.083 4  -9708513.909 3
  25901566.516     8240404.371 2   6421080.573 1
 91  5 28 19 54 15.0040000  0  5 19 06 11 02 16
  23506375.272    15035883.220 2  11716261.812 1
  22660106.433    -9826795.376 3  -7657231.508 2
  25406510.243     6524780.122 2   5084239.289 1
  21873495.097   -12454022.195 4  -9704419.181 3
  25910585.774     8287841.666 2   6458044.475 1
 91  5 28 19 54 30.0040000  0  5 19 06 11 02 16
  23515167.285    15082128.604 2  11752297.147 1
  22657841.804    -9838691.779 3  -7666501.427 2
  25416781.127     6578811.499 2   5126341.572 1
  21874513.492   -12448703.521 4  -9700274.762 4
  25919628.111     8335314.789 2   6495036.503 1
 91  5 28 19 54 45.0040000  0  6 19 06 11 15 02 16
  23523986.285    15128427.286 2  11788374.001 1
  22655584.069    -9850556.905 3  -7675746.978 2
  25427077.200     6632931.627 2   5168513.016 1
  26005914.080           0.002 2         0.377 1
  21875541.476   -12443318.053 4  -9696078.293 4
  25928659.663     8382826.063 2   6532058.239 1
 91  5 28 19 55  0.0040000  0  5 19 06 11 15 02
  23532807.073    15174780.349 2  11824493.246 1
  22653330.827    -9862389.391 3  -7684967.093 2
  25437399.658     6687141.203 2   5210754.234 1
  26002123.204      -19933.953 2    -15532.521 1
  21876578.158   -12437864.736 4  -9691828.958 4
 91  5 28 19 55 15.0040000  0  5 19 06 11 15 02
  23541635.365    15221184.133 2  11860651.995 2
  22651086.275    -9874192.840 3  -7694164.583 2
  25447735.300     6741436.297 2   5253062.016 1
  25998332.929      -39818.197 2    -31026.671 1
  21877623.836   -12432347.335 4  -9687529.677 3
 91  5 28 19 55 30.0040000  0  5 19 06 11 15 02
  23550469.651    15267641.310 2  11896852.379 2
  22648843.835    -9885964.266 3  -7703337.107 2
  25458077.538     6795819.343 2   5295438.424 1
  25994549.844      -59649.404 2    -46479.503 1
  21878688.998   -12426763.118 4  -9683178.338 4
 91  5 28 19 55 45.0040000  0  5 19 06 11 15 02
  23559326.719    15314150.279 2  11933093.094 2
  22646609.780    -9897705.285 3  -7712485.955 2
  25468437.471     6850288.250 2   5337881.642 1
  25990790.753      -79429.096 2    -61892.143 1
  21879763.757   -12421113.842 4  -9678776.307 4
 91  5 28 19 56  0.0040000  0  5 19 06 11 15 02
  23568185.584    15360711.548 2  11969374.565 2
  22644383.516    -9909414.996 3  -7721610.392 2
  25478818.378     6904843.243 2   5380392.012 1
  25987040.946      -99156.199 2    -77263.862 1
  21880849.902   -12415398.865 4  -9674323.078 4
 91  5 28 19 56 15.0040000  0  5 19 06 11 15 02
  23577056.445    15407325.510 2  12005697.083 1
  22642160.855    -9921092.813 3  -7730709.986 2
  25489223.577     6959484.551 2   5422969.621 1
  25983303.135     -118829.681 2    -92593.834 1
  21881951.639   -12409617.808 4  -9669818.354 4
 91  5 28 19 56 30.0040000  0  5 19 06 11 15 02
  23585928.799    15453997.595 2  12042064.928 1
  22639947.487    -9932733.113 3  -7739780.345 2
  25499631.175     7014217.261 2   5465618.429 1
  25979565.019     -138443.750 2   -107877.456 1
  21883065.373   -12403765.145 4  -9665257.844 3
 91  5 28 19 56 45.0040000  0  5 19 06 11 15 02
  23594826.046    15500724.704 2  12078475.619 1
  22637738.019    -9944338.906 3  -7748823.819 2
  25510066.649     7069037.857 2   5508335.685 1
  25975850.592     -158001.134 2   -123116.838 1
  21884191.985   -12397844.209 4  -9660644.127 4
 91  5 28 19 57  0.0040000  0  5 19 06 11 15 02
  23603737.375    15547508.326 2  12114930.351 2
  22635533.647    -9955908.640 3  -7757839.180 2
  25520527.008     7123947.491 2   5551122.307 1
  25972137.064     -177500.229 2   -138310.965 1
  21885332.400   -12391853.574 4  -9655976.107 4
 91  5 28 19 57 15.0040000  0  5 19 06 11 15 02
  23612642.709    15594350.205 2  12151430.472 2
  22633339.168    -9967440.304 3  -7766824.885 2
  25530982.864     7178947.684 2   5593979.558 1
  25968435.227     -196938.785 2   -153457.835 1
  21886481.802   -12385791.567 4  -9651252.468 4
 91  5 28 19 57 30.0040000  0  5 19 06 11 15 02
  23621575.921    15641252.581 2  12187977.758 2
  22631156.373    -9978931.438 3  -7775779.016 2
  25541473.202     7234040.212 2   5636908.714 1
  25964741.181     -216314.394 2   -168555.645 1
  21887650.993   -12379655.852 4  -9646471.389 4
 91  5 28 19 57 45.0040000  0  5 19 06 11 15 02
  23630503.443    15688216.992 2  12224573.352 2
  22628976.588    -9990380.327 3  -7784700.224 2
  25551977.936     7289226.447 2   5679910.909 1
  25961070.528     -235624.884 2   -183602.725 1
  21888833.978   -12373444.872 4  -9641631.660 4
 91  5 28 19 58  0.0040000  0  5 19 06 11 15 02
  23639462.141    15735245.312 2  12261218.780 1
  22626807.587   -10001784.699 3  -7793586.748 2
  25562473.065     7344507.993 2   5722987.380 1
  25957411.261     -254867.513 2   -198596.938 1
  21890027.451   -12367156.779 4  -9636731.849 4
 91  5 28 19 58 15.0040000  0  5 19 06 11 15 02
  23648416.938    15782341.328 2  12297916.924 2
  22624643.987   -10013140.822 3  -7802435.667 2
  25573037.156     7399888.169 2   5766140.635 1
  25953764.584     -274038.453 2   -213535.256 1
  21891241.908   -12360787.976 4  -9631769.153 4
 91  5 28 19 58 30.0040000  0  5 19 06 11 15 02
  23657393.924    15829502.555 2  12334665.898 1
  22622493.875   -10024450.936 3  -7811248.738 2
  25583588.648     7455364.271 2   5809368.746 1
  25950130.498     -293139.717 2   -228419.327 1
  21892471.354   -12354340.932 4  -9626745.477 4
 91  5 28 19 58 45.0040000  0  5 19 06 11 15 02
  23666378.709    15876726.785 2  12371463.994 1
  22620346.164   -10035717.113 3  -7820027.574 2
  25594165.330     7510933.789 2   5852669.610 1
  25946506.611     -312173.251 2   -243250.583 1
  21893709.203   -12347817.712 4  -9621662.449 4
 91  5 28 19 59  0.0040000  0  5 19 06 11 15 02
  23675372.482    15924007.730 2  12408306.250 2
  22618210.440   -10046945.236 3  -7828776.753 2
  25604762.393     7566590.088 2   5896038.098 1
  25942898.002     -331144.415 2   -258033.219 1
  21894962.032   -12341224.711 4  -9616525.044 4
 91  5 28 19 59 15.0040000  0  5 19 06 11 15 02
  23684379.446    15971345.172 2  12445192.534 1
  22616083.712   -10058135.406 3  -7837496.368 2
  25615370.547     7622332.743 2   5939473.850 1
  25939304.095     -350053.249 2   -272767.393
  21896231.658   -12334562.127 4  -9611333.429 4
 91  5 28 19 59 30.0040000  0  4 19 06 11 02
  23693408.294    16018739.635 2  12482123.224 1
  22613958.782   -10069287.038 3  -7846185.938 2
  25625993.393     7678161.655 2   5982976.852 1
  21897512.364   -12327829.610 4  -9606087.319 4
 91  5 28 19 59 45.0040000  0  4 19 06 11 02
  23702433.843    16066195.320 2  12519101.638 1
  22611850.342   -10080395.793 3  -7854842.115 2
  25636637.528     7734080.832 2   6026550.120 1
  21898809.273   -12321022.962 4  -9600783.428 4
 91  5 28 20  0  0.0040000  0  4 19 06 11 02
  23711477.383    16113714.782 2  12556129.777 1
  22609740.698   -10091458.871 3  -7863462.699 2
  25647285.852     7790092.592 2   6070195.599 1
  21900119.662   -12314139.741 4  -9595419.883 4
 91  5 28 20  0 15.0040000  0  4 19 06 11 02
  23720535.312    16161295.558 2  12593205.667 1
  22607645.450   -10102478.398 3  -7872049.332 2
  25657970.454     7846194.215 2   6113911.143 1
  21901444.745   -12307182.034 4  -9589998.301 4
 91  5 28 20  0 30.0040000  0  4 19 06 11 02
  23729608.535    16208936.338 2  12630328.298 1
  22605555.900   -10113455.505 3  -7880602.927 2
  25668661.060     7902383.826 2   6157695.209 1
  21902781.222   -12300151.498 4  -9584519.963 4
 91  5 28 20  0 45.0040000  0  4 19 06 11 02
  23738676.357    16256636.349 2  12667497.093 1
  22603474.744   -10124390.739 3  -7889123.880 3
  25679363.348     7958660.546 2   6201547.102 1
  21904133.588   -12293048.690 4  -9578985.309 4
 91  5 28 20  1  0.0040000  0  5 19 06 11 15 02
  23747763.663    16304389.468 2  12704707.280 1
  22601397.182   -10135290.053 3  -7897616.849 2
  25690098.617     8015017.897 2   6245461.894 1
  25914468.989      634868.21012    494703.782 1
  21905497.636   -12285879.793 4  -9573399.154 4
 91  5 28 20  1 15.0040000  0  5 19 06 11 15 02
  23756860.269    16352202.407 2  12741964.079 1
  22599331.608   -10146146.637 3  -7906076.525 2
  25700835.981     8071462.267 2   6289444.485 1
  25910963.816      616494.780 1    480386.938 1
  21906876.387   -12278638.228 4  -9567756.382 4
 91  5 28 20  1 30.0040000  0  5 19 06 11 15 02
  23765970.060    16400063.108 2  12779258.095 1
  22597277.133   -10156972.332 3  -7914512.121 2
  25711587.740     8127981.184 2   6333485.087 1
  25907476.625      598178.303 2    466114.316 1
  21908265.625   -12271336.150 4  -9562066.454 4
 91  5 28 20  1 45.0040000  0  5 19 06 11 15 02
  23775085.251    16447982.622 2  12816597.973 1
  22595221.750   -10167755.875 3  -7922914.889 2
  25722358.983     8184585.358 2   6377592.220 1
  25904009.826      579930.278 2    451895.155 1
  21909667.750   -12263962.590 4  -9556320.828 4
 91  5 28 20  2  0.0040000  0  5 19 06 11 15 02
  23784211.235    16495954.812 2  12853978.843 1
  22593177.169   -10178503.234 3  -7931289.446 2
  25733131.421     8241268.481 2   6421760.866 1
  25900554.717      561745.143 2    437725.018 1
  21911083.669   -12256523.634 4  -9550524.235 4
 91  5 28 20  2 15.0040000  0  5 19 06 11 15 02
  23793351.310    16543980.468 2  12891401.369 1
  22591137.981   -10189213.345 3  -7939634.986 2
  25743944.641     8298031.020 2   6465991.388 1
  25897093.013      543624.252 2    423604.940 1
  21912511.280   -12249018.562 4  -9544676.130 4
 91  5 28 20  2 30.0040000  0  5 19 06 11 15 02
  23802502.169    16592056.893 2  12928863.490 1
  22589108.686   -10199888.686 3  -7947953.428 2
  25754774.639     8354869.756 2   6510281.229 1
  25893677.778      525564.938 2    409532.777 1
  21913953.584   -12241450.036 4  -9538778.583 4
 91  5 28 20  2 45.0040000  0  5 19 06 11 15 02
  23811661.430    16640182.777 2  12966364.137 1
  22587082.088   -10210530.388 3  -7956245.659 2
  25765596.845     8411783.158 2   6554629.287 1
  25890234.065      507566.502 2    395508.026 1
  21915405.783   -12233819.414 4  -9532832.653 4
 91  5 28 20  3  0.0040000  0  5 19 06 11 15 02
  23820824.583    16688359.294 2  13003904.244 1
  22585065.985   -10221137.066 3  -7964510.602 2
  25776421.756     8468772.081 2   6599036.166 1
  25886825.427      489630.537 2    381532.036 1
  21916868.469   -12226125.569 4  -9526837.450 4
 91  5 28 20  3 15.0040000  0  5 19 06 11 15 02
  23830012.926    16736588.004 2  13041485.008 1
  22583051.977   -10231707.067 3  -7972746.957 2
  25787293.128     8525837.762 2   6643502.840 1
  25883424.877      471758.878 2    367606.169 1
  21918343.745   -12218366.850 4  -9520791.697 4
 91  5 28 20  3 30.0040000  0  5 19 06 11 15 02
  23839193.171    16784864.776 2  13079103.231 1
  22581046.668   -10242244.314 3  -7980957.793 2
  25798162.703     8582975.716 2   6688025.813 1
  25880040.224      453947.601 2    353727.322 1
  21919832.816   -12210547.630 4  -9514698.804 4
 91  5 28 20  3 45.0040000  0  5 19 06 11 15 02
  23848389.000    16833192.740 2  13116761.342 1
  22579049.150   -10252745.330 3  -7989140.410 2
  25809058.662     8640188.996 2   6732607.517 1
  25876662.455      436200.593 2    339898.471 1
  21921333.273   -12202664.565 4  -9508556.167 4
 91  5 28 20  4  0.0040000  0  5 19 06 11 15 02
  23857601.031    16881574.752 2  13154461.565 1
  22577058.229   -10263207.085 3  -7997292.425 2
  25819955.215     8697480.019 2   6777249.803 1
  25873297.285      418521.075 2    326122.263 1
  21922847.829   -12194714.874 4  -9502361.605 4
 91  5 28 20  4 15.0040000  0  5 19 06 11 15 02
  23866813.350    16930015.980 2  13192207.948 1
  22575078.999   -10273624.224 3  -8005409.682 2
  25830881.154     8754853.587 2   6821956.386 1
  25869948.606      400914.666 2    312403.099 1
  21924372.568   -12186693.448 4  -9496111.149 4
 91  5 28 20  4 30.0040000  0  5 19 06 11 15 02
  23876041.557    16978513.355 2  13229998.072 1
  22573101.863   -10283999.720 3  -8013494.475 2
  25841812.782     8812306.302 2   6866724.654 1
  25866611.915      383378.579 2    298738.598 1
  21925911.704   -12178603.399 4  -9489807.215 4
 91  5 28 20  4 45.0040000  0  5 19 06 11 15 02
  23885282.966    17027065.576 2  13267830.910 1
  22571134.028   -10294334.413 3  -8021547.483 2
  25852751.914     8869836.380 2   6911553.249 1
  25863282.422      365912.166 2    285128.484 1
  21927464.328   -12170445.966 4  -9483450.788 4
 91  5 28 20  5  0.0040000  0  5 19 06 11 15 02
  23894539.355    17075682.340 2  13305714.058 1
  22569176.384   -10304618.580 3  -8029561.120 2
  25863719.218     8927453.407 2   6956449.544 1
  25859983.205      348525.272 2    271580.295 1
  21929027.152   -12162211.583 4  -9477034.392 4
 91  5 28 20  5 15.0040000  0  5 19 06 11 15 02
  23903799.348    17124361.643 2  13343645.994 1
  22567233.730   -10314853.946 3  -8037536.742 2
  25874691.627     8985155.051 2   7001411.744 1
  25856677.995      331216.534 2    258093.012 1
  21930613.953   -12153902.244 4  -9470559.586 4
 91  5 28 20  5 30.0040000  0  5 19 06 11 15 02
  23913074.322    17173105.097 2  13381627.843 1
  22565294.374   -10325038.616 3  -8045472.842 2
  25885710.794     9042942.674 2   7046440.962 1
  25853403.365      313987.805 2    244668.068 1
  21932206.451   -12145516.220 4  -9464025.028 4
 91  5 28 20  5 45.0040000  0  5 19 06 11 15 02
  23922360.394    17221907.962 2  13419656.002 1
  22563367.006   -10335177.234 3  -8053373.073 2
  25896704.187     9100811.122 2   7091533.132 1
  25850130.228      296834.812 2    231302.175 1
  21933815.736   -12137058.430 4  -9457434.548 4
 91  5 28 20  6  0.0040000  0  5 19 06 11 15 02
  23931658.158    17270770.262 2  13457730.474 1
  22561439.944   -10345269.509 3  -8061237.174 2
  25907737.148     9158760.185 2   7136688.175 1
  25846892.767      279758.027 2    217995.587 1
  21935440.613   -12128528.873 4  -9450788.153 4
 91  5 28 20  6 15.0040000  0  5 19 06 11 15 02
  23940972.709    17319694.539 2  13495853.250 1
  22559533.263   -10355312.839 3  -8069063.157 2
  25918783.599     9216791.984 2   7181907.656 1
  25843652.009      262760.338 2    204750.689 1
  21937078.979   -12119925.132 4  -9444083.951 4
 91  5 28 20  6 30.0040000  0  5 19 06 11 15 02
  23950296.552    17368679.812 2  13534023.543 1
  22557627.778   -10365307.795 3  -8076851.434 2
  25929841.444     9274905.377 2   7227190.814 1
  25840440.331      245840.950 2    191566.776 1
  21938730.529   -12111247.986 4  -9437322.539 4
 91  5 28 20  6 45.0040000  0  5 19 06 11 15 02
  23959622.202    17417730.173 2  13572244.547 1
  22555736.986   -10375250.082 3  -8084598.671 2
  25940912.482     9333103.848 2   7272540.218 1
  25837233.156      229004.350 2    178447.419 1
  21940394.084   -12102493.556 4  -9430500.911 4
 91  5 28 20  7  0.0040000  0  5 19 06 11 15 02
  23968971.828    17466838.398 2  13610510.691 2
  22553855.494   -10385146.835 3  -8092310.445 2
  25952007.496     9391380.004 2   7317950.130 1
  25834046.964      212243.970 2    165387.463 1
  21942073.816   -12093668.974 4  -9423624.619 4
 91  5 28 20  7 15.0040000  0  5 19 06 11 15 02
  23978320.259    17516008.065 2  13648824.671 1
  22551979.989   -10394994.289 3  -8099983.789 2
  25963101.917     9449736.934 2   7363423.023 1
  25830866.461      195563.552 2    152389.770 1
  21943763.451   -12084770.720 4  -9416690.931 4
 91  5 28 20  7 30.0040000  0  5 19 06 11 15 02
  23987698.363    17565242.947 2  13687189.460 1
  22550117.981   -10404788.335 3  -8107615.509 2
  25974227.512     9508178.218 2   7408961.547 1
  25827717.447      178967.499 2    139457.826 1
  21945474.061   -12075795.026 4  -9409696.883 4
 91  5 28 20  7 45.0040000  0  5 19 06 11 15 02
  23997072.271    17614543.079 2  13725605.120 1
  22548260.763   -10414528.594 3  -8115205.326 2
  25985364.206     9566703.694 2   7454565.732 1
  25824566.924      162456.482 2    126592.055 1
  21947200.271   -12066741.745 4  -9402642.384 4
 91  5 28 20  8  0.0040000  0  5 19 06 11 15 02
  24006475.565    17663901.294 2  13764066.004 1
  22546414.346   -10424221.964 3  -8122758.600 2
  25996518.586     9625306.041 2   7500229.831 1
  25821445.787      146023.855 2    113787.453 1
  21948934.570   -12057618.011 4  -9395532.987 4
 91  5 28 20  8 15.0040000  0  5 19 06 11 15 02
  24015874.357    17713320.900 2  13802574.757 1
  22544582.911   -10433864.961 3  -8130272.637 2
  26007673.865     9683988.138 2   7545956.074 1
  25818327.642      129673.076 2    101046.662 1
  21950684.460   -12048420.648 4  -9388366.219 4
 91  5 28 20  8 30.0040000  0  5 19 06 11 15 02
  24025285.443    17762804.315 2  13841133.239 1
  22542759.869   -10443455.177 3  -8137745.530 2
  26018878.004     9742751.974 2   7591746.001 1
  25815238.579      113406.725 2     88371.624 1
  21952446.941   -12039147.334 4  -9381140.270 4
 91  5 28 20  8 45.0040000  0  5 19 06 11 15 02
  24034718.115    17812350.241 2  13879740.395 1
  22540943.127   -10452993.498 3  -8145177.998 3
  26030068.959     9801596.018 2   7637598.407 1
  25812152.220       97224.189 2     75761.920 1
  21954225.904   -12029799.210 4  -9373856.029 4
 91  5 28 20  9  0.0040000  0  5 19 06 11 15 02
  24044154.075    17861954.811 2  13918393.243 1
  22539134.779   -10462483.516 3  -8152572.822 2
  26041253.615     9860516.198 2   7683510.115 1
  25809089.541       81121.879 2     63214.730 1
  21956021.958   -12020380.122 4  -9366516.490 4
 91  5 28 20  9 15.0040000  0  5 19 06 11 15 02
  24053604.738    17911618.415 2  13957092.138 1
  22537337.825   -10471924.658 3  -8159929.559 2
  26052503.928     9919512.472 2   7729481.189 1
  25806040.647       65100.715 2     50730.704 1
  21957824.618   -12010889.838 4  -9359121.472 4
 91  5 28 20  9 30.0040000  0  5 19 06 11 15 02
  24063062.887    17961348.376 2  13995842.711 1
  22535558.854   -10481309.544 3  -8167242.459 3
  26063732.358     9978591.697 2   7775516.812 1
  25803005.854       49168.237 2     38315.805 1
  21959646.151   -12001321.218 4  -9351665.415 4
 91  5 28 20  9 45.0040000  0  5 19 06 11 15 02
  24072548.921    18011147.882 2  14034647.475 1
  22533780.790   -10490634.779 3  -8174508.877 3
  26075002.450    10037756.805 2   7821619.366 1
  25800003.430       33328.156 2     25972.900 1
  21961481.783   -11991670.955 4  -9344145.749 4
 91  5 28 20 10  0.0040000  0  5 19 06 11 15 02
  24082037.949    18061013.696 2  14073503.892 2
  22532015.308   -10499903.049 3  -8181730.905 2
  26086284.845    10097004.324 2   7867786.162 1
  25796995.309       17577.523 2     13699.722 1
  21963335.397   -11981942.142 4  -9336564.869 4
 91  5 28 20 10 15.0040000  0  5 19 06 11 15 02
  24091540.770    18110946.489 2  14112412.533 1
  22530262.425   -10509113.590 3  -8188907.966 2
  26097553.742    10156334.630 2   7914017.487 1
  25794023.773        1917.598 2      1497.152 1
  21965204.010   -11972134.173 4  -9328922.308 4
 91  5 28 20 10 30.0040000  0  5 19 06 11 15 02
  24101053.189    18160951.508 2  14151377.439 2
  22528521.530   -10518261.004 3  -8196035.814 2
  26108882.894    10215752.516 2   7960317.014 1
  25791056.119      -13645.948 2    -10630.162 1
  21967084.908   -11962241.921 4  -9321214.065 4
 91  5 28 20 10 45.0040000  0  5 19 06 11 15 02
  24110580.292    18211021.877 2  14190393.266 2
  22526794.726   -10527351.921 3  -8203119.646 2
  26120193.165    10275250.998 2   8006679.458 1
  25788110.959      -29119.624 2    -22687.591 1
  21968980.787   -11952272.320 4  -9313445.563 4
 91  5 28 20 11  0.0040000  0  5 19 06 11 15 02
  24120127.481    18261157.633 2  14229460.044 1
  22525071.814   -10536386.088 3  -8210159.253 2
  26131543.005    10334829.637 2   8053104.240 1
  25785191.581      -44503.439 2    -34674.914 1
  21970893.470   -11942225.391 4  -9305616.799 4
 91  5 28 20 11 15.0040000  0  5 19 06 11 15 02
  24129680.071    18311361.983 2  14268580.260 1
  22523363.900   -10545359.960 3  -8217151.888 2
  26142894.948    10394491.433 2   8099593.896 1
  25782271.906      -59793.448 2    -46589.136 1
  21972820.236   -11932097.869 4  -9297725.241 4
 91  5 28 20 11 30.0040000  0  5 19 06 11 15 02
  24139238.654    18361628.286 2  14307748.760 1
  22521671.273   -10554280.001 3  -8224102.570 2
  26154254.987    10454229.547 2   8146143.043 1
  25779383.407      -74995.754 2    -58435.118 1
  21974762.585   -11921896.193 4  -9289775.893 4
 91  5 28 20 11 45.0040000  0  5 19 06 11 15 02
  24148819.120    18411962.848 2  14346970.436 2
  22519981.943   -10563139.673 3  -8231006.219 3
  26165633.009    10514049.690 2   8192756.024 1
  25776503.894      -90103.752 2    -70207.589 1
  21976718.135   -11911614.198 4  -9281763.961 4
 91  5 28 20 12  0.0040000  0  5 19 06 11 15 02
  24158405.581    18462362.128 2  14386242.554 1
  22518309.401   -10571942.303 3  -8237865.412 3
  26177046.411    10573948.062 2   8239429.974 1
  25773642.974     -105120.470 2    -81908.875 1
  21978688.674   -11901255.432 4  -9273692.208 4
 91  5 28 20 12 15.0040000  0  5 19 06 11 15 02
  24168014.229    18512831.011 2  14425568.885 1
  22516644.353   -10580682.806 3  -8244676.201 2
  26188439.719    10633929.368 2   8286168.600 1
  25770818.334     -120040.756 2    -93535.077 1
  21980675.993   -11890815.087 4  -9265556.891 4
 91  5 28 20 12 30.0040000  0  5 19 06 11 15 02
  24177633.670    18563362.617 2  14464944.123 1
  22514990.998   -10589367.667 3  -8251443.617 2
  26199875.004    10693986.398 2   8332966.247 1
  25767987.996     -134870.991 2   -105091.047 1
  21982677.410   -11880300.064 4  -9257363.377 4
 91  5 28 20 12 45.0040000  0  5 19 06 11 15 02
  24187254.010    18613955.977 2  14504367.482 1
  22513349.334   -10597997.632 3  -8258168.261 2
  26211316.580    10754117.904 2   8379821.880 1
  25765184.034     -149611.895 2   -116577.434 1
  21984690.816   -11869711.344 4  -9249112.437 4
 91  5 28 20 13  0.0040000  0  5 19 06 11 15 02
  24196905.830    18664616.605 2  14543843.273 1
  22511718.759   -10606567.176 3  -8264845.827 2
  26222787.838    10814328.929 2   8426739.447 1
  25762390.865     -164257.450 2   -127989.614 1
  21986723.112   -11859043.546 4  -9240799.877 3
 91  5 28 20 13 15.0040000  0  5 19 06 11 15 02
  24206551.054    18715343.131 2  14583370.366 1
  22510097.180   -10615077.198 3  -8271477.018 2
  26234241.114    10874618.106 2   8473717.972 1
  25759629.176     -178808.546 2   -139328.069 1
  21988764.692   -11848297.641 4  -9232426.455 4
 91  5 28 20 13 30.0040000  0  5 19 06 11 15 02
  24216209.471    18766130.363 2  14622944.785 1
  22508491.498   -10623532.668 3  -8278065.699 3
  26245748.643    10934979.823 2   8520752.989 1
  25756870.192     -193270.015 2   -150596.705 1
  21990823.669   -11837478.988 4  -9223996.353 4
 91  5 28 20 13 45.0040000  0  5 19 06 11 15 02
  24225888.565    18816976.296 2  14662564.946 2
  22506893.599   -10631935.492 3  -8284613.347 2
  26257240.588    10995411.278 2   8567842.323 1
  25754135.786     -207643.408 2   -161796.749 1
  21992896.738   -11826589.867 4  -9215511.329 4
 91  5 28 20 14  0.0040000  0  5 19 06 11 15 02
  24235585.355    18867887.233 2  14702235.752 1
  22505304.705   -10640279.178 3  -8291114.923 3
  26268752.026    11055918.929 2   8614991.058 1
  25751427.155     -221922.236 2   -172923.138 1
  21994983.592   -11815623.949 4  -9206966.463 4
 91  5 28 20 14 15.0040000  0  5 19 06 11 15 02
  24245277.947    18918858.751 2  14741953.740 1
  22503725.992   -10648567.817 3  -8297573.590 3
  26280287.440    11116498.032 2   8662195.457 1
  25748722.126     -236110.322 2   -183978.727 1
  21997086.334   -11804585.681 4  -9198365.221 4
 91  5 28 20 14 30.0040000  0  5 19 06 11 15 02
  24254989.124    18969889.333 2  14781717.810 1
  22502159.879   -10656802.427 3  -8303990.170 3
  26291816.851    11177146.723 2   8709454.098 1
  25746037.192     -250208.593 2   -194964.374 1
  21999198.971   -11793476.241 4  -9189708.528 4
 91  5 28 20 14 45.0040000  0  5 19 06 11 15 02
  24264710.789    19020979.203 2  14821528.050 2
  22500603.058   -10664982.860 3  -8310364.538 3
  26303377.751    11237864.852 2   8756766.825 1
  25743375.633     -264216.850 2   -205879.827 1
  22001324.800   -11782295.717 4  -9180996.444 4
 91  5 28 20 15  0.0040000  0  5 19 06 11 15 02
  24274443.255    19072125.702 2  14861382.399 1
  22499058.530   -10673111.574 3  -8316698.600 3
  26314953.938    11298649.368 2   8804131.220 1
  25740730.564     -278137.192 2   -216726.864 1
  22003466.221   -11771046.800 4  -9172231.063 4
 91  5 28 20 15 15.0040000  0  5 19 06 11 15 02
  24284195.205    19123333.416 2  14901284.445 1
  22497520.293   -10681183.592 3  -8322988.479 3
  26326536.415    11359504.718 2   8851550.893 1
  25738098.085     -291964.662 2   -227501.506 1
  22005619.028   -11759724.763 4  -9163408.702 4
 91  5 28 20 15 30.0040000  0  5 19 06 11 15 02
  24293950.452    19174603.506 2  14941235.114 1
  22495996.148   -10689197.442 3  -8329233.042 3
  26338129.389    11420431.826 2   8899026.475 1
  25735484.793     -305697.473 2   -238202.381 1
  22007789.827   -11748328.280 4  -9154528.338 4
 91  5 28 20 15 45.0040000  0  6 19 06 13 11 15 02
  24303720.681    19225930.969 2  14981230.527 1
  22494480.692   -10697157.960 3  -8335436.041 2
  25648319.838           0.118 2         0.287 1
  26349719.971    11481425.213 2   8946553.717 1
  25732890.390     -319340.322 2   -248833.173 1
  22009973.512   -11736862.697 4  -9145594.132 4
 91  5 28 20 16  0.0040000  0  6 19 06 13 11 15 02
  24313492.419    19277312.948 2  15021268.356 1
  22492975.140   -10705067.704 3  -8341599.480 2
  25639186.063      -47993.825 2    -37397.431 1
  26361346.816    11542481.899 2   8994130.292 1
  25730299.888     -332895.865 2   -259395.911 1
  22012168.889   -11725330.825 4  -9136608.267 4
 91  5 28 20 16 15.0040000  0  6 19 06 13 11 15 02
  24323281.843    19328751.937 2  15061350.666 1
  22491481.270   -10712923.998 3  -8347721.263 3
  25630065.174      -95967.648 2    -74779.529 1
  26372976.671    11603603.705 2   9041757.565 1
  25727744.155     -346361.085 2   -269888.312 1
  22014376.865   -11713730.085 4  -9127568.738 4
 91  5 28 20 16 30.0050000  0  6 19 06 13 11 15 02
  24333084.454    19380248.708 2  15101477.958 1
  22489995.204   -10720729.666 3  -8353803.609 2
  25620943.687     -143926.632 2   -112150.082 1
  26384619.110    11664792.126 2   9089436.760 1
  25725197.718     -359739.038 2   -280312.713 1
  22016595.332   -11702062.233 4  -9118476.908 4
 91  5 28 20 16 45.0050000  0  6 19 06 13 11 15 02
  24342886.171    19431803.164 2  15141650.206 1
  22488517.825   -10728476.936 3  -8359840.432 2
  25611810.217     -191857.467 2   -149498.669 1
  26396273.840    11726045.061 2   9137166.162 1
  25722672.863     -373020.990 2   -290662.222 1
  22018825.487   -11690322.177 4  -9109328.820 4
 91  5 28 20 17  0.0050000  0  6 19 06 13 11 15 02
  24352710.068    19483416.335 2  15181868.186 1
  22487056.937   -10736168.275 3  -8365833.680 2
  25602698.018     -239765.063 2   -186829.127 1
  26407943.263    11787364.022 2   9184947.014 1
  25720163.601     -386209.556 2   -300939.009 1
  22021076.024   -11678511.484 4  -9100125.698 4
 91  5 28 20 17 15.0050000  0  6 19 06 13 11 15 02
  24362541.765    19535084.627 2  15222129.179 1
  22485605.340   -10743806.978 3  -8371785.917 2
  25593583.429     -287652.675 2   -224143.990 1
  26419629.473    11848745.395 2   9232776.562 1
  25717670.226     -399308.030 2   -311145.609 1
  22023334.362   -11666633.816 4  -9090870.382 4
 91  5 28 20 17 30.0050000  0  6 19 06 13 11 15 02
  24372389.045    19586807.283 2  15262432.482 1
  22484158.839   -10751393.469 3  -8377697.469 3
  25584471.842     -335520.340 2   -261443.386 1
  26431314.479    11910187.947 2   9280653.754 1
  25715189.748     -412316.940 2   -321282.431 1
  22025609.792   -11654689.900 4  -9081563.446 3
 91  5 28 20 17 45.0050000  0  6 19 06 13 11 15 02
  24382239.623    19638587.645 2  15302780.714 1
  22482727.930   -10758924.336 3  -8383565.681 3
  25575370.742     -383364.695 2   -298724.577 1
  26443027.676    11971694.932 2   9328581.157 1
  25712737.442     -425232.343 2   -331346.346 1
  22027894.208   -11642676.551 4  -9072202.399 4
 91  5 28 20 18  0.0050000  0  6 19 06 13 11 15 02
  24392107.895    19690423.189 2  15343172.040 1
  22481305.415   -10766401.663 3  -8389392.165 3
  25566273.533     -431187.753 2   -335989.077
  26454734.870    12033263.297 2   9376556.332 1
  25710285.137     -438056.363 2   -341339.071 1
  22030193.318   -11630596.109 4  -9062789.076 4
 91  5 28 20 18 15.0050000  0  6 19 06 13 11 15 02
  24401978.864    19742318.487 2  15383609.893 1
  22479891.293   -10773820.792 3  -8395173.292 3
  25557171.535     -478984.516 2   -373233.233 1
  26466469.644    12094897.294 2   9424582.703 1
  25707868.509     -450784.289 2   -351256.887 1
  22032505.917   -11618444.173 4  -9053320.046 4
 91  5 28 20 18 30.0050000  0  6 19 06 13 11 15 02
  24411871.113    19794268.187 2  15424090.139 1
  22478490.965   -10781186.762 3  -8400913.005 3
  25548088.426     -526759.940 2   -410460.694 1
  26478197.229    12156591.211 2   9472655.746 1
  25705465.675     -463420.829 2   -361103.554 1
  22034831.699   -11606226.066 4  -9043799.445 4
 91  5 28 20 18 45.0050000  0  6 19 06 13 11 15 02
  24421758.573    19846274.344 2  15464614.347 1
  22477102.024   -10788497.333 3  -8406609.548 3
  25538993.625     -574511.638 2   -447669.757 1
  26489964.382    12218346.823 2   9520776.840 1
  25703074.236     -475963.797 2   -370877.315 1
  22037170.386   -11593939.739 4  -9034225.690 4
 91  5 28 20 19  0.0050000  0  6 19 06 13 11 15 02
  24431672.408    19898335.756 2  15505181.588 1
  22475716.389   -10795753.319 3  -8412263.558 3
  25529919.207     -622239.921 2   -484860.504 1
  26501726.134    12280162.923 2   9568945.159 1
  25700708.868     -488413.676 2   -380578.435 1
  22039518.662   -11581586.254 4  -9024599.608 4
 91  5 28 20 19 15.0050000  0  6 19 06 13 11 15 02
  24441585.641    19950450.377 2  15545790.336 1
  22474346.338   -10802956.411 3  -8417876.348 3
  25520835.792     -669946.312 2   -522034.233 1
  26513501.986    12342037.007 2   9617158.580 1
  25698355.200     -500772.140 2   -390208.457 1
  22041884.920   -11569167.624 4  -9014922.757 4
 91  5 28 20 19 30.0050000  0  6 19 06 13 11 15 02
  24451509.972    20002625.130 2  15586445.931 1
  22472990.368   -10810099.470 3  -8423442.368 3
  25511761.374     -717623.680 2   -559185.330 1
  26525285.027    12403975.969 2   9665422.667 1
  25696022.516     -513031.913 2   -399761.505 1
  22044263.176   -11556676.911 4  -9005189.748 4
 91  5 28 20 19 45.0050000  0  6 19 06 13 11 15 02
  24461455.890    20054852.609 2  15627142.593 1
  22471639.503   -10817189.824 3  -8428967.310 2
  25502692.949     -765278.955 2   -596319.085 1
  26537082.457    12465971.686 2   9713730.906 1
  25693713.512     -525200.013 2   -409243.059 1
  22046647.722   -11544121.624 4  -8995406.416 4
 91  5 28 20 20  0.0050000  0  5 19 06 13 15 02
  24471401.798    20107132.919 2  15667880.467 1
  22470301.831   -10824226.945 3  -8434450.775 2
  25493630.825     -812911.465 2   -633435.185 1
  25691418.005     -537275.768 2   -418652.759 1
  22049053.557   -11531501.592 4  -8985572.626 4
 91  5 28 20 20 15.0050000  0  5 19 06 13 15 02
  24481358.212    20159470.426 2  15708662.916 1
  22468972.255   -10831206.276 3  -8439889.206 3
  25484563.604     -860516.630 2   -670530.032 1
  25689137.480     -549254.592 2   -427986.880 1
  22051469.287   -11518812.627 4  -8975685.124 4
 91  5 28 20 20 30.0050000  0  5 19 06 13 15 02
  24491329.903    20211863.649 2  15749488.767 1
  22467652.870   -10838129.037 3  -8445283.569 3
  25475515.265     -908095.451 2   -707604.285 1
  25686868.952     -561137.751 2   -437246.496 1
  22053894.309   -11506056.141 4  -8965745.021 4
 91  5 28 20 20 45.0050000  0  5 19 06 13 15 02
  24501318.391    20264308.819 2  15790355.035 1
  22466349.069   -10844998.850 3  -8450636.659 3
  25466468.130     -955651.407 2   -744660.818 1
  25684633.998     -572928.530 2   -446434.094 1
  22056329.521   -11493235.920 4  -8955755.242 4
 91  5 28 20 21  0.0050000  0  5 19 06 13 15 02
  24511297.882    20316808.417 2  15831263.769 1
  22465050.371   -10851812.832 3  -8455946.246 3
  25457415.899    -1003181.385 2   -781697.041 1
  25682393.948     -584623.811 2   -455547.232 1
  22058786.617   -11480349.381 4  -8945713.789 4
 91  5 28 20 21 15.0050000  0  5 19 06 13 15 02
  24521299.858    20369366.816 2  15872218.278 1
  22463767.257   -10858566.577 3  -8461208.899 2
  25448375.657    -1050680.660 2   -818709.343 1
  25680196.172     -596219.193 2   -464582.635 1
  22061252.114   -11467392.476 4  -8935617.509 4
 91  5 28 20 21 30.0050000  0  5 19 06 13 15 02
  24531318.918    20421976.944 2  15913213.096 1
  22462489.840   -10865266.592 3  -8466429.697 3
  25439349.505    -1098155.579 2   -855702.681 1
  25678014.877     -607721.048 2   -473545.158 1
  22063731.101   -11454371.972 4  -8925471.673 4
 91  5 28 20 21 45.0050000  0  5 19 06 13 15 02
  24541334.384    20474644.404 2  15954252.624 1
  22461226.217   -10871906.987 3  -8471604.023 3
  25430320.955    -1145600.169 2   -892672.470 1
  25675840.484     -619123.488 2   -482430.126 1
  22066219.075   -11441282.162 4  -8915271.832 4
 91  5 28 20 22  0.0050000  0  5 19 06 13 15 02
  24551365.746    20527365.203 2  15995333.706 1
  22459970.682   -10878491.585 3  -8476734.875 3
  25421295.702    -1193017.964 2   -929621.647 1
  25673693.671     -630430.070 2   -491240.509 1
  22068722.945   -11428127.053 4  -8905021.104 4
 91  5 28 20 22 15.0050000  0  5 19 06 13 15 02
  24561418.380    20580143.996 2  16036460.021 1
  22458734.343   -10885015.390 3  -8481818.352 3
  25412288.441    -1240404.084 2   -966545.781 1
  25671550.156     -641635.774 2   -499972.186 1
  22071237.600   -11414902.172 4  -8894716.005 4
 91  5 28 20 22 30.0050000  0  5 19 06 13 15 02
  24571462.926    20632978.426 2  16077629.621 1
  22457503.091   -10891480.570 3  -8486856.138 3
  25403264.087    -1287760.205 2  -1003446.474 1
  25669441.114     -652742.530 2   -508626.791 1
  22073771.450   -11401609.726 4  -8884358.266 4
 91  5 28 20 22 45.0050000  0  5 19 06 13 15 02
  24581534.756    20685872.665 2  16118845.856 1
  22456284.437   -10897882.660 3  -8491844.779 3
  25394263.421    -1335081.764 2  -1040320.363 1
  25667343.763     -663745.700 2   -517200.653 1
  22076310.989   -11388245.711 4  -8873944.759 4
 91  5 28 20 23  0.0050000  0  5 19 06 13 15 02
  24591613.478    20738822.554 2  16160105.417 1
  22455077.170   -10904225.618 3  -8496787.333 3
  25385261.552    -1382372.746 2  -1077170.334 1
  25665276.698     -674649.228 2   -525696.881 1
  22078868.519   -11374814.097 4  -8863478.576 4
 91  5 28 20 23 15.0050000  0  5 19 06 13 15 02
  24601696.397    20791829.814 2  16201409.789 1
  22453880.399   -10910507.495 3  -8501682.296 3
  25376268.975    -1429630.949 2  -1113994.788 1
  25663216.229     -685450.982 2   -534113.825 1
  22081437.139   -11361313.289 4  -8852958.476 3
 91  5 28 20 23 30.0050000  0  5 19 06 13 15 02
  24611799.706    20844898.830 2  16242762.197 1
  22452700.119   -10916723.427 3  -8506525.861 3
  25367284.198    -1476851.202 2  -1150789.648 1
  25661181.237     -696146.020 2   -542447.616 1
  22084019.850   -11347738.687 4  -8842380.859 4
 91  5 28 20 23 45.0050000  0  5 19 06 13 15 02
  24621908.112    20898029.181 2  16284162.426 1
  22451530.030   -10922873.632 3  -8511318.219 3
  25358307.213    -1524033.576 2  -1187555.047 1
  25659162.735     -706734.564 2   -550698.474 1
  22086618.152   -11334090.873 4  -8831746.209 4
 91  5 28 20 24  0.0050000  0  5 19 06 13 15 02
  24632029.098    20951223.264 2  16325612.313 1
  22450370.131   -10928955.515 3  -8516057.347 3
  25349340.715    -1571175.136 2  -1224288.532 1
  25657170.313     -717213.907 2   -558864.195 1
  22089223.348   -11320367.533 4  -8821052.710 4
 91  5 28 20 24 15.0050000  0  5 19 06 13 15 02
  24642162.684    21004476.720 2  16367108.435 1
  22449226.723   -10934973.098 3  -8520746.369 3
  25340371.827    -1618279.772 2  -1260993.366 1
  25655197.077     -727587.791 2   -566947.671 1
  22091853.130   -11306572.951 4  -8810303.695 4
 91  5 28 20 24 30.0050000  0  5 19 06 13 15 02
  24652308.860    21057794.748 2  16408654.875 1
  22448092.311   -10940920.989 3  -8525381.078 3
  25331424.219    -1665342.024 2  -1297665.019 1
  25653247.827     -737850.706 2   -574944.778 1
  22094492.502   -11292701.851 4  -8799495.050 4
 91  5 28 20 24 45.0050000  0  5 19 06 13 15 02
  24662458.038    21111177.743 2  16450251.951 1
  22446975.880   -10946798.400 3  -8529960.869 3
  25322462.520    -1712360.984 2  -1334303.151 1
  25651311.167     -748001.663 2   -582854.553 1
  22097145.668   -11278753.863 4  -8788626.493 4
 91  5 28 20 25  0.0050000  0  5 19 06 13 15 02
  24672633.888    21164621.961 2  16491896.743 1
  22445868.446   -10952608.750 3  -8534488.402 3
  25313528.706    -1759339.930 2  -1370909.966 1
  25649400.289     -758044.147 2   -590679.880 1
  22099816.214   -11264732.600 4  -8777700.841 4
 91  5 28 20 25 15.0050000  0  5 19 06 13 15 02
  24682818.140    21218128.124 2  16533589.771 2
  22444775.103   -10958351.204 3  -8538963.033 3
  25304590.696    -1806277.973 2  -1407484.923 1
  25647513.100     -767977.204 2   -598419.938 1
  22102499.962   -11250637.611 4  -8766717.745 4
 91  5 28 20 25 30.0050000  0  5 19 06 13 15 02
  24693014.678    21271693.154 2  16575328.743 1
  22443697.953   -10964028.393 3  -8543386.814 3
  25295670.974    -1853177.288 2  -1444029.755 1
  25645651.982     -777803.350 2   -606076.575 1
  22105193.595   -11236471.773 4  -8755679.434 3
 91  5 28 20 25 45.0050000  0  5 19 06 13 15 02
  24703221.711    21325315.552 2  16617112.329 1
  22442628.290   -10969641.603 3  -8547760.745 3
  25286758.144    -1900038.824 2  -1480545.135 1
  25643793.272     -787523.724 2   -613650.955 1
  22107901.319   -11222236.471 4  -8744586.995 4
 91  5 28 20 26  0.0050000  0  5 19 06 13 15 02
  24713429.050    21378996.697 2  16658941.799 1
  22441570.327   -10975189.172 3  -8552083.509 3
  25277847.714    -1946861.110 2  -1517029.870 1
  25641963.940     -797136.572 2   -621141.496 1
  22110623.431   -11207930.328 4  -8733439.363 4
 91  5 28 20 26 15.0050000  0  5 19 06 13 15 02
  24723657.967    21432732.527 2  16700813.803 1
  22440524.648   -10980675.058 3  -8556358.218 3
  25268943.575    -1993647.552 2  -1553486.636 1
  25640144.493     -806645.815 2   -628551.297 1
  22113359.939   -11193557.572 4  -8722239.823 4
 91  5 28 20 26 30.0050000  0  5 19 06 13 15 02
  24733888.689    21486520.438 2  16742726.384 1
  22439497.555   -10986101.404 3  -8560586.535 3
  25260049.635    -2040400.242 2  -1589917.223 1
  25638369.727     -816053.489 2   -635881.922 1
  22116105.443   -11179120.655 4  -8710990.285 4
 91  5 28 20 26 45.0050000  0  5 19 06 13 15 02
  24744134.392    21540360.047 2  16784679.278 1
  22438473.471   -10991468.392 3  -8564768.597 3
  25251155.390    -2087119.215 2  -1626321.575 1
  25636597.649     -825359.519 2   -643133.333 1
  22118865.928   -11164620.088 4  -8699691.146 3
 91  5 28 20 27  0.0050000  0  5 19 06 13 15 02
  24754389.990    21594252.377 2  16826673.197 1
  22437467.065   -10996774.738 3  -8568903.403 3
  25242270.437    -2133803.033 2  -1662698.453 1
  25634836.669     -834562.471 2   -650304.524 1
  22121639.308   -11150054.962 4  -8688341.699 3
 91  5 28 20 27 15.0050000  0  5 19 06 13 15 02
  24764650.692    21648196.801 2  16868707.716 1
  22436464.559   -11002020.766 3  -8572991.213 3
  25233396.582    -2180452.086 2  -1699048.311 1
  25633111.968     -843662.674 2   -657395.523 1
  22124422.278   -11135425.727 4  -8676942.301 4
 91  5 28 20 27 30.0050000  0  5 19 06 13 15 02
  24774942.263    21702191.221 2  16910781.229 1
  22435477.644   -11007208.098 3  -8577033.272 3
  25224529.621    -2227067.609 2  -1735371.943 1
  25631395.652     -852661.712 2   -664407.751 1
  22127220.246   -11120734.144 4  -8665494.320 4
 91  5 28 20 27 45.0050000  0  5 19 06 13 15 02
  24785213.453    21756230.199 2  16952889.487 1
  22434500.318   -11012342.004 3  -8581033.725 3
  25215657.267    -2273654.793 2  -1771673.443 1
  25629700.930     -861564.815 2   -671345.212 1
  22130026.302   -11105985.845 4  -8654002.149 4
 91  5 28 20 28  0.0050000  0  5 19 06 13 15 02
  24795511.027    21810312.089 2  16995031.182 1
  22433536.185   -11017423.998 3  -8584993.711 3
  25206798.995    -2320214.899 2  -1807954.009 1
  25628017.595     -870373.395 2   -678209.054 1
  22132839.853   -11091182.597 4  -8642467.150 4
 91  5 28 20 28 15.0050000  0  5 19 06 13 15 02
  24805810.695    21864433.092 2  17037203.353 1
  22432579.547   -11022457.528 3  -8588915.938 3
  25197941.631    -2366751.211 2  -1844215.988 1
  25626359.144     -879090.472 2   -685001.581 1
  22135668.995   -11076328.192 4  -8630892.297 4
 91  5 28 20 28 30.0050000  0  5 19 06 13 15 02
  24816110.660    21918591.021 2  17079404.285 1
  22431631.302   -11027444.326 3  -8592801.749 3
  25189091.151    -2413265.365 2  -1880460.644 1
  25624724.372     -887717.850 2   -691724.170 1
  22138502.030   -11061424.599 4  -8619279.113 4
 91  5 28 20 28 45.0050000  0  5 19 06 13 15 02
  24826431.015    21972785.606 2  17121633.742 1
  22430691.154   -11032384.535 4  -8596651.259 3
  25180242.478    -2459757.156 2  -1916687.950 1
  25623091.704     -896255.755 2   -698377.071 1
  22141346.162   -11046472.283 4  -8607627.959 4
 91  5 28 20 29  0.0050000  0  5 19 06 13 15 02
  24836749.879    22027014.433 2  17163889.883 1
  22429757.306   -11037280.141 3  -8600466.010 3
  25171396.805    -2506228.434 2  -1952899.185 1
  25621493.805     -904705.916 2   -704961.631 1
  22144203.784   -11031473.546 4  -8595940.629 3
 91  5 28 20 29 15.0050000  0  5 19 06 13 15 02
  24847076.228    22081281.830 2  17206176.076 1
  22428833.343   -11042126.506 3  -8604242.392 3
  25162559.823    -2552674.393 2  -1989090.717 1
  25619897.712     -913063.690 2   -711474.192 1
  22147067.103   -11016423.990 4  -8584213.706 3
 91  5 28 20 29 30.0050000  0  5 19 06 13 15 02
  24857406.775    22135581.919 2  17248487.776 1
  22427920.775   -11046929.228 4  -8607984.772 3
  25153731.531    -2599100.474 2  -2025266.794 1
  25618331.895     -921334.871 2   -717919.212 1
  22149940.612   -11001329.526 4  -8572451.794 4
 91  5 28 20 29 45.0050000  0  5 19 06 13 15 02
  24867754.710    22189920.988 2  17290829.865 1
  22427015.999   -11051681.838 3  -8611688.101 3
  25144891.853    -2645500.040 2  -2061422.171 1
  25616764.281     -929512.344 2   -724291.262 1
  22152825.221   -10986183.769 4  -8560649.914 4
 91  5 28 20 30  0.0050000  0  5 19 06 13 15 02
  24878090.954    22244294.363 2  17333198.722 1
  22426118.420   -11056388.713 3  -8615355.789 3
  25136070.157    -2691877.183 2  -2097560.134 1
  25615226.350     -937600.547 2   -730593.760 1
  22155714.322   -10970991.388 4  -8548811.690 4
 91  5 28 20 30 15.0050000  0  5 19 06 13 15 02
  24888437.991    22298702.045 2  17375594.218 1
  22425231.339   -11061049.573 3  -8618987.629 3
  25127246.367    -2738231.656 2  -2133680.344 1
  25613705.197     -945599.230 2   -736826.502 1
  22158613.615   -10955752.498 4  -8536937.234 4
 91  5 28 20 30 30.0050000  0  5 19 06 13 15 02
  24898807.216    22353148.083 2  17418019.677 1
  22424357.737   -11065659.966 3  -8622580.127 3
  25118430.971    -2784558.812 2  -2169779.305 1
  25612197.245     -953503.861 2   -742985.885 1
  22161522.200   -10940462.877 4  -8525023.255 4
 91  5 28 20 30 45.0050000  0  5 19 06 13 15 02
  24909178.534    22407633.906 2  17460476.089 1
  22423491.343   -11070218.332 3  -8626132.107 3
  25109620.975    -2830856.640 2  -2205855.445 1
  25610721.367     -961312.632 2   -749070.693 1
  22164442.773   -10925121.214 4  -8513068.711 4
 91  5 28 20 31  0.0050000  0  5 19 06 13 15 02
  24919547.454    22462165.588 2  17502968.232 1
  22422635.130   -11074718.309 3  -8629638.583 3
  25100816.363    -2877118.854 2  -2241903.756 1
  25609256.281     -969019.258 2   -755075.820 1
  22167374.148   -10909721.568 4  -8501068.993 4
 91  5 28 20 31 15.0050000  0  5 19 06 13 15 02
  24929940.358    22516737.751 2  17545491.919 1
  22421790.016   -11079164.826 3  -8633103.397 3
  25092019.560    -2923350.174 2  -2277927.969 1
  25607804.388     -976628.611 2   -761005.192 1
  22170314.213   -10894269.092 4  -8489028.104 4
 91  5 28 20 31 30.0050000  0  5 19 06 13 15 02
  24940335.069    22571355.566 2  17588051.171 1
  22420951.795   -11083552.499 3  -8636522.353 3
  25083235.339    -2969545.066 2  -2313924.012 1
  25606381.567     -984135.132 2   -766854.417 1
  22173264.172   -10878758.363 4  -8476941.824 4
 91  5 28 20 31 45.0050000  0  5 19 06 13 15 02
  24950736.062    22626016.997 2  17630644.438 1
  22420127.665   -11087883.022 3  -8639896.782 3
  25074448.718    -3015705.058 2  -2349892.730 1
  25604967.751     -991540.632 2   -772624.991 1
  22176227.620   -10863191.657 4  -8464811.933 4
 91  5 28 20 32  0.0050000  0  5 19 06 13 15 02
  24961138.268    22680720.617 2  17673270.552 1
  22419316.727   -11092157.537 3  -8643227.570 3
  25065671.101    -3061831.107 2  -2385834.964 1
  25603579.708     -998845.948 2   -778317.395 1
  22179199.157   -10847570.452 4  -8452639.568 3
 91  5 28 20 32 15.0050000  0  5 19 06 13 15 02
  24971562.347    22735473.452 2  17715935.076 1
  22418512.987   -11096368.839 3  -8646509.111 3
  25056903.667    -3107915.835 2  -2421745.049 1
  25602215.354    -1006043.968 2   -783926.235 1
  22182181.495   -10831887.592 4  -8440419.157 4
 91  5 28 20 32 30.0050000  0  5 19 06 13 15 02
  24981999.925    22790275.879 2  17758638.148 1
  22417724.534   -11100516.250 3  -8649740.857 3
  25048138.038    -3153958.460 2  -2457622.331 1
  25600854.298    -1013133.759 2   -789450.758 1
  22185183.316   -10816142.748 4  -8428150.458 4
 91  5 28 20 32 45.0050000  0  5 19 06 13 15 02
  24992424.301    22845127.863 2  17801379.917 1
  22416945.373   -11104599.443 3  -8652922.563 3
  25039383.194    -3199958.312 2  -2493466.286 1
  25599529.513    -1020114.877 2   -794890.574 1
  22188186.935   -10800335.788 4  -8415833.349 4
 91  5 28 20 33  0.0050000  0  5 19 06 13 15 02
  25002876.266    22900029.695 2  17844160.495 1
  22416179.099   -11108617.816 3  -8656053.756 3
  25030645.443    -3245914.808 2  -2529276.433 1
  25598229.018    -1026986.896 2   -800245.334 1
  22191206.451   -10784466.576 4  -8403467.733 4
 91  5 28 20 33 15.0050000  0  5 19 06 13 15 02
  25013339.626    22954980.240 2  17886979.059 1
  22415424.822   -11112572.081 3  -8659135.008 3
  25021905.292    -3291828.504 2  -2565053.566 1
  25596943.504    -1033750.465 2   -805515.731 1
  22194240.643   -10768536.047 4  -8391054.335 4
 91  5 28 20 33 30.0050000  0  5 19 06 13 15 02
  25023801.485    23009982.298 2  17929837.777 1
  22414691.233   -11116459.318 3  -8662164.023 3
  25013175.943    -3337696.157 2  -2600794.620 1
  25595670.885    -1040402.530 2   -810699.097 1
  22197281.142   -10752541.479 4  -8378591.044 4
 91  5 28 20 33 45.0050000  0  5 19 06 13 15 02
  25034273.832    23065031.490 2  17972733.139 1
  22413962.738   -11120283.554 3  -8665143.939 3
  25004455.275    -3383521.662 2  -2636502.686 1
  25594422.549    -1046946.907 2   -815798.644 1
  22200337.225   -10736487.209 4  -8366081.229 4
 91  5 28 20 34  0.0050000  0  5 19 06 13 15 02
  25044765.374    23120132.108 2  18015668.602 1
  22413247.428   -11124040.186 3  -8668071.186 3
  24995748.401    -3429300.280 2  -2672174.251 1
  25593207.491    -1053378.996 2   -820810.650 1
  22203403.804   -10720368.884 4  -8353521.502 4
 91  5 28 20 34 15.0050000  0  5 19 06 13 15 02
  25055253.906    23175284.165 2  18058644.163 1
  22412545.318   -11127728.960 3  -8670945.543 3
  24987036.738    -3475031.505 2  -2707809.198 1
  25592005.022    -1059698.332 2   -825734.812 1
  22206484.771   -10704186.536 4  -8340911.887 3
 91  5 28 20 34 30.0050000  0  5 19 06 13 15 02
  25065767.034    23230495.596 2  18101665.995 1
  22411859.088   -11131341.485 3  -8673760.495 3
  24978355.045    -3520706.741 2  -2743400.381 1
  25590825.344    -1065896.653 2   -830564.657 1
  22209578.328   -10687932.064 4  -8328246.068 4
 91  5 28 20 34 45.0050000  0  5 19 06 13 15 02
  25076278.958    23285767.318 2  18144734.782 1
  22411185.458   -11134876.653 3  -8676515.174 3
  24969673.658    -3566324.758 2  -2778946.645 1
  25589664.843    -1071972.514 2   -835299.063 1
  22212682.984   -10671604.667 4  -8315523.431 4
 91  5 28 20 35  0.0050000  0  5 19 06 13 15 02
  25086807.965    23341096.984 2  18187848.731 1
  22410529.809   -11138336.472 3  -8679211.136 3
  24960994.059    -3611887.391 2  -2814449.917 1
  25588523.835    -1077928.061 2   -839939.777 1
  22215803.222   -10655206.553 4  -8302745.689 4
 91  5 28 20 35 15.0050000  0  5 19 06 13 15 02
  25097347.766    23396484.345 2  18231007.641 1
  22409879.867   -11141720.791 3  -8681848.267 3
  24952337.853    -3657394.294 2  -2849909.711 1
  25587409.507    -1083763.006 2   -844486.483 1
  22218939.053   -10638737.764 4  -8289912.872 4
 91  5 28 20 35 30.0050000  0  5 19 06 13 15 02
  25107903.158    23451930.524 2  18274212.355 1
  22409251.494   -11145028.399 3  -8684425.627 3
  24943684.944    -3702844.257 2  -2885325.243 1
  25586329.051    -1089476.153 2   -848938.265 1
  22222090.466   -10622197.405 4  -8277024.289 3
 91  5 28 20 35 45.0050000  0  5 19 06 13 15 02
  25118466.648    23507438.613 2  18317465.369 1
  22408638.424   -11148255.785 3  -8686940.463 3
  24935043.430    -3748233.717 2  -2920693.519 1
  25585270.189    -1095063.993 2   -853292.471 1
  22225250.875   -10605582.465 4  -8264077.587 4
 91  5 28 20 36  0.0050000  0  5 19 06 13 15 02
  25129027.738    23563008.465 2  18360766.558 1
  22408041.836   -11151402.750 3  -8689392.648 3
  24926426.495    -3793561.981 2  -2956014.128 1
  25584228.411    -1100526.367 2   -857548.851 1
  22228424.485   -10588892.921 4  -8251072.764 4
 91  5 28 20 36 15.0050000  0  5 19 06 13 15 02
  25139622.402    23618639.573 2  18404115.379 1
  22407455.142   -11154469.414 3  -8691782.252 3
  24917809.560    -3838829.170 2  -2991287.204 1
  25583215.409    -1105863.254 2   -861707.437 1
  22231614.577   -10572129.232 4  -8238010.155 4
 91  5 28 20 36 30.0050000  0  5 19 06 13 15 02
  25150214.666    23674332.380 2  18447512.411
  22406889.432   -11157455.078 3  -8694108.743 3
  24909207.013    -3884034.535 2  -3026512.069 1
  25582221.898    -1111073.828 2   -865767.639 1
  22234819.353   -10555290.768 4  -8224889.275 4
 91  5 28 20 36 45.0050000  0  5 19 06 13 15 02
  25160836.317    23730086.108 2  18490956.696 1
  22406334.515   -11160360.388 3  -8696372.609 3
  24900621.558    -3929178.526 2  -3061689.013 1
  25581258.367    -1116158.708 2   -869729.890 1
  22238035.829   -10538378.430 4  -8211710.840 4
 91  5 28 20 37  0.0050000  0  5 19 06 13 15 02
  25171456.467    23785896.830 2  18534445.459 1
  22405799.989   -11163188.866 3  -8698576.615 3
  24892037.901    -3974264.271 2  -3096820.726 1
  25580313.420    -1121121.425 2   -873596.947 1
  22241267.889   -10521396.113 4  -8198477.881 4
 91  5 28 20 37 15.0050000  0  5 19 06 13 15 02
  25182081.111    23841759.603 2  18577974.845 1
  22405270.253   -11165945.055 3  -8700724.289 3
  24883468.029    -4019296.220 2  -3131910.459 1
  25579388.855    -1125966.353 2   -877372.169 1
  22244512.844   -10504348.801 4  -8185194.272 4
 91  5 28 20 37 30.0050000  0  5 19 06 13 15 02
  25192725.543    23897676.952 2  18621546.744 1
  22404758.211   -11168626.055 3  -8702813.383 3
  24874902.965    -4064271.374 2  -3166955.979 1
  25578489.480    -1130690.418 2   -881053.276 1
  22247769.788   -10487233.787 4  -8171857.907 4
 91  5 28 20 37 45.0050000  0  5 19 06 13 15 02
  25203371.171    23953649.616 2  18665161.740 1
  22404264.152   -11171231.034 3  -8704843.237 3
  24866366.371    -4109188.779 2  -3201956.447 1
  25577610.791    -1135293.056 2   -884639.739 1
  22251040.525   -10470050.462 4  -8158468.303 4
 91  5 28 20 38  0.0050000  0  5 19 06 13 15 02
  25214038.087    24009678.137 2  18708820.294 1
  22403787.185   -11173759.043 3  -8706813.116 3
  24857824.385    -4154047.434 2  -3236911.062 1
  25576765.677    -1139773.139 2   -888130.723 1
  22254320.852   -10452798.066 4  -8145024.885 4
 91  5 28 20 38 15.0050000  0  5 19 06 13 15 02
  25224705.597    24065758.924 2  18752519.523 1
  22403324.004   -11176213.298 3  -8708725.527 3
  24849301.288    -4198850.351 2  -3271822.349
  25575941.242    -1144133.765 2   -891528.578 1
  22257615.872   -10435479.991 4  -8131530.296 4
 91  5 28 20 38 30.0050000  0  5 19 06 13 15 02
  25235386.003    24121895.811 2  18796262.435 1
  22402868.920   -11178589.764 3  -8710577.323 3
  24840781.481    -4243593.141 2  -3306686.761 1
  25575126.413    -1148370.797 2   -894830.194 1
  22260925.585   -10418092.560 4  -8117981.660 4
 91  5 28 20 38 45.0050000  0  5 19 06 13 15 02
  25246079.907    24178086.377 2  18840047.184 1
  22402426.426   -11180890.469 3  -8712370.071 3
  24832281.768    -4288277.798 2  -3341505.889 1
  25574349.049    -1152486.320 2   -898037.110 1
  22264248.185   -10400638.187 4  -8104380.852 4
 91  5 28 20 39  0.0050000  0  5 19 06 13 15 02
  25256782.492    24234324.426 2  18883868.983 1
  22402001.914   -11183121.414 3  -8714108.475 3
  24823793.441    -4332910.064 2  -3376284.263 1
  25573582.775    -1156486.160 2   -901153.876 1
  22267582.773   -10383123.053 4  -8090732.703 4
 91  5 28 20 39 15.0050000  0  5 19 06 13 15 02
  25267493.479    24290597.665 2  18927718.212 1
  22401587.602   -11185294.492 3  -8715801.786 3
  24815310.515    -4377501.874 2  -3411031.014 1
  25572837.197    -1160382.266 2   -904189.781 1
  22270923.365   -10365559.500 4  -8077046.830 4
 91  5 28 20 39 30.0050000  0  5 19 06 13 15 02
  25278207.764    24346899.755 2  18971589.907 1
  22401187.085   -11187415.669 3  -8717454.646 3
  24806821.595    -4422058.822 2  -3445750.600 1
  25572116.189    -1164180.681 2   -907149.618 1
  22274275.935   -10347953.794 4  -8063328.110 4
 91  5 28 20 39 45.0050000  0  5 19 06 13 15 02
  25288926.543    24403229.060 2  19015482.790 1
  22400793.155   -11189486.297 3  -8719068.127 3
  24798347.359    -4466581.942 2  -3480443.901 1
  25571420.676    -1167882.725 2   -910034.279 1
  22277629.719   -10330307.420 4  -8049577.698 4
 91  5 28 20 40  0.0050000  0  5 19 06 13 15 02
  25299661.812    24459583.676 1  19059395.379 1
  22400406.118   -11191507.992 3  -8720643.480 3
  24789889.317    -4511072.766 2  -3515111.906 1
  25570727.553    -1171489.944 2   -912845.149 1
  22280995.185   -10312622.350 4  -8035797.130 4
 91  5 28 20 40 15.0050000  0  5 19 06 13 15 02
  25310379.090    24515963.698 2  19103327.740 1
  22400030.179   -11193480.499 3  -8722180.495 3
  24781418.981    -4555531.182 2  -3549754.830 1
  25570053.024    -1175002.177 2   -915581.927 1
  22284369.656   -10294898.546 4  -8021986.380 4
 91  5 28 20 40 30.0050000  0  5 19 06 13 15 02
  25321109.264    24572367.934 2  19147279.052 1
  22399666.237   -11195404.398 3  -8723679.647 3
  24772980.423    -4599957.436 2  -3584372.537 1
  25569412.967    -1178419.726 2   -918244.968 1
  22287749.816   -10277136.955 4  -8008146.197 4
 91  5 28 20 40 45.0050000  0  5 19 06 13 15 02
  25331846.924    24628799.403 2  19191251.585 1
  22399313.377   -11197276.477 3  -8725138.421 3
  24764522.380    -4644348.327 2  -3618962.745
  25568783.398    -1181739.274 2   -920831.637 1
  22291136.266   -10259334.452 4  -7994274.129 4
 91  5 28 20 41  0.0050000  0  5 19 06 13 15 02
  25342592.690    24685253.114 2  19235241.339 1
  22398964.416   -11199101.493 3  -8726560.504 3
  24756078.726    -4688708.406 2  -3653529.019 1
  25568159.832    -1184965.650 2   -923345.701 1
  22294530.220   -10241496.222 4  -7980374.225 4
 91  5 28 20 41 15.0050000  0  5 19 06 13 15 02
  25353342.347    24741731.680 2  19279250.605 1
  22398626.850   -11200876.574 3  -8727943.678 3
  24747649.756    -4733034.590 2  -3688068.784 1
  25567563.244    -1188095.927 2   -925784.868 1
  22297934.059   -10223619.564 4  -7966444.369 4
 91  5 28 20 41 30.0050000  0  5 19 06 13 15 02
  25364097.701    24798232.056 2  19323276.789 1
  22398295.279   -11202604.348 3  -8729290.002 3
  24739222.592    -4777329.179 2  -3722583.964 1
  25566980.145    -1191132.673 2   -928151.169 1
  22301342.401   -10205707.447 4  -7952486.888 4
 91  5 28 20 41 45.0050000  0  5 19 06 13 15 02
  25374854.556    24854759.407 2  19367324.005 1
  22397978.400   -11204279.183 3  -8730595.096 3
  24730799.023    -4821586.542 2  -3757070.101 1
  25566430.925    -1194070.493 2   -930440.448 1
  22304758.840   -10187754.470 4  -7938497.576 4
 91  5 28 20 42  0.0050000  0  5 19 06 13 15 02
  25385608.410    24911311.036 2  19411390.100 1
  22397669.313   -11205903.580 3  -8731860.843 3
  24722377.854    -4865808.824 2  -3791528.945 1
  25565897.900    -1196911.704 2   -932654.335 1
  22308184.265   -10169763.325 4  -7924478.514 4
 91  5 28 20 42 15.0050000  0  5 19 06 13 15 02
  25396376.652    24967892.350 2  19455479.437 1
  22397373.418   -11207471.706 3  -8733082.761 3
  24713974.370    -4909990.235 2  -3825955.954 1
  25565364.865    -1199650.546 2   -934788.516 1
  22311615.388   -10151728.532 4  -7910425.448 3
 91  5 28 20 42 30.0050000  0  5 19 06 13 15 02
  25407154.796    25024502.799 2  19499591.324 1
  22397084.120   -11208983.765 3  -8734260.997 3
  24705570.292    -4954130.887 2  -3860351.168 1
  25564871.408    -1202287.137 2   -936842.972 1
  22315054.913   -10133650.516 4  -7896338.695 3
 91  5 28 20 42 45.0050000  0  5 19 06 13 15 02
  25417932.330    25081141.101 2  19543724.993 1
  22396808.311   -11210440.819 3  -8735396.363 3
  24697184.494    -4998231.505 2  -3894715.185 1
  25564390.245    -1204822.215 2   -938818.413 1
  22318502.526   -10115530.639 4  -7882219.326 4
 91  5 28 20 43  0.0050000  0  5 19 06 13 15 02
  25428717.062    25137814.665 2  19587886.070 2
  22396539.097   -11211835.031 3  -8736482.761 3
  24688802.902    -5042284.101 2  -3929041.838 1
  25563924.367    -1207248.052 2   -940708.658 1
  22321957.635   -10097361.471 4  -7868061.551 4
 91  5 28 20 43 15.0050000  0  5 19 06 13 15 02
  25439509.297    25194526.715 2  19632077.337 1
  22396285.773   -11213162.989 3  -8737517.538 3
  24680429.092    -5086285.170 2  -3963328.311 1
  25563488.164    -1209561.252 2   -942511.133 1
  22325428.631   -10079139.725 4  -7853862.802 4
 91  5 28 20 43 30.0050000  0  5 19 06 13 15 02
  25450307.518    25251273.796 2  19676295.726 1
  22396047.437   -11214427.758 3  -8738503.073 3
  24672063.082    -5130237.556 2  -3997576.803 1
  25563059.762    -1211765.204 2   -944228.507 1
  22328905.317   -10060868.874 4  -7839625.789 4
 91  5 28 20 43 45.0050000  0  5 19 06 13 15 02
  25461114.141    25308062.826 2  19720546.831 1
  22395820.192   -11215622.284 3  -8739433.876 3
  24663711.469    -5174134.177 2  -4031781.912 1
  25562657.438    -1213852.539 2   -945854.968 1
  22332392.507   -10042542.025 4  -7825345.145 4
 91  5 28 20 44  0.0050000  0  5 19 06 13 15 02
  25471934.550    25364895.545 1  19764831.981 1
  22395606.148   -11216744.474 3  -8740308.325 3
  24655369.140    -5217972.819 2  -4065941.820 1
  25562291.097    -1215821.212 2   -947389.013 1
  22335890.482   -10024157.511 4  -7811019.559 4
 91  5 28 20 44 15.0050000  0  5 19 06 13 15 02
  25482749.261    25421770.486 2  19809149.996 1
  22395406.779   -11217795.423 3  -8741127.248 3
  24647038.807    -5261754.229 2  -4100057.152 1
  25561931.047    -1217672.196 2   -948831.352 1
  22339399.555   -10005716.569 4  -7796650.009 4
 91  5 28 20 44 30.0050000  0  5 19 06 13 15 02
  25493583.456    25478693.308 2  19853505.352 1
  22395219.416   -11218769.041 3  -8741885.914 3
  24638718.072    -5305472.331 2  -4134123.104 1
  25561607.266    -1219399.237 2   -950177.115 1
  22342920.616    -9987213.444 4  -7782232.002 3
 91  5 28 20 44 45.0050000  0  5 19 06 13 15 02
  25504427.257    25535670.305 2  19897902.900 1
  22395048.229   -11219658.765 3  -8742579.209 3
  24630413.522    -5349120.351 2  -4168134.457 1
  25561303.580    -1220995.957 2   -951421.308 1
  22346455.472    -9968641.853 4  -7767760.648 4
 91  5 28 20 45  0.0050000  0  5 19 06 13 15 02
  25515279.739    25592702.702 2  19942343.649 1
  22394898.637   -11220463.147 3  -8743206.005 3
  24622117.662    -5392696.828 2  -4202090.048 1
  25561018.775    -1222460.906 2   -952562.816 1
  22349999.916    -9950000.646 4  -7753235.044 4
 91  5 28 20 45 15.0050000  0  5 19 06 13 15 02
  25526143.023    25649792.844 2  19986829.451 1
  22394761.034   -11221179.583 3  -8743764.279 3
  24613840.091    -5436198.712 2  -4235987.534 1
  25560776.540    -1223791.510 2   -953599.594 1
  22353563.853    -9931287.228 4  -7738653.174 4
 91  5 28 20 45 30.0050000  0  5 19 06 13 15 02
  25537016.193    25706943.076 2  20031361.992 1
  22394641.709   -11221805.280 3  -8744251.836 3
  24605579.009    -5479623.119 2  -4269824.684 1
  25560553.195    -1224984.900 2   -954529.534 1
  22357135.275    -9912499.428 4  -7724013.348 4
 91  5 28 20 45 45.0050000  0  5 19 06 13 15 02
  25547905.251    25764154.262 2  20075942.064 1
  22394542.478   -11222338.925 3  -8744667.653 3
  24597316.732    -5522968.686 2  -4303600.397 1
  25560344.246    -1226039.784 2   -955351.492 1
  22360725.291    -9893636.153 4  -7709314.710 4
 91  5 28 20 46  0.0050000  0  5 19 06 13 15 02
  25558802.109    25821424.123 2  20120567.826 1
  22394457.339   -11222782.611 3  -8745013.387 3
  24589090.124    -5566237.244 2  -4337316.044 1
  25560175.459    -1226958.231 2   -956067.150 1
  22364332.993    -9874699.699 4  -7694559.053 3
 91  5 28 20 46 15.0050000  0  5 19 06 13 15 02
  25569710.956    25878752.370 2  20165239.078 1
  22394390.784   -11223136.309 3  -8745288.985 3
  24580874.012    -5609428.768 2  -4370971.692 1
  25560021.661    -1227740.331 2   -956676.548 1
  22367947.893    -9855690.283 4  -7679746.525 4
 91  5 28 20 46 30.0050000  0  5 19 06 13 15 02
  25580624.601    25936143.051 2  20209959.003 1
  22394338.922   -11223395.437 3  -8745490.913 3
  24572667.794    -5652538.380 2  -4404563.504 1
  25559901.752    -1228381.424 2   -957176.105 1
  22371581.377    -9836603.610 4  -7664873.815 4
 91  5 28 20 46 45.0050000  0  5 19 06 13 15 02
  25591574.220    25993591.757 2  20254724.167 1
  22394307.441   -11223564.184 3  -8745622.411 3
  24564474.472    -5695570.096 2  -4438094.641 1
  25559795.026    -1228885.678 2   -957569.051 1
  22375229.555    -9817444.124 4  -7649944.366 4
 91  5 28 20 47  0.0050000  0  5 19 06 13 15 02
  25602506.755    26051093.440 2  20299530.575 1
  22394292.155   -11223647.067 3  -8745687.002 3
  24556308.119    -5738528.553 2  -4471568.691 1
  25559734.762    -1229257.549 2   -957858.793 1
  22378884.921    -9798216.669 4  -7634961.948 3
 91  5 28 20 47 15.0060000  0  5 19 06 13 15 02
  25613453.079    26108656.780 2  20344385.023 1
  22394296.050   -11223639.162 3  -8745680.842 3
  24548146.568    -5781411.577 2  -4504983.915 1
  25559689.499    -1229492.155 2   -958041.625 1
  22382557.079    -9778915.224 4  -7619921.875 4
 91  5 28 20 47 30.0060000  0  5 19 06 13 15 02
  25624430.575    26166275.793 2  20389282.790 1
  22394313.142   -11223538.565 3  -8745602.460 3
  24540001.208    -5824211.130 2  -4538334.180 1
  25559666.709    -1229587.692 2   -958116.030 1
  22386246.029    -9759540.685 4  -7604824.841 3
 91  5 28 20 47 45.0060000  0  5 19 06 13 15 02
  25635408.978    26223951.835 2  20434225.099 1
  22394348.217   -11223347.310 3  -8745453.428 3
  24531873.838    -5866931.849 2  -4571622.944 1
  25559676.900    -1229546.207 2   -958083.715 1
  22389944.864    -9740094.142 4  -7589671.708 4
 91  5 28 20 48  0.0060000  0  5 19 06 13 15 02
  25646397.267    26281688.398 2  20479214.566 1
  22394401.274   -11223061.426 3  -8745230.661 3
  24523760.857    -5909569.622 2  -4604847.178 1
  25559704.184    -1229363.457 2   -957941.295 1
  22393662.886    -9720571.957 4  -7574459.632 4
 91  5 28 20 48 15.0060000  0  5 19 06 13 15 02
  25657380.469    26339486.318 2  20524251.864 1
  22394474.426   -11222679.909 3  -8744933.374 3
  24515662.857    -5952123.452 2  -4638005.888 1
  25559781.235    -1229038.521 2   -957688.121 1
  22397389.912    -9700973.373 4  -7559188.026 4
 91  5 28 20 48 30.0060000  0  5 19 06 13 15 02
  25668397.542    26397347.849 2  20569338.676 1
  22394570.664   -11222199.979 3  -8744559.413 3
  24507580.151    -5994590.743 2  -4671097.209 1
  25559864.874    -1228568.772 2   -957322.032 2
  22401133.115    -9681295.806 4  -7543854.870 3
 91  5 28 20 48 45.0060000  0  5 19 06 13 15 02
  25679414.615    26455270.496 2  20614473.125 1
  22394676.185   -11221623.977 3  -8744110.585 3
  24499505.848    -6036973.184 2  -4704122.403 1
  25559982.995    -1227956.400 2   -956844.775 1
  22404891.019    -9661541.844 4  -7528462.190 3
 91  5 28 20 49  0.0060000  0  5 19 06 13 15 02
  25690468.856    26513257.900 2  20659657.986 1
  22394805.997   -11220947.748 3  -8743583.658 3
  24491469.011    -6079266.865 2  -4737078.452 1
  25560125.092    -1227197.402 2   -956253.419 1
  22408664.506    -9641707.759 4  -7513007.083 4
 91  5 28 20 49 15.0060000  0  5 19 06 13 15 02
  25701501.521    26571305.859 2  20704890.045 1
  22394954.996   -11220175.433 3  -8742981.856 3
  24483435.166    -6121475.509 2  -4769968.216 1
  25560297.177    -1226295.831 2   -955550.843 1
  22412456.578    -9621797.965 4  -7497492.979 4
 91  5 28 20 49 30.0060000  0  5 19 06 13 15 02
  25712558.467    26629415.139 2  20750169.883 1
  22395117.187   -11219305.998 3  -8742304.383 3
  24475417.524    -6163597.838 2  -4802790.779 1
  25560498.038    -1225250.801 2   -954736.477 1
  22416260.647    -9601811.562 4  -7481919.177 4
 91  5 28 20 49 45.0060000  0  5 19 06 13 15 02
  25723632.201    26687584.282 2  20795496.403 1
  22395302.456   -11218340.478 3  -8741552.032 3
  24467418.754    -6205634.895 2  -4835546.810 1
  25560725.275    -1224063.228 2   -953811.146 1
  22420078.799    -9581749.955 4  -7466286.770 4
 91  5 28 20 50  0.0060000  0  5 19 06 13 15 02
  25734706.833    26745814.730 2  20840870.691 1
  22395504.512   -11217276.812 3  -8740723.205 3
  24459435.882    -6247584.281 2  -4868234.594 1
  25560971.410    -1222730.985 2   -952773.021 1
  22423908.947    -9561611.436 4  -7450594.428 3
 91  5 28 20 50 15.0060000  0  5 19 06 13 15 02
  25745806.952    26804097.015 2  20886285.351 1
  22395723.966   -11216124.299 3  -8739825.148 3
  24451472.501    -6289455.382 2  -4900861.387 1
  25561257.707    -1221263.331 2   -951629.341 1
  22427757.086    -9541405.574 4  -7434849.612 4
 91  5 28 20 50 30.0060000  0  5 19 06 13 15 02
  25756906.163    26862426.525 2  20931736.829 1
  22395961.097   -11214887.349 3  -8738861.301 3
  24443520.507    -6331252.319 2  -4933430.359 1
  25561555.704    -1219664.771 2   -950383.785 1
  22431610.618    -9521136.845 4  -7419055.814 4
 91  5 28 20 50 45.0060000  0  5 19 06 13 15 02
  25768007.180    26920795.310 2  20977218.917 1
  22396209.326   -11213573.595 3  -8737837.605 3
  24435576.906    -6372982.638 2  -4965947.433 1
  25561898.069    -1217943.211 2   -949042.238 1
  22435479.445    -9500813.252 4  -7403219.260 4
 91  5 28 20 51  0.0060000  0  5 19 06 13 15 02
  25779118.388    26979202.296 2  21022730.769 1
  22396473.444   -11212183.633 3  -8736754.517 3
  24427648.888    -6414646.858 2  -4998412.951 1
  25562231.438    -1216099.123 2   -947605.290 1
  22439359.056    -9480435.681 4  -7387340.649 4
 91  5 28 20 51 15.0060000  0  5 19 06 13 15 02
  25790235.294    27037642.112 2  21068268.234 1
  22396753.747   -11210722.502 3  -8735615.980 3
  24419731.375    -6456249.987 2  -5030830.923 1
  25562610.675    -1214137.549 2   -946076.763
  22443241.965    -9460009.420 4  -7371424.090 4
 91  5 28 20 51 30.0060000  0  5 19 06 13 15 02
  25801366.883    27096119.932 2  21113835.265 1
  22397044.851   -11209184.699 3  -8734417.695 3
  24411823.748    -6497786.252 2  -5063196.796 1
  25563007.597    -1212053.091 2   -944452.504 1
  22447142.568    -9439529.224 4  -7355465.508 4
 91  5 28 20 51 45.0060000  0  5 19 06 13 15 02
  25812504.476    27154635.919 1  21159432.041 1
  22397353.938   -11207569.689 3  -8733159.249 3
  24403935.909    -6539255.038 2  -5095510.062 1
  25563432.405    -1209845.185 2   -942732.071 1
  22451049.759    -9418994.863 4  -7339464.719 4
 91  5 28 20 52  0.0060000  0  5 19 06 13 15 02
  25823645.062    27213188.861 2  21205057.543 1
  22397673.810   -11205878.600 3  -8731841.512 3
  24396049.868    -6580657.221 2  -5127771.478 1
  25563875.501    -1207514.840 2   -940916.201 1
  22454965.047    -9398407.579 4  -7323422.690 3
 91  5 28 20 52 15.0060000  0  5 19 06 13 15 02
  25834804.240    27271779.381 2  21250712.438 1
  22398011.681   -11204110.019 3  -8730463.403 3
  24388189.906    -6621991.161 2  -5159979.685 1
  25564335.079    -1205060.766 2   -939003.930 1
  22458895.630    -9377766.467 4  -7307338.726 3
 91  5 28 20 52 30.0060000  0  5 19 06 13 15 02
  25845953.821    27330402.808 2  21296392.896 1
  22398361.837   -11202268.411 3  -8729028.383 3
  24380335.947    -6663261.305 2  -5192138.137 1
  25564831.232    -1202487.593 2   -936998.855 1
  22462832.207    -9357076.243 4  -7291216.480 4
 91  5 28 20 52 45.0060000  0  5 19 06 13 15 02
  25857114.195    27389054.196 2  21342095.183 1
  22398724.889   -11200358.562 3  -8727540.185 3
  24372491.873    -6704472.267 2  -5224250.494 1
  25565346.275    -1199799.891 2   -934904.528 1
  22466776.873    -9336341.758 4  -7275059.750 3
 91  5 28 20 53  0.0060000  0  5 19 06 13 15 02
  25868289.856    27447732.650 2  21387818.591 1
  22399101.124   -11198380.979 3  -8725999.223 3
  24364661.900    -6745624.475 2  -5256317.076 1
  25565873.918    -1196998.294 2   -932721.395 1
  22470731.738    -9315563.868 4  -7258869.197 4
 91  5 28 20 53 15.0060000  0  5 19 06 13 15 02
  25879447.830    27506436.995 2  21433562.109 1
  22399491.154   -11196336.541 3  -8724406.157 3
  24356849.001    -6786718.636 2  -5288338.457 1
  25566427.029    -1194083.563 2   -930450.132 1
  22474690.197    -9294743.708 4  -7242645.704 4
 91  5 28 20 53 30.0060000  0  5 19 06 13 15 02
  25890622.592    27565163.440 2  21479322.796 1
  22399889.577   -11194228.678 3  -8722763.667 3
  24349029.820    -6827757.832 2  -5320317.029 1
  25567001.437    -1191059.329 2   -928093.579 1
  22478661.849    -9273885.128 4  -7226392.276 3
 91  5 28 20 53 45.0060000  0  5 19 06 13 15 02
  25901808.155    27623911.831 2  21525100.753 1
  22400305.992   -11192057.124 3  -8721071.543 3
  24341234.310    -6868742.001 2  -5352252.641 1
  25567602.519    -1187925.400 2   -925651.537 1
  22482637.096    -9252988.077 4  -7210108.870 3
 91  5 28 20 54  0.0060000  0  5 19 06 13 15 02
  25912995.804    27682691.624 2  21570903.110 1
  22400728.697   -11189812.137 3  -8719322.203 3
  24333446.008    -6909661.126 2  -5384137.618 1
  25568217.089    -1184671.921 2   -923116.322 1
  22486625.536    -9232042.788 4  -7193787.878 4
 91  5 28 20 54 15.0060000  0  5 19 06 13 15 02
  25924182.266    27741506.858 1  21616733.056 1
  22401171.793   -11187489.237 3  -8717512.152 3
  24325674.484    -6950510.523 2  -5415968.270 1
  25568858.350    -1181294.782 2   -920484.772 1
  22490619.672    -9211045.459 4  -7177426.332 4
 91  5 28 20 54 30.0060000  0  4 06 13 15 02
  22401628.378   -11185084.327 3  -8715638.200 3
  24317911.658    -6991286.073 2  -5447741.350 1
  25569521.484    -1177789.736 2   -917753.518 1
  22494628.790    -9189992.108 4  -7161021.132 4
 91  5 28 20 54 45.0060000  0  4 06 13 15 02
  22402103.547   -11182593.694 3  -8713697.441 3
  24310168.918    -7031983.808 2  -5479453.809 1
  25570226.604    -1174153.026 2   -914919.711 1
  22498643.614    -9168879.222 4  -7144569.532 4
 91  5 28 20 55  0.0060000  0  4 06 13 15 02
  22402596.403   -11180019.471 3  -8711691.548 3
  24302431.875    -7072605.697 2  -5511107.160 1
  25570940.702    -1170386.808 2   -911984.977 1
  22502672.520    -9147709.404 4  -7128073.578 3
 91  5 28 20 55 15.0060000  0  4 06 13 15 02
  22403102.154   -11177361.975 3  -8709620.772 3
  24294724.516    -7113151.862 2  -5542701.524 1
  25571683.593    -1166491.560 2   -908949.725 1
  22506710.727    -9126483.067 4  -7111533.578 3
 91  5 28 20 55 30.0060000  0  4 06 13 15 02
  22403622.598   -11174624.225 3  -8707487.471 3
  24287021.047    -7153625.140 2  -5574239.117 1
  25572442.668    -1162470.401 2   -905816.320 1
  22510760.321    -9105203.321 4  -7094951.971 3
 91  5 28 20 55 45.0060000  0  4 06 13 15 02
  22404158.625   -11171812.016 3  -8705296.121 3
  24279334.662    -7194031.252 2  -5605724.302 1
  25573226.026    -1158329.039 2   -902589.248 1
  22514818.613    -9083876.486 4  -7078333.665 4
 91  5 28 20 56  0.0060000  0  4 06 13 15 02
  22404706.945   -11168922.604 3  -8703044.639 3
  24271659.080    -7234367.404 2  -5637155.009 1
  25574046.256    -1154064.880 2   -899266.507 1
  22518886.503    -9062500.105 4  -7061676.758 4
 91  5 28 20 56 15.0060000  0  4 06 13 15 02
  22405270.858   -11165961.300 3  -8700737.126 3
  24263996.384    -7274638.627 2  -5668535.139 1
  25574882.078    -1149682.993 2   -895852.012 1
  22522963.380    -9041079.670 4  -7044985.521 4
 91  5 28 20 56 30.0060000  0  4 06 13 15 02
  22405846.453   -11162929.971 3  -8698375.045 3
  24256337.884    -7314846.907 2  -5699866.197 1
  25575738.282    -1145185.553 2   -892347.503 1
  22527049.244    -9019617.334 4  -7028261.643 4
 91  5 28 20 56 45.0060000  0  4 06 13 15 02
  22406436.149   -11159832.032 3  -8695961.069 3
  24248701.573    -7354995.451 2  -5731150.756 1
  25576615.181    -1140575.790 2   -888755.438 1
  22531140.517    -8998116.767 4  -7011507.955 4
 91  5 28 20 57  0.0060000  0  4 06 13 15 02
  22407038.129   -11156667.156 3  -8693494.921 3
  24241074.554    -7395083.839 2  -5762388.365 1
  25577505.858    -1135853.798 2   -885075.960 1
  22535237.776    -8976577.718 4  -6994724.291 3
 91  5 28 20 57 15.0060000  0  5 19 06 13 15 02
  26059019.017       10062.38112      7815.405 1
  22407652.708   -11153436.207 3  -8690977.302 3
  24233457.429    -7435112.837 2  -5793579.699 1
  25578428.023    -1131020.379 2   -881309.641 1
  22539343.734    -8955001.404 4  -6977911.585 4
 91  5 28 20 57 30.0060000  0  4 06 13 15 02
  22408278.970   -11150133.620 3  -8688403.856 3
  24225853.192    -7475076.596 2  -5824720.250 1
  25579367.272    -1126069.777 2   -877452.016 1
  22543458.984    -8933382.662 4  -6961065.829 4
 91  5 28 20 57 45.0060000  0  4 06 13 15 02
  22408923.529   -11146759.225 3  -8685774.442 3
  24218264.249    -7514974.799 2  -5855809.716 1
  25580326.912    -1121002.156 2   -873503.167 1
  22547579.931    -8911721.639 4  -6944187.124 4
 91  5 28 20 58  0.0060000  0  4 06 13 15 02
  22409581.271   -11143308.217 3  -8683085.337 3
  24210680.698    -7554802.476 2  -5886844.207 1
  25581330.911    -1115812.546 2   -869459.328 1
  22551711.977    -8890013.641 4  -6927271.810 4
 91  5 28 20 58 15.0060000  0  4 06 13 15 02
  22410250.408   -11139782.319 3  -8680337.882 3
  24203113.630    -7594561.204 2  -5917824.977 1
  25582322.327    -1110502.704 2   -865321.749 1
  22555847.312    -8868260.620 4  -6910321.409 4
 91  5 28 20 58 30.0060000  0  4 06 13 15 02
  22410935.434   -11136180.406 3  -8677531.192 3
  24195560.966    -7634249.812 2  -5948751.114 1
  25583370.998    -1105071.729 2   -861089.785 1
  22559995.543    -8846461.809 4  -6893335.335 4
 91  5 28 20 58 45.0060000  0  4 06 13 15 02
  22411638.442   -11132494.371 3  -8674658.955 3
  24188023.283    -7673860.197 2  -5979616.280 1
  25584434.362    -1099511.648 2   -856757.258 1
  22564156.059    -8824609.402 4  -6876307.497 3
 91  5 28 20 59  0.0060000  0  4 06 13 15 02
  22412357.348   -11128722.169 3  -8671719.579 3
  24180504.482    -7713389.936 2  -6010418.626 1
  25585501.329    -1093820.125 2   -852322.289 1
  22568326.172    -8802701.498 4  -6859236.413 3
 91  5 28 20 59 15.0060000  0  4 06 13 15 02
  22413090.641   -11124860.351 3  -8668710.359 3
  24172996.185    -7752835.519 2  -6041155.369 1
  25586614.453    -1087994.133 2   -847782.519 1
  22572505.883    -8780734.777 4  -6842119.488 3
 91  5 28 20 59 30.0060000  0  4 06 13 15 02
  22413842.222   -11120930.239 3  -8665647.942 3
  24165500.776    -7792218.086 2  -6071842.995 1
  25587741.676    -1082055.036 2   -843154.673 1
  22576692.182    -8758731.088 4  -6824973.765 4
 91  5 28 20 59 45.0060000  0  4 06 13 15 02
  22414603.993   -11116920.108 3  -8662523.157 3
  24158020.653    -7831525.859 2  -6102472.392 1
  25588895.580    -1075991.133 2   -838429.499 1
  22580889.579    -8736678.922 4  -6807790.265 3
 91  5 28 21  0  0.0060000  0  4 06 13 15 02
  22415382.849   -11112805.010 3  -8659316.586 3
  24150561.810    -7870733.561 2  -6133023.797 1
  25590080.354    -1069777.339 2   -833587.582 1
  22585100.159    -8714553.339 4  -6790549.556 3
 91  5 28 21  0 15.0060000  0  4 06 13 15 02
  22416188.997   -11108583.350 3  -8656026.979 3
  24143119.467    -7909839.757 2  -6163496.062 1
  25591295.718    -1063412.141 2   -828627.699 1
  22589324.534    -8692353.066 4  -6773250.651 3
 91  5 28 21  0 30.0060000  0  4 06 13 15 02
  22417013.127   -11104253.068 3  -8652652.728 3
  24135693.309    -7948842.124 2  -6193887.468 1
  25592518.865    -1056893.787 2   -823548.455 1
  22593565.103    -8670076.502 4  -6755892.299 3
 91  5 28 21  0 45.0060000  0  4 06 13 15 02
  22417856.444   -11099810.085 3  -8649190.657 3
  24128295.332    -7987736.365 2  -6224194.602 1
  25593797.486    -1050218.113 2   -818346.634 1
  22597819.754    -8647719.763 4  -6738471.474 3
 91  5 28 21  1  0.0060000  0  4 06 13 15 02
  22418726.738   -11095262.891 3  -8645647.377 3
  24120911.744    -8026530.910 2  -6254424.062 1
  25595107.875    -1043393.968 2   -813029.053 1
  22602084.003    -8625291.685 4  -6720995.052 3
 91  5 28 21  1 15.0060000  0  4 06 13 15 02
  22419607.529   -11090613.698 3  -8642024.632 3
  24113551.539    -8065228.033 2  -6284577.599 1
  25596427.862    -1036423.312 2   -807597.389 1
  22606368.040    -8602794.644 4  -6703464.890 3
 91  5 28 21  1 30.0060000  0  4 06 13 15 02
  22420512.000   -11085864.484 3  -8638323.952 3
  24106202.127    -8103829.567 2  -6314656.666 1
  25597779.023    -1029308.154 2   -802053.083 1
  22610659.563    -8580230.988 4  -6685882.825 4
 91  5 28 21  1 45.0060000  0  4 06 13 15 02
  22421432.368   -11081020.351 3  -8634549.304 3
  24098875.199    -8142340.261 2  -6344664.955 1
  25599164.963    -1022053.791 2   -796400.296 1
  22614968.781    -8557605.917 4  -6668252.912 3
 91  5 28 21  2  0.0060000  0  4 06 13 15 02
  22422377.315   -11076063.646 3  -8630686.932 3
  24091564.160    -8180742.242 2  -6374588.506 1
  25600580.586    -1014642.641 2   -790625.363 1
  22619285.197    -8534902.125 4  -6650561.648 3
 91  5 28 21  2 15.0060000  0  4 06 13 15 02
  22423345.942   -11070982.764 3  -8626727.794 3
  24084283.999    -8219023.890 2  -6404418.287 1
  25602018.693    -1007063.100 2   -784719.278 1
  22623625.293    -8512108.197 4  -6632800.149 3
 91  5 28 21  2 30.0060000  0  4 06 13 15 02
  22424328.058   -11065822.145 3  -8622706.525 3
  24077012.833    -8257229.648 2  -6434188.975 1
  25603484.677     -999359.799 2   -778716.664 1
  22627969.882    -8489268.904 4  -6615003.297 3
 91  5 28 21  2 45.0060000  0  4 06 13 15 02
  22425321.874   -11060583.334 3  -8618624.333 3
  24069754.555    -8295360.945 2  -6463901.588 1
  25604971.645     -991534.237 2   -772618.840 1
  22632326.765    -8466385.910 4  -6597172.399 3
 91  5 28 21  3  0.0060000  0  4 06 13 15 02
  22426336.674   -11055268.618 3  -8614482.986 3
  24062511.266    -8333419.770 2  -6493557.769 1
  25606476.901     -983588.846 2   -766427.605 1
  22636685.149    -8443461.657 4  -6579309.357 3
 91  5 28 21  3 15.0060000  0  4 06 13 15 02
  22427360.460   -11049881.890 3  -8610285.534 3
  24055281.475    -8371409.975 2  -6523160.442 1
  25608014.841     -975527.641 2   -760146.123 1
  22641057.624    -8420500.580 4  -6561417.609 3
 91  5 28 21  3 30.0060000  0  4 06 13 15 02
  22428399.839   -11044425.266 3  -8606033.620 3
  24048064.868    -8409333.669 2  -6552711.324 1
  25609567.466     -967352.953 2   -753776.202 1
  22645432.795    -8397505.087 4  -6543499.051 3
 91  5 28 21  3 45.0060000  0  4 06 13 15 02
  22429450.613   -11038898.047 3  -8601726.694 3
  24040862.055    -8447189.834 2  -6582209.557 1
  25611144.075     -959063.881 2   -747317.200 1
  22649813.960    -8374474.542 4  -6525553.174 3
 91  5 28 21  4  0.0060000  0  4 06 13 15 02
  22430517.580   -11033299.003 3  -8597363.787 3
  24033670.035    -8484977.154 2  -6611654.187 1
  25612754.861     -950659.294 2   -740768.116 1
  22654204.121    -8351407.955 4  -6507579.213 3
 91  5 28 21  4 15.0060000  0  4 06 13 15 02
  22431597.426   -11027624.182 3  -8592941.847 3
  24026498.405    -8522691.474 2  -6641041.880 1
  25614375.838     -942135.604 2   -734126.285 1
  22658602.378    -8328301.637 4  -6489574.291 3
 91  5 28 21  4 30.0060000  0  4 06 13 15 02
  22432691.371   -11021877.805 3  -8588464.150 3
  24019333.965    -8560336.832 2  -6670375.857 1
  25616010.304     -933496.927 2   -727394.858 1
  22663006.630    -8305160.186 4  -6471541.999 4
 91  5 28 21  4 45.0060000  0  4 06 13 15 02
  22433795.211   -11016058.912 3  -8583929.948 3
  24012179.114    -8597912.187 2  -6699655.314 1
  25617678.946     -924742.256 2   -720573.011 1
  22667415.672    -8281982.781 4  -6453481.697 3
 91  5 28 21  5  0.0060000  0  4 06 13 15 02
  22434914.930   -11010162.274 3  -8579335.164 3
  24005043.459    -8635412.309 2  -6728876.119 1
  25619367.682     -915866.760 2   -713657.058 1
  22671832.514    -8258764.484 4  -6435389.524 3
 91  5 28 21  5 15.0060000  0  4 06 13 15 02
  22436057.439   -11004186.976 3  -8574679.078 3
  23997921.885    -8672836.468 2  -6758037.732 1
  25621066.304     -906869.630 2   -706646.297 1
  22676259.556    -8235504.544 4  -6417264.903 3
 91  5 28 21  5 30.0060000  0  4 06 13 15 02
  22437208.648   -10998130.391 3  -8569959.653 3
  23990815.301    -8710181.535 2  -6787137.711 1
  25622819.789     -897748.137 2   -699538.631 1
  22680696.178    -8212200.547 4  -6399105.952 3
 91  5 28 21  5 45.0060000  0  4 06 13 15 02
  22438374.837   -10991994.897 3  -8565178.738 3
  23983716.518    -8747449.853 2  -6816177.918 1
  25624569.383     -888504.653 2   -692335.939 1
  22685138.506    -8188855.217 4  -6380914.794 4
 91  5 28 21  6  0.0060000  0  4 06 13 15 02
  22439557.517   -10985780.206 3  -8560336.113 3
  23976649.215    -8784640.869 2  -6845157.873 1
  25626352.847     -879139.057 2   -685037.998 1
  22689588.625    -8165468.692 4  -6362691.539 3
 91  5 28 21  6 15.0060000  0  4 06 13 15 02
  22440757.289   -10979485.067 3  -8555430.807 3
  23969588.795    -8821753.118 2  -6874076.437 1
  25628165.986     -869650.243 2   -677644.149 1
  22694045.341    -8142039.680 4  -6344435.180 3
 91  5 28 21  6 30.0060000  0  4 06 13 15 02
  22441970.847   -10973103.029 3  -8550457.792 3
  23962541.281    -8858779.874 3  -6902928.395 1
  25629999.524     -860031.806 2   -670149.266 1
  22698512.545    -8118561.954 4  -6326140.844 3
 91  5 28 21  6 45.0060000  0  4 06 13 15 02
  22443198.793   -10966634.796 3  -8545417.604 3
  23955511.443    -8895722.113 3  -6931714.498 1
  25631848.340     -850284.770 2   -662554.160 1
  22702990.846    -8095036.717 4  -6307809.500 3
 91  5 28 21  7  0.0060000  0  4 06 13 15 02
  22444447.731   -10960081.383 3  -8540311.044 3
  23948496.604    -8932580.618 2  -6960435.310 1
  25633722.947     -840410.040 2   -654859.584 1
  22707479.042    -8071465.080 4  -6289441.999 3
 91  5 28 21  7 15.0060000  0  4 06 13 15 02
  22445712.261   -10953439.030 3  -8535135.187 3
  23941500.646    -8969351.836 3  -6989088.189 1
  25635634.418     -830404.123 2   -647062.750 1
  22711967.535    -8047843.816 4  -6271035.821 3
 91  5 28 21  7 30.0060000  0  4 06 13 15 02
  22446995.672   -10946706.137 3  -8529888.772 3
  23934517.278    -9006033.942 2  -7017671.578 1
  25637563.888     -820265.401 2   -639162.429 1
  22716473.713    -8024171.485 4  -6252589.850 3
 91  5 28 21  7 45.0060000  0  4 06 13 15 02
  22448290.775   -10939886.053 3  -8524574.418 3
  23927548.001    -9042629.806 2  -7046187.764 1
  25639516.733     -809997.249 2   -631161.303 1
  22720987.090    -8000451.344 4  -6234106.623 3
 91  5 28 21  8  0.0060000  0  4 06 13 15 02
  22449604.166   -10932975.757 3  -8519189.763 3
  23920607.212    -9079136.590 3  -7074634.562 1
  25641496.862     -799596.971 2   -623057.139 1
  22725512.752    -7976680.742 4  -6215584.089 3
 91  5 28 21  8 15.0060000  0  4 06 13 15 02
  22450937.039   -10925974.429 3  -8513734.183 3
  23913678.106    -9115553.232 2  -7103011.109 1
  25643505.469     -789063.771 2   -614849.416 1
  22730046.816    -7952859.030 4  -6197021.728 3
 91  5 28 21  8 30.0060000  0  4 06 13 15 02
  22452287.608   -10918878.856 3  -8508205.163 3
  23906765.787    -9151876.272 2  -7131314.725 1
  25645535.069     -778394.328 2   -606535.572 1
  22734591.673    -7928983.263 4  -6178417.226 3
 91  5 28 21  8 45.0060000  0  4 06 13 15 02
  22453658.855   -10911682.409 3  -8502597.529 3
  23899868.763    -9188099.140 2  -7159540.245 1
  25647588.646     -767582.238 2   -598110.575 1
  22739147.916    -7905047.337 4  -6159765.864 3
 91  5 28 21  9  0.0060000  0  4 06 13 15 02
  22455045.999   -10904379.815 3  -8496907.185 3
  23893000.819    -9224216.321 2  -7187683.473 1
  25649667.708     -756622.266 2   -589570.336 1
  22743711.654    -7881045.938 4  -6141063.482 3
 91  5 28 21  9 15.0060000  0  4 06 13 15 02
  22456458.315   -10896968.275 3  -8491131.954 3
  23886147.560    -9260225.201 2  -7215742.277 1
  25651788.739     -745511.925 2   -580912.908 1
  22748288.584    -7856976.737 4  -6122308.266 3
 91  5 28 21  9 30.0060000  0  4 06 13 15 02
  22457886.824   -10889446.955 3  -8485271.182 3
  23879317.092    -9296124.415 3  -7243715.634 1
  25653923.860     -734250.576 2   -572137.834
  22752882.903    -7832838.969 4  -6103499.619 3
 91  5 28 21  9 45.0060000  0  4 06 13 15 02
  22459340.523   -10881814.855 3  -8479324.086 3
  23872507.004    -9331912.838 2  -7271602.662 1
  25656113.539     -722837.206 2   -563244.302 1
  22757491.314    -7808631.898 4  -6084636.975 3
 91  5 28 21 10  0.0060000  0  4 06 13 15 02
  22460816.096   -10874068.419 3  -8473287.894 3
  23865717.011    -9367586.892 3  -7299400.554 1
  25658302.922     -711268.113 2   -554229.429 1
  22762112.620    -7784352.099 4  -6065717.665 3
 91  5 28 21 10 15.0060000  0  4 06 13 15 02
  22462311.763   -10866205.632 3  -8467161.049 3
  23858950.096    -9403144.568 2  -7327107.791 1
  25660530.382     -699541.752 2   -545091.951 1
  22766747.712    -7759998.012 4  -6046740.473 3
 91  5 28 21 10 30.0060000  0  4 06 13 15 02
  22463828.711   -10858230.717 3  -8460946.834 3
  23852202.062    -9438589.914 2  -7354727.490 1
  25662792.916     -687662.284 2   -535835.240 1
  22771393.894    -7735573.995 4  -6027708.773 3
 91  5 28 21 10 45.0060000  0  4 06 13 15 02
  22465367.846   -10850143.209 3  -8454644.890 3
  23845476.521    -9473922.416 3  -7382259.220 1
  25665090.525     -675629.487 2   -526459.048 1
  22776055.667    -7711079.704 4  -6008622.326 3
 91  5 28 21 11  0.0060000  0  4 06 13 15 02
  22466931.263   -10841943.865 3  -8448255.800 3
  23838781.257    -9509142.555 2  -7409703.429 1
  25667403.429     -663444.027 2   -516963.860 1
  22780727.631    -7686516.178 4  -5989481.910 3
 91  5 28 21 11 15.0060000  0  4 06 13 15 02
  22468509.077   -10833633.128 3  -8441779.891 3
  23832098.286    -9544250.723 2  -7437060.391 1
  25669752.900     -651106.449 2   -507350.194 1
  22785420.283    -7661884.132 4  -5970288.128 3
 91  5 28 21 11 30.0060000  0  4 06 13 15 02
  22470113.267   -10825217.874 3  -8435222.556 3
  23825432.992    -9579253.641 2  -7464335.319 1
  25672124.856     -638623.993 2   -497623.596 1
  22790118.030    -7637190.755 4  -5951046.537 3
 91  5 28 21 11 45.0060000  0  4 06 13 15 02
  22471729.742   -10816700.936 3  -8428585.977 3
  23818793.795    -9614154.085 2  -7491530.409 1
  25674525.596     -625999.585 2   -487786.362 1
  22794824.772    -7612439.004 4  -5931759.459 3
 91  5 28 21 12  0.0060000  0  4 06 13 15 02
  22473372.305   -10808084.966 3  -8421872.222 3
  23812173.173    -9648954.685 3  -7518647.694 1
  25676944.623     -613235.716 2   -477840.468 1
  22799545.903    -7587631.848 4  -5912429.212 4
 91  5 28 21 12 15.0060000  0  4 06 13 15 02
  22475031.358   -10799370.573 3  -8415081.778 3
  23805572.349    -9683655.923 3  -7545687.567 1
  25679421.211     -600333.149 2   -467786.523 1
  22804278.131    -7562770.187 4  -5893056.494 3
 91  5 28 21 12 30.0060000  0  4 06 13 15 02
  22476706.300   -10790555.866 3  -8408213.171 3
  23798986.201    -9718255.701 3  -7572648.380 1
  25681896.891     -587290.188 2   -457623.220 1
  22809019.643    -7537852.278 4  -5873639.942 3
 91  5 28 21 12 45.0060000  0  4 06 13 15 02
  22478403.726   -10781639.309 3  -8401265.196 3
  23792419.850    -9752752.154 3  -7599528.663 2
  25684400.159     -574105.414 2   -447349.377 1
  22813771.957    -7512876.573 4  -5854178.368 4
 91  5 28 21 13  0.0060000  0  4 06 13 15 02
  22480118.838   -10772621.104 3  -8394238.024 3
  23785881.079    -9787145.626 3  -7626328.717 1
  25686933.102     -560779.428 2   -436965.464 1
  22818534.156    -7487843.851 4  -5834672.365 3
 91  5 28 21 13 15.0060000  0  4 06 13 15 02
  22481857.037   -10763501.451 3  -8387131.797 3
  23779350.998    -9821436.344 3  -7653048.716 1
  25689500.832     -547312.588 2   -426471.839 1
  22823311.651    -7462754.393 4  -5815122.141 3
 91  5 28 21 13 30.0060000  0  4 06 13 15 02
  22483609.920   -10754285.737 3  -8379950.727 3
  23772848.200    -9855629.382 3  -7679692.569 1
  25692092.233     -533710.341 2   -415872.655 1
  22828093.639    -7437613.923 4  -5795532.175 3
 91  5 28 21 13 45.0060000  0  4 06 13 15 02
  22485382.591   -10744970.779 3  -8372692.326 3
  23766355.297    -9889721.507 3  -7706257.800 2
  25694693.231     -519969.429 2   -405165.438 1
  22832885.826    -7412419.499 4  -5775900.160 3
 91  5 28 21 14  0.0060000  0  4 06 13 15 02
  22487175.950   -10735557.196 3  -8365357.052 3
  23759889.668    -9923713.325 3  -7732744.904 1
  25697333.807     -506090.498 2   -394350.636 1
  22837694.495    -7387171.926 4  -5756226.734 3
 91  5 28 21 14 15.0060000  0  4 06 13 15 02
  22488982.502   -10726046.377 3  -8357946.026 3
  23753442.930    -9957605.925 3  -7759154.649 2
  25700004.353     -492075.139 2   -383429.622 1
  22842509.455    -7361872.795 4  -5736513.136 3
 91  5 28 21 14 30.0060000  0  4 06 13 15 02
  22490812.131   -10716435.351 3  -8350456.911 3
  23747010.588    -9991396.226 3  -7785484.700 2
  25702698.894     -477920.773 2   -372400.234 1
  22847330.724    -7336519.348 4  -5716757.210 3
 91  5 28 21 14 45.0060000  0  4 06 13 15 02
  22492662.752   -10706721.757 3  -8342887.872 3
  23740597.423   -10025081.620 2  -7811733.001 1
  25705427.898     -463625.067 2   -361260.735 1
  22852167.575    -7311109.422 4  -5696957.274 3
 91  5 28 21 15  0.0060000  0  4 06 13 15 02
  22494527.762   -10696906.030 3  -8335239.241 3
  23734207.651   -10058662.385 3  -7837899.761 1
  25708170.401     -449188.433 2   -350011.388 1
  22857011.616    -7285643.606 4  -5677113.794 3
 91  5 28 21 15 15.0060000  0  4 06 13 15 02
  22496414.357   -10686984.867 3  -8327508.453 3
  23727838.260   -10092135.510 3  -7863982.663 1
  25710947.978     -434607.906 2   -338649.918 1
  22861869.460    -7260118.970 4  -5657224.466 3
 91  5 28 21 15 30.0060000  0  4 06 13 15 02
  22498325.235   -10676954.542 3  -8319692.619 3
  23721488.353   -10125497.191 3  -7889978.722 1
  25713749.541     -419879.839 2   -327173.465 1
  22866742.285    -7234532.178 4  -5637286.702 3
 91  5 28 21 15 45.0060000  0  4 06 13 15 02
  22500252.603   -10666814.339 3  -8311791.162 3
  23715162.431   -10158746.238 3  -7915887.020 1
  25716581.380     -405003.558 2   -315581.606 1
  22871621.706    -7208882.380 4  -5617299.840 3
 91  5 28 21 16  0.0060000  0  4 06 13 15 02
  22502202.150   -10656561.689 3  -8303802.085 3
  23708858.103   -10191880.200 3  -7941705.648 1
  25719450.693     -389976.706 2   -303872.359 1
  22876514.320    -7183167.325 4  -5597262.140 4
 91  5 28 21 16 15.0060000  0  4 06 13 15 02
  22504177.479   -10646194.960 3  -8295724.116 3
  23702573.547   -10224897.201 3  -7967433.145 1
  25722338.294     -374797.718 2   -292044.602 1
  22881420.125    -7157385.830 4  -5577172.678 3
 91  5 28 21 16 30.0060000  0  4 06 13 15 02
  22506170.800   -10635716.944 3  -8287559.421 3
  23696310.289   -10257800.051 3  -7993071.672 1
  25725247.184     -359469.614 2   -280100.606 1
  22886339.717    -7131540.725 4  -5557033.645 3
 91  5 28 21 16 45.0060000  0  4 06 13 15 02
  22508186.309   -10625124.580 3  -8279305.631 3
  23690071.304   -10290585.532 3  -8018618.727 1
  25728200.738     -343989.425 2   -268038.104 1
  22891267.702    -7105629.085 4  -5536842.763 3
 91  5 28 21 17  0.0060000  0  4 06 13 15 02
  22510224.294   -10614422.658 3  -8270966.466 3
  23683855.109   -10323258.322 3  -8044077.991 1
  25731171.978     -328362.323 2   -255861.134 1
  22896212.780    -7079656.187 4  -5516604.145 3
 91  5 28 21 17 15.0060000  0  4 06 13 15 02
  22512281.474   -10603608.026 3  -8262539.479 3
  23677661.695   -10355815.093 3  -8069446.852 1
  25734169.908     -312585.386 2   -243567.441 1
  22901166.251    -7053618.908 4  -5496315.360 3
 91  5 28 21 17 30.0060000  0  4 06 13 15 02
  22514363.232   -10592685.689 3  -8254028.575 3
  23671491.368   -10388260.787 3  -8094729.169 1
  25737192.416     -296663.553 2   -231160.806 1
  22906130.812    -7027522.267 4  -5475980.325 3
 91  5 28 21 17 45.0060000  0  4 06 13 15 02
  22516460.880   -10581648.774 3  -8245428.388 3
  23665336.632   -10420588.443 3  -8119919.500 1
  25740261.691     -280590.027 2   -218635.945 1
  22911111.566    -7001359.848 4  -5455594.022 3
 91  5 28 21 18  0.0060000  0  4 06 13 15 02
  22518582.207   -10570491.132 3  -8236734.115 3
  23659203.771   -10452791.720 3  -8145012.900 2
  25743342.658     -264358.809 2   -205988.275 1
  22916099.816    -6975125.611 4  -5435151.775 3
 91  5 28 21 18 15.0060000  0  4 06 13 15 02
  22520732.920   -10559206.891 3  -8227941.199 3
  23653098.498   -10484864.648 3  -8170004.741 2
  25746469.188     -247964.101 2   -193213.187 1
  22921109.948    -6948814.099 4  -5414649.300 3
